[[{"header":{"parameterUnit":"m.s-1","parameterCategory":1,"la1":30.6,"la2":28.766,"lo1":-90.7593,"lo2":-88.6598,"dy":0.0162,"dx":0.0183,"nx":116,"ny":114,"refTime":"2024-04-29T12:00:00:Z","depth":0,"parameterNumber":2,"parameterNumberName":"U-component_of_WINDS"},"data":[0.0,0.0,0.0,0.0,0.0,0.0,0.0,0.0,0.0,0.0,0.0,0.0,0.0,0.0,0.0,0.0,0.0,0.0,0.0,0.0,0.0,0.0,0.0,0.0,0.0,0.0,0.0,0.0,0.0,0.0,0.0,0.0,0.0,0.0,0.0,0.0,0.0,0.0,0.0,0.0,0.0,0.0,0.0,0.0,0.0,0.0,0.0,0.0,0.0,0.0,0.0,0.0,0.0,0.0,0.0,0.0,0.0,0.0,0.0,0.0,0.0,0.0,0.0,0.0,0.0,0.0,0.0,0.0,0.0,0.0,0.0,0.0,0.0,0.0,0.0,0.0,0.0,0.0,0.0,0.0,0.0,0.0,0.0,0.0,0.0,0.0,0.0,0.0,0.0,0.0,0.0,0.0,0.0,0.0,0.0,0.0,0.0,0.0,0.0,0.0,0.0,0.0,0.0,0.0,0.0,0.0,0.0,0.0,0.0,0.0,0.0,0.0,0.0,0.0,0.0,0.0,0.0,0.0,0.0,0.0,0.0,0.0,0.0,0.0,0.0,0.0,0.0,0.0,0.0,0.0,0.0,0.0,0.0,0.0,0.0,0.0,0.0,0.0,0.0,0.0,0.0,0.0,0.0,0.0,0.0,0.0,0.0,0.0,0.0,0.0,0.0,0.0,0.0,0.0,0.0,0.0,0.0,0.0,0.0,0.0,0.0,0.0,0.0,0.0,0.0,0.0,0.0,0.0,0.0,0.0,0.0,0.0,0.0,0.0,0.0,0.0,0.0,0.0,0.0,0.0,0.0,0.0,0.0,0.0,0.0,0.0,0.0,0.0,0.0,0.0,0.0,0.0,0.0,0.0,0.0,0.0,0.0,0.0,0.0,0.0,0.0,0.0,0.0,0.0,0.0,0.0,0.0,0.0,0.0,0.0,0.0,0.0,0.0,0.0,0.0,0.0,0.0,0.0,0.0,0.0,0.0,0.0,0.0,0.0,0.0,0.0,0.0,0.0,0.0,0.0,0.0,0.0,0.0,0.0,0.0,0.0,0.0,0.0,0.0,0.0,0.0,0.0,0.0,0.0,0.0,0.0,0.0,0.0,0.0,0.0,0.0,0.0,0.0,0.0,0.0,0.0,0.0,0.0,0.0,0.0,0.0,0.0,0.0,0.0,0.0,0.0,0.0,0.0,0.0,0.0,0.0,0.0,0.0,0.0,0.0,0.0,0.0,0.0,0.0,0.0,0.0,0.0,0.0,0.0,0.0,0.0,0.0,0.0,0.0,0.0,0.0,0.0,0.0,0.0,0.0,0.0,0.0,0.0,0.0,0.0,0.0,0.0,0.0,0.0,0.0,0.0,0.0,0.0,0.0,0.0,0.0,0.0,0.0,0.0,0.0,0.0,0.0,0.0,0.0,0.0,0.0,0.0,0.0,0.0,0.0,0.0,0.0,0.0,0.0,0.0,0.0,0.0,0.0,0.0,0.0,0.0,0.0,0.0,0.0,0.0,0.0,0.0,0.0,0.0,0.0,0.0,0.0,0.0,0.0,0.0,0.0,0.0,0.0,0.0,0.0,0.0,0.0,0.0,0.0,0.0,0.0,0.0,0.0,0.0,0.0,0.0,0.0,0.0,0.0,0.0,0.0,0.0,0.0,0.0,0.0,0.0,0.0,0.0,0.0,0.0,0.0,0.0,0.0,0.0,0.0,0.0,0.0,0.0,0.0,0.0,0.0,0.0,0.0,0.0,0.0,0.0,0.0,0.0,0.0,0.0,0.0,0.0,0.0,0.0,0.0,0.0,0.0,0.0,0.0,0.0,0.0,0.0,0.0,0.0,0.0,0.0,0.0,0.0,0.0,0.0,0.0,0.0,0.0,0.0,0.0,0.0,0.0,0.0,0.0,0.0,0.0,0.0,0.0,0.0,0.0,0.0,0.0,0.0,0.0,0.0,0.0,0.0,0.0,0.0,0.0,0.0,0.0,0.0,0.0,0.0,0.0,0.0,0.0,0.0,0.0,0.0,0.0,0.0,0.0,0.0,0.0,0.0,0.0,0.0,0.0,0.0,0.0,0.0,0.0,0.0,0.0,0.0,0.0,0.0,0.0,0.0,0.0,0.0,0.0,0.0,0.0,0.0,0.0,0.0,0.0,0.0,0.0,0.0,0.0,0.0,0.0,0.0,0.0,0.0,0.0,0.0,0.0,0.0,0.0,0.0,0.0,0.0,0.0,0.0,0.0,0.0,0.0,0.0,0.0,0.0,0.0,0.0,0.0,0.0,0.0,0.0,0.0,0.0,0.0,0.0,0.0,0.0,0.0,0.0,0.0,0.0,0.0,0.0,0.0,0.0,0.0,0.0,0.0,0.0,0.0,0.0,0.0,0.0,0.0,0.0,0.0,0.0,0.0,0.0,0.0,0.0,0.0,0.0,0.0,0.0,0.0,0.0,0.0,0.0,0.0,0.0,0.0,0.0,0.0,0.0,0.0,0.0,0.0,0.0,0.0,0.0,0.0,0.0,0.0,0.0,0.0,0.0,0.0,0.0,0.0,0.0,0.0,0.0,0.0,0.0,0.0,0.0,0.0,0.0,0.0,0.0,0.0,0.0,0.0,0.0,0.0,0.0,0.0,0.0,0.0,0.0,0.0,0.0,0.0,0.0,0.0,0.0,0.0,0.0,0.0,0.0,0.0,0.0,0.0,0.0,0.0,0.0,0.0,0.0,0.0,0.0,0.0,0.0,0.0,0.0,0.0,0.0,0.0,0.0,0.0,0.0,0.0,0.0,0.0,0.0,0.0,0.0,0.0,0.0,0.0,0.0,0.0,0.0,0.0,0.0,0.0,0.0,0.0,0.0,0.0,0.0,0.0,0.0,0.0,0.0,0.0,0.0,0.0,0.0,0.0,0.0,0.0,0.0,0.0,0.0,0.0,0.0,0.0,0.0,0.0,0.0,0.0,0.0,0.0,0.0,0.0,0.0,0.0,0.0,0.0,0.0,0.0,0.0,0.0,0.0,0.0,0.0,0.0,0.0,0.0,0.0,0.0,0.0,0.0,0.0,0.0,0.0,0.0,0.0,0.0,0.0,0.0,0.0,0.0,0.0,0.0,0.0,0.0,0.0,0.0,0.0,0.0,0.0,0.0,0.0,0.0,0.0,0.0,0.0,0.0,0.0,0.0,0.0,0.0,0.0,0.0,0.0,0.0,0.0,0.0,0.0,0.0,0.0,0.0,0.0,0.0,0.0,0.0,0.0,0.0,0.0,0.0,0.0,0.0,0.0,0.0,0.0,0.0,0.0,0.0,0.0,0.0,0.0,0.0,0.0,0.0,0.0,0.0,0.0,0.0,0.0,0.0,0.0,0.0,0.0,0.0,0.0,0.0,0.0,0.0,0.0,0.0,0.0,0.0,0.0,0.0,0.0,0.0,0.0,0.0,0.0,0.0,0.0,0.0,0.0,0.0,0.0,0.0,0.0,0.0,0.0,0.0,0.0,0.0,0.0,0.0,0.0,0.0,0.0,0.0,0.0,0.0,0.0,0.0,0.0,0.0,0.0,0.0,0.0,0.0,0.0,0.0,0.0,0.0,0.0,0.0,0.0,0.0,0.0,0.0,0.0,0.0,0.0,0.0,0.0,0.0,0.0,0.0,0.0,0.0,0.0,0.0,0.0,0.0,0.0,0.0,0.0,0.0,0.0,0.0,0.0,0.0,0.0,0.0,0.0,0.0,0.0,0.0,0.0,0.0,0.0,0.0,0.0,0.0,0.0,0.0,0.0,0.0,0.0,0.0,0.0,0.0,0.0,0.0,0.0,0.0,0.0,0.0,0.0,0.0,0.0,0.0,0.0,0.0,0.0,0.0,0.0,0.0,0.0,0.0,0.0,0.0,0.0,0.0,0.0,0.0,0.0,0.0,0.0,0.0,0.0,0.0,0.0,0.0,0.0,0.0,0.0,0.0,0.0,0.0,0.0,0.0,0.0,0.0,0.0,0.0,0.0,0.0,0.0,0.0,0.0,0.0,0.0,0.0,0.0,0.0,0.0,0.0,0.0,0.0,0.0,0.0,0.0,0.0,0.0,0.0,0.0,0.0,0.0,0.0,0.0,0.0,0.0,0.0,0.0,0.0,0.0,0.0,0.0,0.0,0.0,0.0,0.0,0.0,0.0,0.0,0.0,0.0,0.0,0.0,0.0,0.0,0.0,0.0,0.0,0.0,0.0,0.0,0.0,0.0,0.0,0.0,0.0,0.0,0.0,0.0,0.0,0.0,0.0,0.0,0.0,0.0,0.0,0.0,0.0,0.0,0.0,0.0,0.0,0.0,0.0,0.0,0.0,0.0,0.0,0.0,0.0,0.0,0.0,0.0,0.0,0.0,0.0,0.0,0.0,0.0,0.0,0.0,0.0,0.0,0.0,0.0,0.0,0.0,0.0,0.0,0.0,0.0,0.0,0.0,0.0,0.0,0.0,0.0,0.0,0.0,0.0,0.0,0.0,0.0,0.0,0.0,0.0,0.0,0.0,0.0,0.0,0.0,0.0,0.0,0.0,0.0,0.0,0.0,0.0,0.0,0.0,0.0,0.0,0.0,0.0,0.0,0.0,0.0,0.0,0.0,0.0,0.0,0.0,0.0,0.0,0.0,0.0,0.0,0.0,0.0,0.0,0.0,0.0,0.0,0.0,0.0,0.0,0.0,0.0,0.0,0.0,0.0,0.0,0.0,0.0,0.0,0.0,0.0,0.0,0.0,0.0,0.0,0.0,0.0,0.0,0.0,0.0,0.0,0.0,0.0,0.0,0.0,0.0,0.0,0.0,0.0,0.0,0.0,0.0,0.0,0.0,0.0,0.0,0.0,0.0,0.0,0.0,0.0,0.0,0.0,0.0,0.0,0.0,0.0,0.0,0.0,0.0,0.0,0.0,0.0,0.0,0.0,0.0,0.0,0.0,0.0,0.0,0.0,0.0,0.0,0.0,0.0,0.0,0.0,0.0,0.0,0.0,0.0,0.0,0.0,0.0,0.0,0.0,0.0,0.0,0.0,0.0,0.0,0.0,0.0,0.0,0.0,0.0,0.0,0.0,0.0,0.0,0.0,0.0,0.0,0.0,0.0,0.0,0.0,0.0,0.0,0.0,0.0,0.0,0.0,0.0,0.0,0.0,0.0,0.0,0.0,0.0,0.0,0.0,0.0,0.0,0.0,0.0,0.0,0.0,0.0,0.0,0.0,0.0,0.0,0.0,0.0,0.0,0.0,0.0,0.0,0.0,0.0,0.0,0.0,0.0,0.0,0.0,0.0,0.0,0.0,0.0,0.0,0.0,0.0,0.0,0.0,0.0,0.0,0.0,0.0,0.0,0.0,0.0,0.0,0.0,0.0,0.0,0.0,0.0,0.0,0.0,0.0,0.0,0.0,0.0,0.0,0.0,0.0,0.0,0.0,0.0,0.0,0.0,0.0,0.0,0.0,0.0,0.0,0.0,0.0,0.0,0.0,0.0,0.0,0.0,0.0,0.0,0.0,0.0,0.0,0.0,0.0,0.0,0.0,0.0,0.0,0.0,0.0,0.0,0.0,0.0,0.0,0.0,0.0,0.0,0.0,0.0,0.0,0.0,0.0,0.0,0.0,0.0,0.0,0.0,0.0,0.0,0.0,0.0,0.0,0.0,0.0,0.0,0.0,0.0,0.0,0.0,0.0,0.0,0.0,0.0,0.0,0.0,0.0,0.0,0.0,0.0,0.0,0.0,0.0,0.0,0.0,0.0,0.0,0.0,0.0,0.0,0.0,0.0,0.0,0.0,0.0,0.0,0.0,0.0,0.0,0.0,0.0,0.0,0.0,0.0,0.0,0.0,0.0,0.0,0.0,0.0,0.0,0.0,0.0,0.0,0.0,0.0,0.0,0.0,0.0,0.0,0.0,0.0,0.0,0.0,0.0,0.0,0.0,0.0,0.0,0.0,0.0,0.0,0.0,0.0,0.0,0.0,0.0,0.0,0.0,0.0,0.0,0.0,0.0,0.0,0.0,0.0,0.0,0.0,0.0,0.0,0.0,0.0,0.0,0.0,0.0,0.0,0.0,0.0,0.0,0.0,0.0,0.0,0.0,0.0,0.0,0.0,-2.7442,0.0,0.0,0.0,0.0,0.0,0.0,0.0,0.0,0.0,0.0,0.0,0.0,0.0,0.0,0.0,0.0,0.0,0.0,0.0,0.0,0.0,0.0,0.0,0.0,-0.0,-0.0493,-0.1756,-0.1801,-0.1259,-0.009,-0.0,-0.0,-0.0,-0.0,-0.0,-0.0,0.1534,0.3075,0.4518,0.4525,0.2934,-0.0,-0.0,-0.0,-0.0,0.0,0.0,0.0,0.0,0.0,0.0,0.0,0.0,0.0,0.0,0.0,0.0,0.0,0.0,0.0,0.0,0.0,0.0,0.0,0.0,0.0,0.0,0.0,0.0,0.0,0.0,0.0,0.0,0.0,0.0,0.0,0.0,0.0,0.0,0.0,0.0,0.0,0.0,0.0,0.0,0.0,0.0,0.0,0.0,0.0,0.0,0.0,0.0,0.0,0.0,0.0,0.0,0.0,0.0,0.0,0.0,0.0,0.0,0.0,0.0,0.0,0.0,0.0,0.0,0.0,0.0,0.0,0.0,0.0,0.0,0.0,-2.9089,0.0,0.0,0.0,0.0,0.0,0.0,0.0,0.0,0.0,0.0,0.0,0.0,0.0,0.0,0.0,0.0,0.0,0.0,0.0,0.0,0.0,-0.0,-0.0,-0.0,-0.0,-0.0,-0.1828,-0.2109,-0.0136,-0.0,-0.0,-0.0,0.0519,0.0787,0.0766,0.0792,0.2013,0.4484,0.4502,0.3245,0.0799,0.0221,0.0331,0.0914,0.0831,0.0,0.0,0.0,0.0,0.0,0.0,0.0,0.0,0.0,0.0,0.0,0.0,0.0,0.0,0.0,0.0,0.0,0.0,0.0,0.0,0.0,0.0,0.0,0.0,0.0,0.0,0.0,0.0,0.0,0.0,0.0,0.0,0.0,0.0,0.0,0.0,0.0,0.0,0.0,0.0,0.0,0.0,0.0,0.0,0.0,0.0,0.0,0.0,0.0,0.0,0.0,0.0,0.0,0.0,0.0,0.0,0.0,0.0,0.0,0.0,0.0,0.0,0.0,-3.0329,-3.0703,-2.9902,-3.2148,-3.276,-3.2103,-3.1835,-3.1131,-3.0248,0.0,0.0,0.0,0.0,0.0,0.0,0.0,0.0,0.0,0.0,0.0,0.0,0.0,0.0,0.0,0.0,0.0,0.0,0.0,0.0,-0.0,-0.0,-0.0,-0.0,-0.0,-0.0293,-0.0344,-0.0,-0.0,-0.0,-0.0,0.2516,0.3901,0.3931,0.3911,0.41,0.452,0.4488,0.4275,0.3856,0.1213,0.1679,0.4657,0.4163,0.2452,-0.0,0.0,0.0,0.0,0.0,0.0,0.0,0.0,0.0,0.0,0.0,0.0,0.0,0.0,0.0,0.0,0.0,0.0,0.0,0.0,0.0,0.0,0.0,0.0,0.0,0.0,0.0,0.0,0.0,0.0,0.0,0.0,0.0,0.0,0.0,0.0,0.0,0.0,0.0,0.0,0.0,0.0,-1.0698,-1.2132,0.0,0.0,0.0,0.0,0.0,0.0,0.0,0.0,0.0,0.0,0.0,0.0,0.0,-2.4442,-2.3315,-2.541,-2.7519,-2.9578,-2.9858,-2.9454,-2.8442,-2.9731,-3.1262,-3.2919,-3.5849,0.0,-3.2167,-3.2517,0.0,0.0,0.0,0.0,0.0,0.0,0.0,0.0,0.0,0.0,0.0,0.0,0.0,0.0,0.0,0.0,0.0,0.0,0.0,0.0,0.0,-0.0,-0.0,-0.0,-0.0,-0.0,-0.0,-0.0,-0.0,-0.0,0.1278,0.2785,0.446,0.4476,0.3666,0.1963,0.1962,0.2821,0.4429,0.142,0.1922,0.538,0.5129,0.4089,0.2408,0.0737,0.0,0.0,0.0,0.0,0.0,0.0,0.0,0.0,0.0,0.0,0.0,0.0,0.0,0.0,0.0,0.0,0.0,0.0,0.0,0.0,0.0,0.0,0.0,0.0,0.0,0.0,0.0,0.0,0.0,0.0,0.0,0.0,0.0,0.0,0.0,0.0,0.0,0.0,0.0,-1.083,-1.2312,-1.3167,-1.4392,-1.5508,0.0,0.0,0.0,0.0,0.0,0.0,0.0,0.0,0.0,-2.5183,-2.6103,-2.6088,-2.5008,-2.659,-2.8825,-3.1637,-3.1637,-3.1386,-3.0934,-3.2064,-3.3796,-3.6025,-3.8722,-3.914,-3.7674,-3.5664,-3.4484,-3.4058,0.0,0.0,0.0,0.0,-3.556,-3.6168,0.0,0.0,0.0,0.0,0.0,0.0,0.0,0.0,0.0,0.0,0.0,0.0,0.0047,-0.0,-0.0,-0.0,-0.0,-0.0,-0.0,-0.0,-0.0,-0.0,-0.0,0.107,0.3307,0.41,0.3038,-0.0,-0.0,0.1131,0.33,0.108,0.1731,0.4822,0.5311,0.5144,0.4458,0.2129,0.0909,0.0572,0.0,0.0,0.0,0.0,0.0,0.0,0.0,0.0,0.0,0.0,0.0,0.0,0.0,0.0,0.0,0.0,0.0,0.0,0.0,0.0,0.0,0.0,0.0,0.0,0.0,0.0,0.0,0.0,0.0,0.0,0.0,0.0,0.0,0.0,0.0,0.0,0.0,-1.2011,-1.3549,-1.3958,-1.5156,-1.6309,0.0,0.0,0.0,0.0,0.0,0.0,-2.1198,-2.398,-2.6016,-2.7079,-2.8346,-2.8699,-2.8147,-2.9528,-3.1461,-3.3922,-3.3922,-3.3922,-3.4035,-3.6035,-3.7826,-3.9609,-4.1214,-4.2073,-4.2102,-3.8901,-3.6627,-3.5247,-3.5058,-3.5346,-3.5862,-3.584,-3.619,-3.6844,0.0,0.0,0.0,0.0,0.0,0.0,0.0,0.0,0.0,0.0,0.0,0.128,0.0134,-0.0,-0.0,-0.0,-0.0,-0.0,-0.0,-0.0,-0.0,-0.0,-0.0,0.0054,0.0223,0.3037,0.303,-0.0,-0.0,0.0058,0.0246,0.0065,0.1136,0.3276,0.5036,0.5426,0.4861,0.4458,0.3456,0.2134,0.2429,0.0,0.0,0.0,0.0,0.0,0.0,0.0,0.0,0.0,0.0,0.0,0.0,0.0,0.0,0.0,0.0,0.0,0.0,0.0,0.0,0.0,0.0,0.0,0.0,0.0,0.0,0.0,0.0,0.0,0.0,0.0,0.0,0.0,0.0,0.0,0.0,0.0,0.0,-1.3978,-1.5942,0.0,0.0,0.0,0.0,-1.918,-2.1614,-2.2887,-2.2455,-2.6313,-2.8562,-2.8692,-3.1353,-3.2792,-3.2742,-3.4876,-3.6031,-3.6182,-3.6182,-3.6182,-3.637,-4.0858,-4.2892,-4.3051,-4.316,-4.324,-4.312,-4.1265,-3.92,-3.7211,-3.6626,-3.6415,-3.6445,-3.6353,-3.6832,-3.7398,0.0,0.0,0.0,-0.0073,0.1183,0.237,0.3083,0.3241,0.3358,0.3561,0.3245,0.2182,0.0239,-0.0,-0.0,-0.0,-0.0,-0.0,-0.0,-0.0,-0.0,-0.0,-0.0,-0.0,-0.0,0.1062,0.1081,-0.0,-0.0,-0.0,-0.0,-0.0,0.1096,0.3182,0.5235,0.5916,0.548,0.5028,0.4405,0.3681,0.3811,0.3697,0.0,0.0,0.0,0.0,0.0,0.0,0.0,0.0,0.0,0.0,0.0,0.0,0.0,0.0,0.0,0.0,0.0,0.0,0.0,0.0,0.0,0.0,0.0,0.0,0.0,0.0,0.0,0.0,0.0,0.0,0.0,0.0,0.0,0.0,0.0,0.0,0.0,-1.6862,-1.8465,0.0,-1.9434,-1.9844,-2.0117,-2.0117,-2.1769,-2.3205,-2.4156,-2.7473,-2.9997,-3.1543,-3.3464,-3.47,-3.5177,-3.5956,-3.6358,-3.6452,-3.942,-3.9244,-3.6546,-4.1169,-4.3329,-4.3329,-4.3329,-4.3329,-4.3269,-4.2671,-4.1594,-4.0187,-3.84,-3.7994,-3.8236,-3.738,-3.7785,-3.8708,0.0,0.137,0.0,0.1064,0.2151,0.3097,0.3061,0.3127,0.3131,0.3011,0.3354,0.2985,0.1393,0.047,-0.0,-0.0,-0.0,-0.0,-0.0,-0.0,-0.0,-0.0,-0.0,-0.0,-0.0,-0.0,-0.0,-0.0,-0.0,-0.0,-0.0,0.1462,0.2512,0.3354,0.5439,0.6317,0.6084,0.5739,0.5286,0.488,0.4755,0.4963,0.4974,0.0,0.0,0.0,0.0,0.0,0.0,0.0,0.0,0.0,0.0,0.0,0.0,0.0,0.0,0.0,0.0,0.0,0.0,0.0,0.0,0.0,0.0,0.0,0.0,0.0,0.0,0.0,0.0,0.0,0.0,0.0,0.0,0.0,0.0,0.0,-1.7713,-1.9321,-2.0391,-2.1074,-2.1211,-2.1484,-2.166,-2.166,-2.3421,-2.4982,-2.6229,-2.9284,-3.1577,-3.2959,-3.4774,-3.5881,-3.6358,-3.6358,-3.6358,-3.6452,-4.029,-4.1,-3.8801,-4.1947,-4.3329,-4.3329,-4.3329,-4.3329,-4.3329,-4.3329,-4.3,-4.2282,-4.0457,-3.9888,-3.9948,-3.8841,-3.899,-3.9721,0.0,0.3316,0.3097,0.3015,0.2835,0.2773,0.2978,0.2985,0.2714,0.1955,0.2822,0.3531,0.3602,0.1444,-0.0,-0.0,-0.0,-0.0,-0.0,-0.0,-0.0,-0.0,-0.0,-0.0,-0.0,-0.0,-0.0,-0.0,-0.0,0.0069,0.0282,0.4387,0.539,0.3761,0.5713,0.6668,0.6688,0.6539,0.6152,0.5596,0.5277,0.5107,0.4989,0.0,0.0,0.0,0.0,0.0,0.0,0.0,0.0,0.0,0.0,0.0,0.0,0.0,0.0,0.0,0.0,0.0,0.0,0.0,0.0,0.0,0.0,0.0,0.0,0.0,0.0,0.0,0.0,0.0,0.0,0.0,0.0,0.0,-1.5514,-1.7758,-1.9824,-2.1113,-2.168,-2.2129,-2.2539,-2.334,-2.3848,-2.3938,-2.6722,-2.8507,-2.8603,-3.1796,-3.3434,-3.2959,-3.5203,-3.6358,-3.6358,-3.6358,-3.6452,-3.6546,-3.8827,-4.1113,-4.3329,-4.3329,-4.3329,-4.3329,-4.3329,-4.3329,-4.3329,-4.3329,-4.3329,-4.3269,-4.2611,-4.1983,-4.1324,-4.0636,-4.0367,-4.0351,0.3323,0.3424,0.3201,0.308,0.3039,0.2995,0.3004,0.2502,0.236,0.3019,0.1891,0.1646,0.342,0.1433,-0.0,-0.0,-0.0,-0.0,-0.0,-0.0,-0.0,-0.0,-0.0,-0.0,-0.0,-0.0,-0.0,-0.0,-0.0,0.1591,0.462,0.6179,0.6492,0.5799,0.643,0.6757,0.6695,0.6654,0.6546,0.6349,0.5827,0.531,0.4875,0.0,0.0,0.0,0.0,0.0,0.0,0.0,0.0,0.0,0.0,0.0,0.0,0.0,0.0,0.0,0.0,0.0,0.0,0.0,0.0,0.0,0.0,0.0,0.0,0.0,0.0,0.0,0.0,0.0,0.0,0.0,-1.6891,-1.8043,-1.7781,-1.9442,-2.1055,-2.2051,-2.3086,-2.3769,-2.3887,-2.4687,-2.5555,-2.6527,-2.83,-3.0154,-3.2103,-3.3502,-3.4535,-3.5371,-3.6043,-3.6358,-3.6358,-3.6358,-3.7243,-3.8917,-4.0118,-4.1587,-4.3329,-4.3329,-4.3329,-4.3329,-4.3329,-4.3329,-4.3329,-4.3329,-4.3329,-4.3269,-4.2611,-4.2252,-4.1953,-4.0816,-4.0474,-4.0693,0.3427,0.3379,0.3211,0.312,0.3018,0.2921,0.2875,0.2578,0.2276,0.2109,0.0862,0.0515,0.1943,0.0843,-0.0,-0.0,-0.0,-0.0,-0.0,-0.0,-0.0,-0.0,-0.0,-0.0,-0.0,-0.0,-0.0,-0.0,0.1744,0.3988,0.6674,0.6827,0.6877,0.6958,0.6888,0.6871,0.698,0.6912,0.6885,0.6851,0.6437,0.598,0.5596,0.5555,0.5466,0.5206,0.5028,0.5226,0.5603,0.5175,0.0,0.0,0.0,0.0,0.0,0.0,0.0,0.0,0.0,0.0,0.0,0.0,0.0,0.0,0.0,0.0,0.0,0.0,0.0,0.0,0.0,0.0,0.0,0.0,-1.8793,-2.0273,-2.0723,-2.166,-2.2617,-2.3477,-2.457,-2.5234,-2.5234,-2.6035,-2.7102,-2.8418,-2.9942,-3.1728,-3.3934,-3.48,-3.5571,-3.6358,-3.6358,-3.6358,-3.6358,-3.6358,-3.7428,-3.9448,-4.0462,-4.1587,-4.2629,-4.3061,-4.3329,0.0,-4.3329,-4.3771,-4.4479,-4.3615,-4.3566,0.0,0.0,0.0,0.0,0.0,-4.1666,-4.133,0.3473,0.3297,0.3093,0.3093,0.2862,0.27,0.2704,0.2933,0.2397,0.044,0.0079,-0.0,-0.0,-0.0,-0.0,-0.0,-0.0,-0.0,-0.0,-0.0,-0.0,-0.0,-0.0,-0.0,-0.0,-0.0,-0.0,-0.0,0.4312,0.6626,0.7036,0.6746,0.6951,0.7354,0.7041,0.7122,0.7366,0.7244,0.717,0.7129,0.7021,0.6865,0.6641,0.6084,0.6023,0.6186,0.5779,0.5576,0.5514,0.568,0.0,0.0,0.0,0.0,0.0,0.0,0.0,0.0,0.0,0.0,0.0,0.0,0.0,0.0,0.0,0.0,0.0,0.0,0.0,0.0,0.0,0.0,0.0,0.0,-2.0625,-2.2051,-2.3769,-2.4102,-2.4394,-2.5059,-2.5918,-2.6445,-2.6387,-2.7168,-2.8364,-2.9838,-3.1359,-3.2955,-3.4581,0.0,0.0,0.0,0.0,-3.6452,-3.6615,-3.6615,-3.7494,-3.9244,-4.0462,-4.1337,-4.1864,-4.282,-4.3329,-4.3329,-4.3329,-4.4251,-4.5746,-4.4251,-4.4128,-4.4706,-4.3603,-4.3775,-4.462,-4.4071,-4.3069,-4.2013,0.3059,0.3073,0.2951,0.2951,0.2801,0.2734,0.2847,0.2964,0.266,0.1573,0.0594,-0.0,-0.0,-0.0,-0.0,-0.0,-0.0,-0.0,-0.0,-0.0,-0.0,-0.0,-0.0,-0.0,-0.0,-0.0,-0.0,-0.0,0.4693,0.6862,0.6757,0.6888,0.7052,0.7149,0.7244,0.7319,0.738,0.7468,0.7366,0.7149,0.7244,0.7048,0.6675,0.643,0.6227,0.6064,0.5976,0.6016,0.5983,0.5297,0.5532,0.5402,0.1277,-0.0,0.0,0.0,0.0,0.0,0.0,0.0,0.0,0.0,0.0,0.0,0.0,0.0,0.0,0.0,0.0,0.0,0.0,0.0,0.0,-2.1094,-2.2168,-2.3398,-2.5117,-2.5957,-2.6191,-2.5664,-2.6367,-2.6758,-2.6426,-2.7168,-2.8654,-3.1119,-3.1962,-3.3353,-3.5858,-3.6263,-3.6358,-3.6358,-3.6358,-3.6964,-3.8198,-3.7926,-3.9332,-4.2386,0.0,0.0,-4.2981,-4.317,-4.3329,-4.3329,-4.3329,-4.3536,-4.3974,-4.5196,-4.5488,-4.4911,-4.2954,-4.2985,-4.3952,-4.2805,-4.2237,-4.2045,0.2815,0.2903,0.291,0.291,0.2781,0.2706,0.2781,0.2917,0.2851,0.25,0.103,-0.0,-0.0,-0.0,-0.0,-0.0,-0.0,-0.0,-0.0,-0.0,-0.0,-0.0,-0.0,-0.0,-0.0,-0.0,0.1169,0.3519,0.4747,0.5901,0.7052,0.7039,0.7129,0.7475,0.74,0.7414,0.7489,0.757,0.7421,0.7156,0.7312,0.719,0.6912,0.6837,0.6715,0.6573,0.6431,0.6411,0.6384,0.579,0.5865,0.5501,0.1335,-0.0,-0.0,0.0,0.0,0.0,0.0,0.0,0.0,0.0,0.0,0.0,0.0,0.0,0.0,0.0,0.0,-1.5137,-1.6104,0.0,-2.1016,-2.2324,-2.3613,-2.4902,-2.6191,-2.6758,-2.6777,-2.6133,-2.6816,-2.7168,-2.6738,-2.7881,-2.9638,-3.185,-3.2818,-3.4264,-3.6263,-3.6358,-3.6358,-3.6358,-3.6989,-3.7586,-3.8379,-3.9156,-4.0547,-4.2467,-4.2467,-4.2739,-4.3329,-4.3329,-4.3329,-4.3329,-4.3329,-4.3329,-4.3488,-4.5384,-4.5384,-4.4144,-4.3055,-4.3525,-4.4837,-4.5341,-4.5197,-4.4702,0.2944,0.2953,0.2969,0.2862,0.2829,0.2786,0.2754,0.2884,0.3055,0.3102,0.1514,0.0251,0.0042,-0.0,-0.0,-0.0,-0.0,-0.0,-0.0,-0.0,-0.0,-0.0,-0.0,-0.0,-0.0,0.0927,0.3287,0.714,0.5225,0.5378,0.7403,0.7115,0.7326,0.7801,0.7563,0.7529,0.7638,0.7638,0.7461,0.7197,0.7326,0.7285,0.7143,0.7122,0.7122,0.7041,0.688,0.6826,0.6659,0.6499,0.55,0.3812,0.0927,-0.0,-0.0,-0.0,-0.0496,0.0,0.0,0.0,0.0,0.0,0.0,0.0,0.0,-0.8657,-1.0166,-1.1064,-1.3705,-1.6167,-1.7294,-1.9975,-2.2441,-2.3379,-2.4707,-2.5918,-2.6777,-2.6894,-2.6777,-2.6426,-2.707,-2.7506,-2.7439,-2.8777,-3.0536,-3.261,-3.3773,-3.4969,-3.6358,-3.6615,-3.6709,-3.6709,-3.7861,-3.8559,-3.8801,-4.0376,-4.142,-4.1947,-4.29,-4.3329,-4.3329,-4.3329,-4.3329,-4.3329,-4.3329,-4.3329,-4.3409,-4.4974,-4.4974,-4.3897,-4.4251,-4.5128,-4.6485,-4.8337,-4.8477,-4.7665,0.3798,0.3545,0.3133,0.2773,0.3018,0.3149,0.2898,0.2981,0.3082,0.3088,0.2235,0.1195,0.0119,-0.0,-0.0,-0.0,-0.0,-0.0,-0.0,-0.0,-0.0,-0.0,-0.0,-0.0,-0.0,0.4161,0.6579,0.7125,0.6981,0.7121,0.738,0.7482,0.7631,0.7807,0.7773,0.7773,0.7787,0.7787,0.7617,0.7346,0.7387,0.7312,0.7068,0.7135,0.7075,0.7136,0.7048,0.7094,0.7075,0.7019,0.418,0.0525,0.0146,-0.0,-0.0,-0.0,-0.2274,-0.4822,-0.507,-0.4845,-0.4848,-0.5972,-0.6621,-0.7588,0.0,-1.0783,-1.2106,-1.4909,-1.6419,-1.8123,-2.0756,-2.2194,-2.3398,-2.4648,-2.5019,-2.5449,-2.6328,-2.6465,-2.6445,-2.6387,-2.6797,-2.756,-2.8666,-2.9384,-3.0939,-3.3946,-3.4288,-3.4969,-3.6358,-3.7335,-3.7926,-3.7926,-3.9094,-4.0145,-4.1253,-4.142,-4.2029,-4.309,-4.325,-4.3329,-4.3329,-4.3329,-4.3329,-4.3329,-4.3329,-4.3329,-4.3329,-4.3536,-4.4524,-4.6032,-4.7737,-4.8446,-4.863,-4.8889,-4.8951,-4.8815,0.3961,0.4016,0.3844,0.3167,0.3289,0.3344,0.2968,0.3076,0.3168,0.3108,0.2959,0.2109,0.0213,-0.0,-0.0,-0.0,-0.0,-0.0,-0.0,-0.0,-0.0,-0.0,-0.0,-0.0,-0.0,0.4651,0.7126,0.708,0.7204,0.7251,0.7387,0.7346,0.7502,0.7801,0.7631,0.7611,0.7699,0.7699,0.7529,0.7278,0.7471,0.6532,0.5175,0.6563,0.7133,0.7094,0.7134,0.7085,0.0,0.3887,0.1614,-0.0,-0.0,-0.1201,-0.262,-0.2638,-0.393,-0.5353,-0.5261,-0.5927,-0.678,-0.7149,-0.8364,-1.0003,-1.1993,-1.3155,-1.446,-1.691,-1.8336,-1.9782,-2.1627,-2.3012,-2.4141,0.0,-2.5508,-2.6251,-2.7276,-2.6645,-2.6466,-2.7851,-2.7105,-2.7017,-2.8362,-3.0317,-3.219,-3.3766,-3.4896,-3.6118,-3.7309,-3.7861,-3.8379,-3.9094,-4.0318,-4.1085,-4.1587,-4.2275,-4.282,-4.3329,-4.3329,-4.3645,-4.4128,-4.3806,-4.4736,-4.6523,-4.4251,-4.3329,-4.3329,-4.3329,-4.5122,-4.7933,-4.8702,-4.9018,-4.9018,-4.9018,-4.9018,-4.9018,0.435,0.4415,0.4242,0.3593,0.3552,0.3456,0.3031,0.3104,0.3089,0.2766,0.3226,0.2697,0.0268,-0.0,-0.0,-0.0,-0.0,-0.0,-0.0,-0.0,-0.0,-0.0,-0.0,-0.0,-0.0,0.3968,0.6325,0.7073,0.7109,0.7238,0.7366,0.7299,0.7461,0.7807,0.7556,0.7536,0.759,0.6926,0.6501,0.6334,0.7105,0.6334,0.4718,0.642,0.7066,0.6935,0.56,0.512,0.4604,0.1189,-0.0552,-0.1224,-0.1233,-0.273,-0.4434,-0.4077,-0.4652,-0.5453,-0.5788,-0.6905,-0.8096,-0.8603,-1.0143,-1.2122,-1.3961,-1.5183,-1.6573,-1.8617,-1.9898,-2.1003,-2.2298,-2.3477,-2.4414,-2.498,-2.5605,-2.6486,-2.7606,-2.6764,-2.6689,-2.8539,-2.7743,-2.7475,-2.8516,-3.0951,-3.2907,-3.4004,-3.5669,-3.7062,-3.8017,-3.8711,-3.942,-4.0318,-4.1504,-4.2111,-4.2111,-4.29,-4.3329,-4.3329,-4.3566,-4.3927,-4.4327,-4.3179,-4.5002,-4.8798,-4.4974,-4.3329,-4.3329,-4.3329,-4.553,-4.9018,-4.9018,-4.9018,-4.9018,-4.9018,-4.9018,-4.8951,0.0,0.4608,0.4026,0.3993,0.3766,0.3489,0.3131,0.305,0.2714,0.1939,0.287,0.2697,0.0269,-0.0,-0.0,-0.0,-0.0,-0.0,-0.0,-0.0,-0.0,-0.0,-0.0,-0.0,-0.0,0.2088,0.4465,0.7073,0.7088,0.7217,0.7373,0.7516,0.7583,0.7738,0.7678,0.761,0.7453,0.5073,0.4147,0.4314,0.6304,0.7097,0.6986,0.711,0.7098,0.6502,0.1906,0.0204,0.0194,0.0063,-0.1927,-0.4391,-0.4382,-0.4438,-0.43,-0.3115,-0.3988,-0.5766,-0.7437,-0.7836,-0.836,-1.0568,-1.1841,-1.3156,-1.5643,-1.671,-1.7897,-2.0606,-2.1248,-2.175,-2.3422,-2.3809,-2.4082,-2.4922,-2.5098,-2.557,-2.6558,-2.6722,-2.6901,-2.7656,-2.8803,-2.9508,0.0,-3.0565,-3.2388,-3.5219,-3.6573,-3.7527,-3.8081,-4.029,-4.1504,-4.1504,-4.2629,-4.325,-4.325,-4.325,-4.3329,-4.3329,-4.4282,-4.4282,-4.324,-4.0666,-4.2974,-4.8798,-4.4974,-4.3329,-4.3329,-4.3329,-4.553,-4.9018,-4.9018,-4.9018,-4.9018,-4.9018,-4.9018,-4.8815,0.0,0.0,0.4672,0.4091,0.3922,0.3708,0.3194,0.3257,0.3016,0.1957,0.1456,0.0,0.0,0.0,0.0,0.0,-0.0,-0.0,-0.0,-0.0,-0.0,-0.0,-0.0,-0.0,-0.0,0.0663,0.2841,0.6552,0.6929,0.7104,0.7161,0.7232,0.7298,0.7258,0.5665,0.6051,0.775,0.6536,0.426,0.1384,0.2072,0.2407,0.2415,0.2391,0.2381,0.2194,0.0,-0.0,-0.0303,-0.2287,-0.3666,-0.4326,-0.3285,-0.3682,-0.4471,-0.4344,-0.5382,-0.6711,-0.7641,-0.9166,-1.0784,-1.2103,-1.3878,-1.5922,-1.7976,-1.9206,-2.034,-2.1764,-2.1864,-2.1901,-2.2415,-2.2519,-2.2793,-2.3652,-2.4258,-2.5349,-2.7212,-2.7131,-2.7564,-2.9439,-2.9319,0.0,0.0,0.0,0.0,-3.5418,-3.6877,-3.8553,-4.032,-4.1169,-4.1947,-4.271,-4.309,-4.3329,-4.3329,-4.3329,-4.3329,-4.3329,-4.5342,-4.5269,-4.3269,-4.2646,-4.2474,-4.2636,-4.3138,-4.3329,-4.3329,-4.3329,-4.553,-4.9018,-4.9018,-4.9018,-4.9018,-4.9018,-4.9018,-4.8849,0.0,0.0,0.0,0.4091,0.3733,0.0,0.0,0.0,0.0,0.0,0.0,0.0,0.0,0.0,0.0,0.0,0.0,-0.0,-0.0,-0.0,-0.0,-0.0,-0.0,-0.0,-0.0,-0.0,0.1358,0.4086,0.5149,0.5752,0.5879,0.5811,0.5514,0.4961,0.3465,0.3399,0.4389,0.4537,0.2548,-0.0631,-0.0153,-0.0,-0.0,-0.0,-0.0,0.0,-0.0,-0.0694,-0.1905,-0.3857,-0.4511,-0.433,-0.3355,-0.3975,-0.5289,-0.6121,-0.7073,-0.8098,-0.9122,-1.1155,-1.3252,-1.4276,-1.6184,-1.8208,-1.9743,-2.0641,-2.1291,-2.1916,-2.1719,-2.1367,-2.1211,-2.0937,-2.1232,-2.2864,-2.3594,-2.484,-2.7815,-2.7852,-2.8418,-3.0611,-3.0121,-3.0047,0.0,0.0,0.0,-3.5209,-3.7346,-3.9335,-4.1101,-4.1831,-4.2548,-4.325,-4.3329,-4.3329,-4.3329,-4.3329,-4.3536,-4.3974,-4.5164,-4.5384,-4.4644,-4.3333,-4.1687,-3.9948,-4.1324,-4.2546,-4.3652,-4.483,-4.6604,-4.8511,-4.8849,-4.9018,-4.9018,-4.9018,-4.9018,-4.8883,0.0,0.0,0.0,0.0,0.0,0.0,0.0,0.0,0.0,0.0,0.0,0.0,0.0,0.0,0.0,0.0,0.0,0.0,-0.0,-0.0,-0.0,-0.0,-0.0,-0.0,-0.0,-0.0,-0.0066,-0.0207,0.1733,0.2882,0.3307,0.3315,0.2557,0.112,0.1093,-0.0219,-0.2241,-0.0802,-0.0855,-0.1744,-0.0628,-0.0135,-0.0128,-0.0124,-0.0121,-0.0117,-0.0227,-0.2076,-0.4511,-0.4511,-0.4511,-0.456,-0.4615,-0.5447,-0.6607,-0.8205,-0.9006,-0.9862,-1.1873,-1.3789,-1.5474,-1.6922,-1.8419,-1.9935,-2.1087,-2.1029,-2.0778,-2.1167,-2.0781,-2.037,-1.9938,-1.9141,-1.964,-2.2783,-2.3082,-2.4355,-2.8257,-2.8858,-2.9484,0.0,0.0,0.0,0.0,0.0,0.0,-3.487,0.0,-4.0134,-4.0747,-4.2385,-4.3329,-4.3329,-4.3329,-4.3329,-4.3329,-4.3329,-4.3897,-4.5122,-4.3944,-4.4569,-4.6734,-4.2705,-4.0756,-4.0726,-3.9871,-4.1318,-4.4487,-4.7554,-4.8308,-4.7665,-4.8646,-4.9018,-4.9018,-4.9018,-4.9018,-4.8917,0.0,0.0,0.0,0.0,0.0,0.0,0.0,0.0,0.0,0.0,0.0,0.0,0.0,0.0,0.0,0.0,0.0,0.0,-0.0,-0.0,-0.0,-0.0,-0.0,-0.0,-0.0,-0.0,-0.0878,-0.268,-0.2617,-0.1957,-0.0706,-0.0737,-0.0814,-0.1072,-0.2131,-0.3139,-0.3904,-0.3538,-0.2883,-0.2161,-0.2724,-0.2463,-0.167,-0.1641,-0.1655,-0.1809,-0.2927,-0.3872,-0.449,-0.4497,-0.5009,-0.5726,-0.6508,-0.7259,-0.8055,-0.9013,-1.0267,-1.1836,-1.3781,-1.543,-1.6996,-1.851,-1.9867,-2.1016,-2.1738,-2.1511,-2.1128,-2.1308,-1.9885,-1.8725,-1.8812,-1.9014,-1.9933,-2.2477,-2.3699,0.0,-2.8468,-2.9558,0.0,-3.1248,0.0,-3.2816,-3.3701,-3.5382,0.0,0.0,-3.939,-4.0944,-4.2574,-4.3081,-4.3329,-4.3329,-4.3329,-4.3329,-4.3329,-4.3329,-4.3457,-4.3819,-4.3802,-4.3951,-4.419,-4.2898,-4.2071,-4.1594,-4.0984,-4.3357,-4.7588,-4.6271,-4.6853,-4.8646,-4.8917,-4.9018,-4.9018,-4.9018,-4.9018,-4.8984,0.0,0.0,0.0,0.0,0.0,0.0,0.0,0.0,0.0,0.0,0.0,0.0,0.0,0.0,0.0,0.0,0.0,0.0,0.0,-0.0,-0.0,-0.0,-0.0,-0.0,-0.0,-0.0,-0.1181,-0.3607,-0.3937,-0.3713,-0.3006,-0.3001,-0.2901,-0.2731,-0.3614,-0.4082,-0.4256,-0.432,-0.3798,0.0,0.0,-0.3738,-0.3109,-0.3203,-0.2794,-0.24,-0.3934,-0.4768,-0.5163,-0.5653,-0.6043,-0.6671,-0.8258,-0.9185,-0.9869,-1.094,-1.258,-1.4213,-1.5575,-1.7486,-1.9216,-2.0065,-2.1212,-2.2001,-2.1781,-2.1306,-2.0623,-1.9535,-1.8335,-1.7382,-1.7265,-1.7549,-1.8803,-2.1843,-2.3329,0.0,-2.8445,-2.9788,-3.0793,0.0,-3.2708,0.0,-3.5251,-3.6924,-3.8603,0.0,-4.1007,-4.1743,-4.2851,-4.318,-4.3329,-4.3329,-4.3329,-4.3329,-4.3329,-4.306,-4.306,-4.3329,-4.3229,-4.329,-4.3299,-4.2713,-4.2273,-4.1923,0.0,-4.2614,-4.6157,-4.5058,-4.5805,-4.7767,-4.8646,-4.9018,-4.9018,-4.9018,-4.9018,-4.9018,0.0,0.0,0.0,0.0,0.0,0.0,0.0,0.0,0.0,0.3721,0.364,0.3595,0.0,0.0,0.0,0.0,0.0,0.0,0.0,0.0,-0.0,-0.0,-0.0,-0.0,-0.0,-0.0,-0.1007,-0.3147,-0.3435,-0.3742,-0.3973,-0.3993,-0.3979,-0.3903,-0.3903,-0.3896,-0.3988,-0.4101,-0.4032,-0.3846,-0.4312,-0.4355,-0.4205,0.0,-0.3694,-0.2679,-0.4033,-0.5093,-0.6027,-0.7229,-0.7461,-0.7668,-0.9947,-1.1021,-1.1802,-1.3303,-1.5021,-1.6616,-1.7371,-1.9479,-2.1463,-2.1553,-2.2315,-2.2715,-2.1587,-2.0703,-1.9546,-1.7238,-1.6668,-1.6397,-1.5883,-1.6126,-1.7634,-2.1473,-2.2756,-2.4681,-2.8499,-2.9957,-3.1069,-3.2313,-3.3427,-3.5036,-3.7312,-3.8467,-4.0013,-4.2324,-4.2491,-4.2491,-4.2491,-4.303,-4.3329,-4.3329,-4.3329,-4.3329,-4.3329,-4.2761,-4.2731,-4.318,-4.2641,-4.2641,-4.312,-4.2372,-4.2102,-4.2102,0.0,0.0,-4.3353,-4.4198,-4.5297,-4.6549,-4.8105,-4.8849,-4.9018,-4.9018,-4.9018,-4.9018,0.0,0.0,0.0,0.0,0.0,0.0,0.0,0.0,0.0,0.0,0.3884,0.3581,0.0,0.0,0.0,0.0,0.0,0.0,0.0,0.0,0.0,-0.0,-0.0,-0.0,-0.0,-0.0,-0.0196,-0.0641,-0.2645,-0.363,-0.3656,-0.3919,-0.3955,-0.3832,-0.3832,-0.3832,-0.3832,-0.388,-0.3894,-0.3995,-0.4178,-0.4239,-0.4233,-0.4416,0.0,0.0,-0.4408,-0.4959,-0.5814,-0.7634,-0.8579,-0.9362,-1.1359,-1.249,-1.3411,-1.4469,-1.5842,-1.7401,-1.9168,-2.0726,-2.2099,-2.3114,-2.2969,-2.2434,-2.1957,-1.9797,-1.7863,-1.7407,-1.667,-1.6069,-1.6115,-1.7672,-1.9832,-2.2466,-2.3791,-2.5702,-2.9176,-3.0495,-3.173,0.0,-3.4821,-3.665,-3.9082,-3.9923,0.0,0.0,0.0,-4.315,-4.315,-4.3269,-4.3329,-4.3329,-4.3329,-4.3329,-4.3329,-4.324,-4.294,-4.2521,-4.2402,-4.2312,-4.2252,-4.2102,-4.2432,-4.309,-4.2791,0.0,-4.5552,-4.4857,-4.6109,-4.8409,-4.753,-4.7936,-4.9018,-4.9018,-4.9018,-4.9018,0.0,0.0,0.0,0.0,0.0,0.0,0.5457,0.4886,0.4517,0.4822,0.414,0.3581,0.3581,0.3581,0.3588,0.0,0.0,0.0,0.0,0.0,0.0,-0.0,-0.0,-0.0,-0.0,-0.0,-0.0,-0.0,0.0,-0.3006,-0.3599,-0.3711,-0.3751,-0.3683,-0.3683,-0.3858,-0.4078,-0.3813,-0.4137,-0.4814,-0.4314,-0.4378,-0.4733,-0.4573,0.0,0.0,-0.4519,-0.5171,-0.6239,-0.7521,-0.8908,-1.0393,-1.2045,-1.3636,-1.4993,-1.5533,-1.7409,-1.9602,-2.0726,-2.2007,-2.3047,-2.3699,-2.2812,-2.1607,-2.0925,-1.8859,-1.6894,-1.6449,-1.5882,-1.5656,-1.6207,-1.7608,-1.9414,-2.1506,-2.2756,-2.4705,-2.8324,-2.9663,-3.1272,-3.3792,-3.5814,-3.7572,-3.9139,-4.0675,0.0,0.0,0.0,-4.2821,-4.2821,-4.2491,-4.2312,-4.2312,-4.2312,-4.2432,-4.2641,-4.2432,-4.2282,-4.2192,-4.2312,-4.2491,-4.2701,-4.2701,-4.294,-4.3269,-4.1893,0.0,-4.517,-4.288,-4.3771,-4.6616,-4.5906,-4.7022,-4.9018,-4.9018,-4.9018,-4.9018,0.0,0.0,0.0,0.0,0.0,0.0,0.5823,0.5042,0.4561,0.5211,0.4316,0.3493,0.3265,0.3448,0.3595,0.0,0.0,0.0,0.0,0.0,0.0,0.0,-0.0,-0.0,-0.0,0.0,0.0,-0.076,-0.1472,0.0,0.0,0.0,0.0,0.0,-0.3581,-0.384,-0.422,-0.3832,-0.4365,0.0,0.0,-0.4641,-0.5501,0.0,0.0,0.0,0.0,-0.5555,-0.6713,-0.7274,-0.8908,-1.093,-1.2175,-1.3853,-1.5555,-1.595,-1.8304,-2.0891,-2.1662,-2.2791,-2.3789,-2.3789,-2.2422,-2.082,-1.9788,-1.7946,-1.6295,-1.5465,-1.5356,-1.5565,-1.6103,-1.7242,-1.8675,-2.026,-2.1504,-2.3585,-2.7205,-2.8817,-3.0893,-3.4158,-3.6396,0.0,-3.9092,-4.0837,0.0,0.0,0.0,0.0,-4.2132,-4.1654,-4.1444,-4.1594,-4.1354,-4.1504,-4.2102,-4.1534,-4.1474,-4.1893,-4.2222,-4.2551,-4.291,-4.321,-4.303,-4.2372,-4.0307,0.0,0.0,-4.2547,-4.3073,-4.5466,-4.4823,-4.6007,-4.8139,-4.8781,-4.9018,-4.9018,0.0,0.0,0.0,0.0,0.0,0.0,0.6389,0.5197,0.4462,0.5191,0.4316,0.3176,0.2095,0.2965,0.3615,0.0,0.0,0.0,0.0,0.0,0.0,0.0,0.0,0.0,0.0,0.0,0.0,-0.3245,-0.2281,0.0,0.0,0.0,0.0,0.0,0.0,-0.3626,-0.3677,-0.3763,0.0,0.0,0.0,0.0,0.0,0.0,0.0,0.0,0.0,-0.5928,-0.6713,-0.7274,-0.9075,-1.1105,-1.1541,-1.2487,-1.3694,-1.4977,-1.7,-1.9177,-2.0873,-2.2546,-2.3789,-2.3789,-2.2187,-2.0503,-1.9798,-1.7595,-1.5687,-1.5367,-1.5843,-1.6126,-1.5742,-1.7408,-1.9108,-1.9786,-2.1274,-2.3454,-2.6522,-2.8823,-3.1381,-3.4606,0.0,0.0,-4.004,-4.0442,0.0,0.0,0.0,0.0,-4.1444,-4.1414,-4.1654,-4.2252,-4.1294,-4.1294,-4.2312,-4.1294,-4.0995,-4.1444,-4.2073,-4.2073,-4.1594,-4.2791,-4.2043,-3.9768,-3.9529,0.0,0.0,-4.8236,-4.8332,-4.8342,-4.5635,-4.4756,-4.5297,-4.8003,-4.9018,-4.9018,0.0,0.0,0.0,0.0,0.0,0.0,0.5737,0.4973,0.4453,0.4865,0.4164,0.3417,0.2921,0.3289,0.3021,0.1573,0.0539,0.0,0.0,0.0,0.0,0.0,0.0,0.0,0.0,0.0,-0.283,-0.4137,-0.3401,0.0,0.0,0.0,0.0,0.0,0.0,0.0,-0.406,-0.3862,0.0,0.0,0.0,0.0,0.0,0.0,0.0,0.0,0.0,0.0,-0.6727,-0.74,-0.8976,-1.0632,-1.0558,-1.1479,-1.3006,-1.5363,-1.7828,-2.0153,-2.1655,-2.289,-2.391,-2.423,-2.209,-2.0053,-2.0205,-1.775,-1.5571,-1.5914,-1.5954,-1.6068,-1.6573,-1.7439,-1.8204,-1.8756,-1.9991,-2.1898,-2.4723,-2.6797,-2.9746,-3.4168,-3.5978,0.0,0.0,0.0,0.0,0.0,0.0,0.0,-4.0217,-4.0217,-4.0307,-4.0576,-4.0157,-4.0157,-4.0576,-4.0546,-4.0606,-4.0786,-4.1444,-4.2043,-4.2551,-4.2282,-4.1145,-3.9409,-3.9409,0.0,0.0,-4.5469,-4.7394,-4.8714,-4.5737,-4.4587,-4.4925,-4.7902,-4.9018,-4.9018,0.0,0.0,0.0,0.0,0.0,0.4888,0.5178,0.45,0.4101,0.4517,0.3781,0.324,0.3233,0.307,0.2441,0.1167,0.0717,0.0,0.0,0.0,0.0,0.0,0.0,0.0,0.0,-0.2384,-0.3806,-0.4252,-0.3994,-0.3941,0.0,0.0,0.0,0.0,0.0,0.0,0.0,0.0,0.0,0.0,0.0,0.0,0.0,0.0,0.0,0.0,0.0,0.0,0.0,0.0,0.0,-1.0439,-1.0383,-1.1378,-1.3046,-1.5341,-1.7815,-2.019,-2.1849,-2.3081,-2.3941,-2.4366,-2.2125,-1.994,-2.0366,-1.7886,-1.5776,-1.6361,-1.6151,-1.6118,-1.7005,-1.74,-1.7748,-1.8134,-1.944,-2.1296,-2.3809,-2.5716,-2.8637,-3.3335,0.0,0.0,0.0,0.0,0.0,0.0,0.0,0.0,0.0,-3.9409,-3.9499,-3.9709,-3.9529,-3.9529,-3.9709,-3.9978,-4.0217,-4.0397,-4.0876,-4.1683,-4.2731,-4.1803,-4.0666,-3.9409,0.0,0.0,0.0,-4.4056,-4.7106,-4.8711,-4.575,-4.5128,-4.6143,-4.824,-4.9018,-4.9018,0.0,0.0,0.0,0.0,0.0,0.4273,0.498,0.3867,0.3242,0.4085,0.3178,0.2427,0.2392,0.1762,0.1926,0.3417,0.2464,0.0,0.0,0.0,0.0,0.0,-0.0,-0.0,-0.0,-0.2384,-0.3609,-0.3602,-0.3791,-0.3777,-0.3588,-0.3724,-0.3717,-0.3581,0.0,0.0,0.0,0.0,-0.4502,0.0,0.0,0.0,-0.675,0.0,0.0,0.0,0.0,0.0,0.0,0.0,0.0,0.0,0.0,-1.2657,-1.3917,-1.4552,-1.623,-1.8446,-2.1025,-2.2855,-2.3962,-2.3962,-2.2195,-2.0258,-1.9874,-1.7973,-1.6312,-1.6449,-1.6522,-1.6479,-1.6522,-1.7451,-1.819,-1.8184,-2.0188,-2.2412,-2.4393,-2.6347,-2.8786,0.0,0.0,0.0,0.0,0.0,0.0,0.0,0.0,0.0,0.0,-3.9409,-3.9709,-4.0367,-3.9768,-3.9738,-4.0397,-3.9738,-3.9738,-4.0397,-4.0397,-4.0756,-4.1414,-4.1384,-4.0666,0.0,0.0,0.0,0.0,-4.6289,-4.8967,-4.8687,-4.5716,-4.638,-4.8951,-4.8984,-4.9018,-4.9018,0.0,0.0,0.0,0.0,0.0,0.0,0.4007,0.3325,0.2904,0.3331,0.3089,0.2955,0.3202,0.2794,0.2671,0.297,0.3013,0.0,0.0,0.0,0.0,0.2384,0.0898,-0.0,-0.0,-0.175,-0.3034,-0.3859,-0.4043,-0.4138,-0.423,-0.4022,-0.3976,-0.3983,-0.3722,-0.3653,0.0,-0.3914,-0.4569,-0.5515,-0.6558,-0.7128,-0.745,0.0,0.0,0.0,0.0,0.0,0.0,0.0,0.0,0.0,0.0,0.0,0.0,-1.5023,-1.6373,-1.7807,-1.9225,-2.0358,-2.1259,-2.1661,-2.0327,-1.8987,-1.9202,-1.7774,-1.646,-1.6504,-1.6795,-1.7021,-1.7021,-1.7644,-1.8434,-1.9341,-2.0806,-2.2357,-2.3855,-2.6494,0.0,-3.2168,0.0,0.0,0.0,0.0,0.0,0.0,0.0,0.0,0.0,-3.9409,-3.9529,-3.9738,-3.9529,-3.9529,-3.9738,-3.9529,-3.9529,-3.9738,-3.9738,-3.9828,-4.0038,-4.0038,0.0,0.0,0.0,0.0,0.0,-4.4183,-4.6011,-4.5908,-4.497,-4.5183,-4.6227,-4.8219,-4.9018,-4.9018,0.0,0.0,0.0,0.0,0.0,0.0,0.3449,0.3024,0.2759,0.2991,0.2985,0.2872,0.259,0.2258,0.1947,0.1712,0.2296,0.0,0.0,0.0,0.0,0.3519,0.2156,0.0948,-0.0,-0.1339,-0.2761,-0.4207,-0.4127,-0.4192,-0.4402,-0.4239,-0.4104,-0.3948,-0.3805,-0.3797,0.0,-0.4063,-0.4711,-0.5538,-0.6308,-0.702,-0.7783,0.0,0.0,0.0,0.0,0.0,0.0,0.0,0.0,0.0,0.0,0.0,0.0,0.0,-1.6409,-1.7249,-1.8414,-1.9412,-2.022,-2.0593,-1.9586,-1.8542,-1.8684,-1.7576,-1.6522,-1.6522,-1.6921,-1.7312,-1.7312,-1.7882,-1.874,-1.988,-2.1026,-2.2337,-2.389,-2.6495,0.0,0.0,0.0,0.0,0.0,0.0,0.0,0.0,0.0,0.0,0.0,-3.9391,-3.9361,-3.9409,-3.94,-3.94,-3.9409,-3.94,-3.94,-3.9409,-3.9409,-3.9409,-3.9409,-3.9409,0.0,0.0,0.0,0.0,0.0,-4.1717,-4.3398,-4.4587,-4.4587,-4.5274,-4.6465,-4.8301,-4.8978,-4.9018,0.0,0.0,0.0,0.0,0.0,0.0,0.0,0.2952,0.2732,0.2851,0.2656,0.2056,0.0958,0.041,0.0081,-0.0219,0.0453,0.0,0.0,0.2821,0.2815,0.3564,0.3602,0.2511,0.0189,-0.1144,-0.2687,-0.4476,-0.4122,-0.4058,-0.4237,-0.4429,-0.418,-0.3643,-0.3912,-0.4086,-0.4228,-0.4442,-0.4937,-0.5592,-0.6362,-0.7074,0.0,0.0,0.0,0.0,0.0,0.0,0.0,0.0,0.0,0.0,0.0,0.0,0.0,0.0,0.0,0.0,0.0,-1.9585,-2.0416,-2.0416,-1.9661,-1.8755,-1.8251,-1.7365,0.0,-1.6607,-1.7021,-1.7435,-1.7488,-1.833,-1.9265,-2.0045,-2.1152,-2.2571,-2.4386,-2.6475,0.0,0.0,0.0,0.0,0.0,0.0,0.0,0.0,0.0,0.0,0.0,-3.9365,-3.9365,-3.9247,-3.9372,-3.9223,-3.8941,-3.9119,-3.9282,-3.9397,-3.9367,-3.9409,-3.9409,-3.9409,0.0,0.0,0.0,0.0,0.0,-3.9691,-4.1671,-4.4564,-4.4587,-4.6306,-4.8719,-4.8933,-4.9025,-4.9018,0.0,0.0,0.0,0.0,0.0,0.0,0.0,0.0,0.0,0.0,0.0881,0.0301,-0.0,-0.065,-0.1407,0.0,0.0,0.0,0.0,0.238,0.3417,0.3602,0.3609,0.2892,0.1404,-0.0713,-0.256,-0.4122,-0.4278,-0.4402,-0.445,-0.4491,-0.4267,-0.3919,-0.3986,-0.409,-0.4258,-0.4838,-0.5259,-0.5592,-0.6902,-0.7557,0.0,0.0,0.0,0.0,-1.032,-1.0559,0.0,0.0,0.0,0.0,0.0,0.0,0.0,0.0,-1.6522,-1.6597,-1.6999,0.0,-1.7501,-1.7501,-1.7587,-1.7678,0.0,-1.7621,-1.7693,-1.7693,-1.8131,-1.8691,-1.9171,-1.9835,-2.0803,-2.2443,-2.3392,-2.4233,-2.5159,0.0,0.0,0.0,0.0,0.0,0.0,0.0,0.0,0.0,0.0,0.0,0.0,-3.881,-3.8952,-3.7925,-3.887,-3.7878,-3.4621,-3.6747,-3.8342,-3.9416,-3.94,-3.9409,-3.9409,-3.9409,0.0,0.0,0.0,0.0,-3.9632,-4.2272,-4.3889,-4.4582,-4.4586,-4.5014,-4.5909,-4.8167,-4.9018,-4.9018,0.0,0.0,0.0,0.0,0.0,0.0,0.0,0.0,0.0,0.0,-0.0874,-0.1804,-0.182,-0.2211,-0.2681,0.0,0.0,0.0,-0.1743,0.0626,0.1928,0.1969,0.3015,0.3275,0.2631,-0.0382,-0.2713,-0.4207,-0.43,-0.4429,-0.4519,-0.4519,-0.4368,-0.4095,-0.4093,-0.4362,-0.4816,-0.5243,-0.5979,-0.7031,-0.7853,0.0,0.0,0.0,0.0,0.0,-1.1908,-1.2122,0.0,-1.3637,-1.4079,-1.431,0.0,0.0,0.0,0.0,-1.6522,-1.6522,-1.6522,-1.6522,-1.6522,-1.6522,-1.6921,-1.7312,-1.7312,-1.7693,-1.8092,-1.8092,-1.8521,-1.9008,-1.9353,-1.9862,-2.0887,-2.2862,-2.32,-2.392,0.0,0.0,0.0,0.0,0.0,0.0,0.0,0.0,0.0,0.0,0.0,0.0,0.0,-3.8121,-3.8153,-3.7416,-3.5844,-3.4348,-3.3063,-3.4617,-3.6235,-3.7915,-3.8914,-3.9439,-3.9444,-3.9444,-3.9444,0.0,0.0,0.0,-3.9627,-4.3186,-4.4604,-4.4604,-4.4606,-4.463,-4.4984,-4.7937,-4.9018,-4.9006,0.0,0.0,0.0,0.0,0.0,0.0,0.0,0.0,0.0,0.0,0.0,0.0,0.0,0.0,0.0,0.0,0.0,-0.341,-0.3588,-0.1701,-0.0403,-0.0,0.1973,0.3221,0.3595,-0.0,-0.2773,-0.4519,-0.4347,-0.4347,-0.4519,-0.4519,-0.4436,-0.4351,-0.4428,-0.4922,-0.5604,-0.5811,-0.7041,-0.8867,-0.9089,0.0,0.0,0.0,0.0,0.0,0.0,0.0,0.0,-1.5219,-1.5576,-1.5732,-1.6281,0.0,0.0,0.0,0.0,0.0,-1.6367,-1.6485,-1.6622,-1.6547,-1.6921,-1.7312,-1.7394,-1.7814,-1.8249,-1.8327,-1.8703,-1.9035,-1.915,-1.9567,-2.0474,-2.2378,-2.2364,0.0,0.0,0.0,0.0,0.0,0.0,0.0,0.0,0.0,0.0,0.0,0.0,0.0,0.0,-3.6813,-3.677,-3.6635,-3.2198,-3.0724,-3.2595,-3.2592,-3.3473,-3.5267,-3.7565,-3.8882,-3.9425,-3.9425,-3.9204,-3.8782,0.0,0.0,-3.9613,-4.2559,-4.4125,-4.4623,-4.4615,-4.4923,-4.552,-4.7556,-4.8625,-4.8999,0.0,0.0,0.0,0.0,0.0,0.0,0.0,0.0,0.0,0.0,0.0,0.0,0.0,0.0,0.0,0.0,-0.3561,-0.3561,-0.3595,-0.3239,-0.2156,-0.009,0.0359,0.1509,0.3548,0.0831,-0.1884,-0.452,-0.449,-0.4484,-0.4519,-0.4519,-0.4653,-0.5008,-0.5508,-0.5846,-0.6184,-0.7353,-0.8457,-0.9555,-1.0764,0.0,0.0,0.0,0.0,0.0,0.0,0.0,0.0,-1.5353,-1.5576,-1.5732,-1.6281,0.0,0.0,0.0,0.0,0.0,-1.5864,-1.6495,-1.7124,-1.6647,-1.6921,-1.7435,-1.7854,-1.8366,-1.8893,-1.9369,-1.9515,-1.973,-2.0325,-2.0479,-2.0979,-2.232,0.0,0.0,0.0,0.0,0.0,0.0,0.0,0.0,0.0,0.0,0.0,0.0,0.0,0.0,0.0,-3.4311,-3.393,-3.334,-3.104,-2.9984,-3.0292,-3.0294,-3.0461,-3.079,-3.3676,-3.6562,-3.9429,-3.9429,-3.8219,-3.6104,0.0,-3.7358,-3.9409,-3.9976,-4.195,-4.4575,-4.4598,-4.6146,-4.8089,-4.601,-4.6851,-4.8984,0.0,0.0,0.0,0.0,0.0,0.0,0.0,0.0,0.0,0.0,0.0,0.0,0.0,0.0,0.0,0.0,-0.3581,-0.3588,-0.3609,-0.3609,-0.2502,-0.0093,-0.0,-0.0234,-0.0761,-0.1154,-0.2395,-0.4478,-0.4504,-0.4677,-0.5054,-0.5445,-0.572,-0.5942,-0.6339,-0.6918,-0.7638,-0.8771,-0.9834,-1.0998,0.0,0.0,0.0,0.0,0.0,0.0,0.0,0.0,0.0,0.0,-1.6107,-1.6151,-1.6436,0.0,0.0,0.0,0.0,0.0,-1.6151,-1.6479,-1.6935,-1.6956,-1.734,-1.7956,-1.8508,-1.8791,-1.9262,-2.0525,-2.0507,-2.048,-2.1108,-2.1554,-2.2236,-2.3644,0.0,0.0,0.0,0.0,0.0,0.0,0.0,0.0,0.0,0.0,0.0,0.0,0.0,0.0,0.0,0.0,-3.2935,-3.2624,-3.0797,-2.9783,-2.9804,-2.9766,-2.9777,-2.9854,-3.3348,-3.5798,-3.7287,-3.7323,-3.6611,-3.5486,0.0,-3.619,-3.7529,-4.0862,-4.3136,-4.463,-4.4619,-4.5399,-4.6544,-4.6007,-4.7158,-4.8904,0.0,0.0,0.0,0.0,0.0,0.0,0.0,0.0,0.0,0.0,0.0,0.0,0.0,0.0,0.0,0.0,-0.3101,-0.299,-0.3571,-0.3615,-0.2525,-0.0096,-0.0675,-0.2142,-0.445,-0.3368,-0.3303,-0.452,-0.4525,-0.4787,-0.5273,-0.6514,-0.6913,-0.668,-0.7446,-0.8158,-0.8855,-0.9834,-1.0948,-1.2298,0.0,0.0,0.0,0.0,0.0,0.0,0.0,0.0,0.0,0.0,0.0,0.0,0.0,0.0,0.0,-1.6324,-1.6367,-1.6479,-1.6324,-1.6492,-1.6802,-1.7173,-1.7655,-1.8318,-1.9461,-1.9698,-2.0161,-2.2177,-2.1913,-2.1484,-2.1857,-2.2307,0.0,-2.4875,0.0,0.0,0.0,0.0,0.0,0.0,0.0,0.0,0.0,0.0,0.0,0.0,0.0,0.0,0.0,0.0,-3.2246,-3.192,-3.0522,-2.9804,-2.9804,-2.9804,-2.9783,-2.9825,-3.2755,-3.464,-3.5485,-3.5495,-3.5489,-3.5489,-3.5489,-3.5524,-3.5921,-4.1332,-4.3932,-4.4606,-4.4619,-4.4609,-4.4767,-4.6282,-4.7335,-4.7928,0.0,0.0,0.0,0.0,0.0,0.0,0.0,0.0,0.0,0.0,0.0,0.0,0.0,0.0,-0.3581,-0.3581,-0.1533,-0.1201,-0.3449,-0.3615,-0.2544,-0.0097,-0.269,-0.4277,-0.4523,-0.4372,-0.4388,-0.4519,-0.4519,-0.4519,-0.4622,-0.7298,-0.792,-0.6912,-0.9221,-0.9781,-0.906,-1.0361,-1.1644,-1.2979,-1.4564,0.0,0.0,0.0,0.0,0.0,0.0,0.0,0.0,0.0,0.0,0.0,0.0,0.0,-1.6367,-1.582,-1.6039,-1.6367,-1.582,-1.6475,-1.7308,-1.7303,-1.7338,-1.8123,-2.1026,-2.1715,-2.2367,-2.4835,-2.4253,-2.3148,-2.2711,-2.2468,-2.3024,0.0,0.0,0.0,0.0,0.0,0.0,0.0,0.0,0.0,0.0,0.0,0.0,0.0,0.0,0.0,0.0,0.0,0.0,-3.0061,-2.9882,-2.9804,-2.9804,-2.9804,-2.9783,-2.9799,-3.0073,-3.2053,-3.5468,-3.5495,-3.5484,-3.5484,-3.5484,-3.5485,-3.5789,-3.9065,-4.208,-4.4606,-4.4572,-4.4609,-4.4798,-4.6254,-4.6001,-4.5295,0.0,0.0,0.0,0.0,0.0,0.0,0.0,0.0,0.0,0.0,0.0,-0.5178,-0.3751,0.0,-0.1351,-0.1384,-0.0551,0.0239,0.0847,-0.0508,-0.1345,-0.1388,-0.3402,-0.4651,-0.5004,-0.4678,-0.4914,-0.5782,-0.6154,-0.6568,-0.7138,-0.8829,-0.9723,-0.986,-1.0339,-1.0895,-1.1431,-1.1488,-1.2106,-1.327,-1.5954,-1.7079,0.0,0.0,0.0,0.0,0.0,0.0,0.0,0.0,-1.6371,-1.6245,-1.6446,-1.6522,-1.6479,-1.6238,-1.6324,-1.6479,-1.6238,-1.703,-1.7922,-1.7814,-1.8672,-1.9936,-2.1394,-2.171,-2.2226,-2.4272,-2.4528,-2.4341,-2.4271,0.0,-2.5005,0.0,0.0,0.0,0.0,0.0,0.0,0.0,0.0,0.0,0.0,0.0,0.0,0.0,0.0,0.0,0.0,0.0,0.0,-2.9804,-2.9804,-2.9804,-2.9804,-2.9804,-2.9781,-2.9809,-2.9783,-3.1815,-3.5532,-3.5518,-3.5519,-3.5519,-3.5519,-3.6599,-3.8424,-3.9618,-4.0795,-4.1971,-4.3898,-4.4598,-4.4639,-4.524,-4.5443,-4.5554,0.0,0.0,0.0,0.0,0.0,0.0,0.0,0.0,-0.5871,0.0,0.0,0.0,0.0,-0.0986,-0.0,0.0,-0.0,0.0717,0.237,0.0185,-0.1588,-0.2574,-0.3919,-0.497,-0.5677,-0.5326,-0.5509,-0.6183,-0.6806,-0.7224,-0.7405,-0.9467,-1.0998,-1.2073,-1.194,-1.2213,-1.2765,-1.3127,-1.3374,-1.3853,-1.7243,-1.819,0.0,0.0,0.0,0.0,0.0,0.0,0.0,0.0,-1.6396,-1.6296,-1.6471,-1.6522,-1.6522,-1.6522,-1.6625,-1.6752,-1.6752,-1.7476,-1.8302,-1.8611,-1.9652,-2.0853,-2.211,-2.2685,-2.3554,-2.5572,-2.562,-2.5274,-2.5335,-2.5415,0.0,0.0,0.0,0.0,0.0,0.0,0.0,0.0,0.0,0.0,0.0,0.0,0.0,0.0,0.0,0.0,0.0,0.0,0.0,0.0,-2.9804,-2.9804,-2.9804,-2.9804,-2.9804,-2.9779,-2.9796,-3.1775,-3.551,-3.5486,-3.5508,-3.5519,-3.5519,-3.7002,-3.9379,-3.9891,-4.0654,-4.1755,-4.3753,-4.4598,-4.4586,-4.4564,-4.5015,-4.549,0.0,0.0,0.0,0.0,0.0,0.0,0.0,0.0,-0.4319,-0.4639,-0.5048,0.0,0.0,0.0,0.0,0.0,-0.0,-0.0,-0.0,-0.225,-0.3592,-0.3595,-0.4486,-0.5462,-0.6466,-0.6605,-0.6211,-0.5327,-0.6173,-0.5928,-0.4622,-0.8854,-1.1584,-1.2968,-1.4165,-1.3806,-1.2523,-1.5333,-1.5769,-1.4818,-1.8273,-1.9696,-1.9696,0.0,0.0,0.0,0.0,0.0,0.0,0.0,-1.6145,-1.5793,-1.6346,-1.6522,-1.6479,-1.6522,-1.6879,-1.7312,-1.7312,-1.772,-1.8416,-1.9609,-1.9866,-2.0589,-2.3443,-2.5187,-2.6891,-2.9279,-2.785,-2.6018,-2.5709,-2.5184,0.0,0.0,0.0,0.0,0.0,0.0,0.0,0.0,0.0,0.0,0.0,0.0,0.0,0.0,0.0,0.0,0.0,0.0,0.0,0.0,-2.9804,-2.9804,-2.9804,-2.9804,-2.9804,-2.9779,-2.9832,-3.1783,-3.541,-3.5467,-3.5473,-3.5519,-3.5519,-3.6383,-3.7918,-3.9469,-4.1866,-4.459,-4.4584,-4.4587,-4.4587,-4.4587,-4.4587,-4.4587,0.0,0.0,0.0,0.0,0.0,0.0,0.0,0.0,-0.3832,-0.3935,-0.4031,0.0,0.0,0.0,0.0,0.0,0.0,-0.0359,-0.1207,-0.2742,-0.343,-0.3105,-0.4836,-0.5922,-0.6307,-0.812,-0.8444,-0.7142,-0.7802,-0.8088,-0.8061,-1.0959,-1.2977,-1.4165,-1.3668,-1.4111,-1.5379,-1.7749,-1.7911,-1.6644,-1.6865,-1.7879,-1.9234,0.0,0.0,0.0,0.0,0.0,0.0,0.0,0.0,0.0,-1.6318,-1.6194,-1.5952,-1.6367,-1.6879,-1.7312,-1.7312,-1.8302,-1.945,-1.974,-2.1086,-2.2623,-2.3681,-2.4292,-2.5249,-2.753,-2.7156,-2.6451,-2.6735,-2.6666,0.0,0.0,0.0,0.0,0.0,0.0,0.0,0.0,0.0,0.0,0.0,0.0,0.0,0.0,0.0,0.0,0.0,0.0,0.0,0.0,-2.9804,-2.9804,-2.9804,-2.9804,-2.9804,-2.9804,-2.9807,-3.0384,-3.1575,-3.4249,-3.5473,-3.5519,-3.5519,-3.6569,-3.8438,-3.96,-4.0601,-4.163,-4.3762,-4.4597,-4.4572,-4.4575,-4.4587,-4.4587,0.0,0.0,0.0,0.0,0.0,0.0,-0.3343,-0.3602,-0.3588,-0.3595,-0.3602,-0.306,0.0,0.0,0.0,0.2192,0.0851,-0.0717,-0.241,-0.3633,-0.4203,-0.4062,-0.5773,-0.7071,-0.7773,-0.8512,-0.9226,-0.9916,-0.9574,-0.9512,-0.9891,-1.2913,-1.4698,-1.5377,-1.4652,-1.5152,-1.6607,-1.8171,-1.853,-1.792,-1.7779,-1.8374,-1.9323,0.0,0.0,0.0,0.0,0.0,0.0,0.0,0.0,0.0,-1.6392,-1.6238,-1.6039,-1.6367,-1.6879,-1.7312,-1.7312,-1.8399,-1.9626,-2.0108,-2.1588,-2.3253,-2.4305,-2.5115,-2.6085,-2.7918,-2.767,-2.7293,-2.7846,-2.777,0.0,0.0,0.0,0.0,0.0,0.0,0.0,0.0,0.0,0.0,0.0,0.0,0.0,0.0,0.0,0.0,0.0,0.0,0.0,-2.9834,-2.9806,-2.9806,-2.9834,-2.9806,-2.9804,-2.9804,-2.9804,-3.0085,-3.0646,-3.3437,-3.5049,-3.5489,-3.6133,-3.7154,-3.8392,-3.9628,-4.0121,-4.0257,-4.2083,-4.3152,-4.3749,-4.4372,-4.4587,-4.4587,0.0,0.0,0.2197,0.2371,0.0,0.0,-0.3571,-0.3588,-0.3506,-0.3283,-0.3468,-0.3519,0.0,0.0,0.0,-0.0,-0.018,-0.1254,-0.3442,-0.4569,-0.5315,-0.575,-0.6947,-0.8431,-1.0176,-0.848,-0.9444,-1.3242,-1.1614,-1.0812,-1.0935,-1.4755,-1.6565,-1.6625,-1.6565,-1.6565,-1.6625,-1.7312,-1.7973,-1.8674,-1.9858,-2.0062,-1.9707,-2.0234,0.0,0.0,0.0,0.0,0.0,0.0,0.0,0.0,-1.6479,-1.6479,-1.6436,-1.6565,-1.687,-1.7233,-1.7327,-1.8098,-1.9168,-2.0443,-2.1632,-2.3057,-2.5189,-2.6892,-2.8323,-2.9352,-2.8825,-2.8323,-2.8775,0.0,0.0,0.0,0.0,0.0,0.0,0.0,0.0,0.0,0.0,0.0,0.0,0.0,0.0,0.0,0.0,0.0,0.0,0.0,-2.9808,-2.9806,-2.958,-2.958,-2.9806,-2.9757,-2.9779,-2.9831,-2.9959,-3.0693,-3.1908,-3.3056,-3.4318,-3.5554,-3.7115,-3.7807,-3.7916,-3.9481,-4.0087,-4.0087,-4.0087,-4.0915,-4.2294,-4.3652,-4.4181,-4.4215,0.0,0.0,0.3644,0.0775,0.0,0.0,-0.3568,-0.3588,-0.2921,-0.1031,-0.2429,-0.2881,-0.0988,-0.0314,0.0,-0.0,-0.1746,-0.3043,-0.3581,-0.3847,-0.4412,-0.5351,-0.6537,-0.8146,-1.0215,-1.1328,-1.2964,-1.5211,-1.4791,-1.4823,-1.5184,-1.6089,-1.6964,-1.7693,-1.6879,-1.6837,-1.7394,-1.7558,-1.7814,-1.8221,-1.839,-1.8817,-1.929,-1.9186,-1.8852,0.0,0.0,0.0,0.0,0.0,0.0,0.0,-1.6324,-1.6194,-1.5996,-1.6854,-1.6914,-1.6851,-1.7705,-1.8123,-1.8645,-2.0226,-2.2489,-2.4608,-2.6005,-2.7012,-2.7763,-2.7795,-2.8323,-2.8649,-2.8348,0.0,0.0,0.0,0.0,0.0,0.0,0.0,0.0,0.0,0.0,0.0,0.0,0.0,0.0,0.0,0.0,0.0,0.0,-2.9779,-2.9822,-2.9818,-2.8101,-2.8076,-2.9818,-2.9809,-2.9807,0.0,-3.1281,-3.2407,-3.3183,-3.3465,-3.4318,-3.5554,-3.7115,-3.7796,-3.7918,-3.9487,-4.0087,-4.0087,-4.0087,-4.029,-4.0629,-4.0933,-4.1035,-4.1373,0.0,0.0,0.0,0.0,0.0,0.0,0.0,0.0,-0.296,-0.112,-0.1433,-0.1391,-0.0135,-0.0,0.0,0.0,-0.3854,-0.4744,-0.367,-0.4613,-0.5919,-0.7539,-0.8253,-0.9552,-1.1653,-1.2685,-1.4352,-1.6697,-1.7145,-1.7059,-1.6501,-1.754,-1.8327,-1.8855,-1.8288,-1.7653,-1.7063,-1.7063,-1.7312,-1.7706,-1.7887,-1.8382,-1.9021,-1.8809,-1.8701,-1.855,-1.7942,0.0,0.0,0.0,0.0,0.0,0.0,0.0,-1.6928,-1.749,-1.7277,-1.6996,-1.7572,-1.7731,-1.821,-2.0246,-2.2657,-2.4878,-2.6189,-2.6785,-2.7157,-2.7364,-2.7921,0.0,0.0,0.0,0.0,0.0,0.0,0.0,0.0,0.0,0.0,0.0,0.0,0.0,0.0,0.0,0.0,0.0,0.0,0.0,-2.9832,-2.8796,-2.8217,-2.821,-2.7115,-2.7533,-2.9771,-2.8773,-2.8899,-3.021,-3.1135,-3.2176,-3.3243,-3.4099,-3.4882,-3.5554,-3.7115,-3.7937,-3.8278,-3.9558,-4.0087,-4.0087,-4.0087,-4.0087,-4.0087,-4.0087,-4.0087,-4.029,0.0,0.0,0.0,0.0,0.0,0.0,0.0,0.0,0.0,-0.2524,-0.1378,-0.0626,-0.0629,-0.0629,-0.1564,0.0,0.0,0.0,-0.4856,-0.6822,-0.8989,-1.1015,-1.1174,-1.1985,-1.3615,-1.3648,-1.4867,-1.7354,-1.8561,-1.8594,-1.752,-1.8972,-1.9688,-1.9869,-1.9732,-1.8636,-1.6879,-1.6795,-1.7021,-1.745,-1.7839,-1.8338,-1.8779,-1.8722,-1.8646,-1.8482,-1.7639,-1.7229,-1.7063,-1.6625,0.0,0.0,0.0,0.0,-1.7973,-1.8171,-1.7799,-1.7343,-1.7409,-1.7497,-1.8031,-2.02,-2.2303,-2.4226,-2.587,-2.6324,-2.6653,-2.7253,0.0,0.0,0.0,0.0,0.0,0.0,0.0,0.0,0.0,0.0,0.0,0.0,0.0,0.0,0.0,0.0,0.0,0.0,0.0,-2.9802,-2.9802,-2.7728,-2.6502,-2.6516,-2.6479,-2.7354,-2.9214,-2.7401,-2.7814,-3.0357,-3.0717,-3.1551,-3.2937,-3.4456,-3.5224,-3.5386,-3.6955,-3.8012,-3.8701,-3.9696,-4.0087,-4.0087,-4.0087,-4.0087,-4.0087,-4.0087,-4.0087,-4.0087,0.0,0.0,0.0,0.0,0.0,0.0,0.0,0.0,0.0,0.0,-0.384,-0.3099,-0.3099,-0.3138,-0.4045,-0.6337,-0.6803,-0.7668,-0.9315,0.0,0.0,-1.4943,-1.5062,-1.5181,-1.5448,-1.5448,-1.5654,-1.6068,-1.8416,-2.025,-2.1495,-2.0001,-1.9716,-2.0462,-1.9818,-1.9096,-1.8288,-1.8013,-1.7933,-1.7973,-1.8052,-1.8131,-1.821,-1.821,-1.7894,-1.7517,-1.7353,-1.698,-1.6607,-1.6522,-1.6565,0.0,0.0,0.0,-1.7598,-1.8521,-1.8078,-1.7391,-1.7875,-1.8044,-1.8405,-1.9634,-2.1156,-2.2739,-2.4606,0.0,-2.6534,0.0,0.0,0.0,0.0,0.0,0.0,0.0,0.0,0.0,0.0,0.0,0.0,0.0,0.0,0.0,0.0,0.0,0.0,0.0,0.0,-2.9784,-2.9784,-2.7691,-2.6496,-2.654,-2.6491,-2.6636,-2.6924,-2.6631,-2.7443,-2.9225,-3.102,-3.242,-3.3421,-3.3632,-3.4091,-3.4719,-3.6267,-3.7584,-3.8701,-3.9696,-4.0087,-4.0087,-4.0087,-4.0087,-4.0087,-4.0087,-4.0087,-4.0087,0.0,0.0,0.0,0.0,0.0,0.0,0.0,0.0,0.0,0.0,0.0,-0.406,-0.532,-0.546,-0.6398,-0.865,-0.8852,-0.9748,-1.1799,-1.272,-1.4292,-1.6793,-1.6219,-1.5799,-1.5799,-1.5799,-1.5329,-1.4342,-1.7963,-2.0085,-2.0829,-2.0915,-2.0886,-2.0764,-1.9954,-1.9419,-1.9096,-1.8598,-1.8249,-1.8052,-1.7773,-1.7814,-1.8013,-1.7435,-1.7435,-1.7693,-1.7435,-1.7353,-1.7394,-1.7394,-1.7598,-1.7894,-1.8131,0.0,0.0,0.0,-1.8803,-1.8106,-1.7759,-1.786,-1.8083,-1.7946,-1.9846,-2.2103,-2.3508,-2.4264,-2.4987,0.0,0.0,0.0,0.0,0.0,0.0,0.0,0.0,0.0,0.0,0.0,0.0,0.0,0.0,0.0,0.0,0.0,0.0,0.0,-2.8119,-2.7926,-2.7926,-2.7006,-2.6533,-2.6533,-2.6521,-2.6477,-2.6533,-2.6476,-2.7471,-2.9489,-3.0993,-3.1989,-3.2407,-3.2407,-3.3152,-3.4585,-3.6133,-3.7316,-3.8274,-3.958,-4.0087,-4.0087,-4.0087,-4.0087,-4.0087,-4.0087,-4.0087,-4.0087,0.0,0.0,0.0,0.0,0.0,0.0,0.0,0.0,0.0,0.0,0.0,-0.546,-0.7183,0.0,0.0,0.0,-1.1019,-1.1653,-1.3094,-1.3615,-1.5065,-1.7704,-1.685,-1.6163,-1.5799,-1.6458,-1.5845,-1.3855,-1.6648,-1.8613,-1.9762,-2.1493,-2.1945,-2.1275,-2.0632,-2.0128,-1.9753,-1.9244,-1.8674,-1.8092,-1.7933,-1.7894,-1.7814,-1.7286,-1.749,-1.8052,-1.7653,-1.7733,-1.8092,-1.8092,-1.8366,-1.8741,-1.8855,-1.9155,0.0,0.0,0.0,-1.8703,-1.7733,-1.7671,-1.7591,-1.6711,-1.841,-2.0578,0.0,0.0,0.0,0.0,0.0,0.0,0.0,0.0,0.0,0.0,0.0,0.0,0.0,0.0,0.0,0.0,0.0,0.0,0.0,0.0,0.0,0.0,-2.6966,-2.6491,-2.6516,-2.654,-2.6476,-2.6476,-2.6468,-2.6485,-2.6485,-2.7367,-2.8565,-3.0247,-3.1102,-3.1482,-3.1482,-3.1482,-3.254,-3.4373,-3.5896,-3.7026,-3.7949,-3.948,-4.0087,-4.0087,-4.0087,-4.0087,-4.0087,-4.0087,-4.0087,-4.0087,0.0,0.0,0.0,0.0,0.0,0.0,0.0,0.0,0.0,0.0,0.0,-0.827,-0.8569,-0.9509,-1.0905,-1.2861,-1.306,-1.3094,-1.3198,-1.4752,-1.6297,-1.7726,-1.7726,0.0,-1.5827,-1.8257,-1.822,-1.5683,-1.4251,-1.5646,-1.9762,-2.1493,-2.2265,-2.2209,-2.218,-2.1554,-2.053,-2.033,-1.939,-1.8171,-1.9096,-1.8646,-1.7435,-1.8349,-1.8426,-1.8092,-1.8052,-1.8052,-1.8092,-1.8092,-1.8131,-1.821,-1.8741,-1.893,-1.9043,0.0,0.0,0.0,-1.821,-1.772,-1.7193,-1.6638,-1.6642,-1.7291,0.0,0.0,0.0,0.0,0.0,0.0,0.0,0.0,0.0,0.0,0.0,0.0,0.0,0.0,0.0,0.0,0.0,0.0,0.0,0.0,0.0,0.0,-2.654,-2.649,-2.649,-2.6502,-2.6524,-2.6524,-2.6531,-2.6505,-2.6505,-2.9645,-3.1306,-3.1394,-3.1482,-3.1482,-3.1482,-3.1482,-3.2302,-3.3706,-3.5187,-3.6626,-3.801,-3.9478,-4.0087,-4.0087,-4.0087,-4.0087,-4.0087,-4.0087,-4.0087,-4.0087,0.0,0.0,0.0,0.0,0.0,0.0,0.0,0.0,0.0,0.0,0.0,0.0,0.0,-1.1923,-1.2198,-1.2294,-1.2826,-1.3198,-1.3198,-1.4814,-1.5996,-1.6485,-1.732,-1.7589,-1.7101,-1.7144,-1.7567,-1.8317,-1.63,-1.7413,-2.1401,-2.2003,-2.2327,-2.2327,-2.2327,-2.1857,-2.1055,-2.0261,-1.9413,-1.8626,-1.8377,-1.8104,-1.7814,-1.7826,-1.7973,-1.8131,-1.8482,-1.8626,-1.8664,-1.9006,-1.9273,-1.9498,-1.9413,-1.9594,-1.9808,-1.9696,-1.9254,-1.8695,-1.8243,-1.766,-1.7063,-1.659,-1.6511,-1.6716,-1.7509,0.0,0.0,0.0,0.0,0.0,0.0,0.0,0.0,0.0,0.0,0.0,0.0,0.0,0.0,0.0,0.0,0.0,0.0,0.0,0.0,0.0,0.0,-2.6501,-2.6502,-2.6509,-2.581,-2.4353,-2.4304,-2.4315,-2.4313,-2.9085,-3.1096,-3.0283,-3.0543,-3.0754,-3.0881,-3.0881,-3.1866,-3.363,-3.4643,-3.5873,-3.7347,-3.9276,-4.0087,-4.0087,-4.0087,-4.0087,-4.0087,-4.0087,-4.0087,-4.0087,0.0,0.0,0.0,-1.3861,0.0,-1.3198,-1.3198,-1.3198,-1.3412,-1.3986,0.0,0.0,0.0,0.0,-1.3226,-1.3368,-1.3276,-1.3523,-1.425,-1.5234,-1.5799,-1.5799,-1.6644,-1.7126,-1.7126,-1.6696,-1.7111,-1.8407,-1.7859,-1.9192,-2.2327,-2.2327,-2.2327,-2.2327,-2.2327,-2.1735,-2.0733,-2.033,-1.9558,-1.8626,-1.8338,-1.8299,-1.8405,-1.8664,-1.8777,-1.891,-1.9419,-1.9492,-1.9456,-1.9949,-2.0193,-2.023,-2.0015,-1.9984,-1.9984,-1.9339,-1.9002,-1.8629,-1.8076,-1.7636,-1.7142,-1.6634,-1.6534,-1.626,-1.5497,0.0,0.0,0.0,0.0,0.0,0.0,0.0,0.0,0.0,0.0,0.0,0.0,0.0,0.0,0.0,0.0,0.0,0.0,0.0,0.0,0.0,0.0,0.0,-2.6503,-2.5739,-2.4643,-2.3157,-2.408,-2.4622,-2.4579,-2.8336,-2.9763,-2.8936,-2.966,-3.0133,-3.0522,-3.1011,-3.2052,-3.363,-3.4594,-3.5745,-3.7009,-3.8836,-3.9783,-4.0087,-4.0087,-4.0087,-4.0087,-4.0087,-4.0087,-4.0087,-1.7009,-1.6722,-1.5799,-1.5856,-1.4438,-1.3301,-1.331,-1.3344,-1.3954,-1.5624,0.0,0.0,0.0,0.0,0.0,-1.6245,-1.4425,-1.4099,-1.6271,-1.6005,-1.5799,-1.5799,-1.5827,-1.5856,-1.5856,-1.7126,-1.7208,-1.6061,-1.8567,-2.0632,-2.2327,-2.2327,-2.2327,-2.2327,-2.2327,-2.1241,-1.9576,-2.0469,-1.9788,-1.821,-1.9141,-1.928,-1.9126,-2.0863,-2.1023,-2.0366,-2.0829,-2.0698,-2.0366,-2.0829,-2.0698,-2.0299,-2.0299,-2.0019,-1.9508,-1.8433,-1.8472,-1.8664,0.0,0.0,0.0,-1.6693,-1.6479,0.0,-1.3457,0.0,0.0,0.0,0.0,0.0,0.0,0.0,0.0,0.0,0.0,0.0,0.0,0.0,0.0,0.0,0.0,0.0,0.0,0.0,0.0,0.0,-2.6052,-2.6427,-2.6466,-2.4343,-2.3155,-2.3232,-2.6078,-2.759,-2.7585,-2.7585,-2.7581,-2.7632,-2.8925,-2.9882,-3.0548,-3.1903,-3.2939,-3.3732,-3.5102,-3.6204,-3.7144,-3.8159,-3.9174,-4.0054,-4.0054,-4.0087,-4.0087,-4.0087,-4.0087,-4.0087,-1.7154,-1.6722,-1.6108,-1.7076,-1.6044,-1.5419,-1.6355,-1.6511,-1.6696,0.0,0.0,0.0,-1.9576,-1.5844,-1.3448,-1.4049,-1.3549,-1.3448,-1.4074,-1.5149,-1.5799,-1.5799,-1.6747,-1.7248,-1.7248,-1.7612,-1.912,-2.1874,-2.1663,-2.1827,-2.2327,-2.2327,-2.2327,-2.2327,-2.2327,-2.1306,-1.9558,-1.8271,-1.831,-1.9207,-1.9522,-1.9743,-1.9863,-2.0066,-2.0434,-2.0797,0.0,-2.04,-2.0299,0.0,-2.0632,-2.0764,-2.0338,-1.997,-1.9551,-1.8708,-1.84,-1.8266,-1.8045,0.0,0.0,0.0,0.0,0.0,-1.345,-1.2888,0.0,0.0,0.0,0.0,0.0,0.0,0.0,0.0,0.0,0.0,0.0,0.0,0.0,0.0,0.0,0.0,0.0,0.0,0.0,0.0,-2.4858,-2.4938,-2.524,-2.3923,-2.411,-2.6295,-2.718,-2.7583,-2.7602,-2.7573,-2.7573,-2.7594,-2.7995,-2.9018,-3.0597,-3.099,-3.2304,-3.435,-3.4595,-3.5195,-3.6163,-3.7889,-3.8768,-3.9073,-3.9817,-4.0087,-4.0087,-4.0087,-4.0087,-4.0087,-1.7314,-1.7501,-1.7365,-1.7749,-1.715,-1.6901,-1.7681,-1.8877,-1.9688,0.0,0.0,0.0,-2.023,-1.8365,-1.6724,-1.5993,-1.4916,-1.4746,-1.5833,-1.687,-1.7182,-1.6681,-1.7368,-1.8014,-1.8417,-1.8417,-2.0328,-2.419,-2.3468,-2.3091,-2.3091,-2.2535,-2.1915,-2.1213,-2.1584,-2.0991,-1.9617,-1.8366,-1.8013,-1.8464,-2.0131,-2.0601,-2.0403,-2.0635,-2.0959,0.0,0.0,0.0,-2.0862,-2.1086,-2.1181,-2.1086,-2.0172,-1.9995,-1.9752,-1.8165,-1.7895,-1.8017,-1.7571,-1.7437,-1.729,-1.6654,0.0,0.0,-1.4741,-1.3616,-1.3293,0.0,0.0,0.0,0.0,0.0,0.0,0.0,0.0,0.0,0.0,0.0,0.0,0.0,0.0,0.0,0.0,-2.3427,-2.3649,-2.4157,-2.433,-2.4812,-2.5873,-2.5329,-2.5781,-2.7535,-2.7587,-2.7594,-2.761,-2.761,-2.761,-2.761,-2.7607,-2.8646,-3.0627,-3.1162,-3.256,-3.464,-3.4736,-3.5379,-3.6299,-3.7043,-3.8091,-3.9276,-3.9851,-4.0087,-4.0087,-4.0087,-4.0087,-4.0087,0.0,-1.8806,-1.9109,-1.8149,-1.7861,-1.7794,-1.7794,-2.0365,-2.2327,0.0,-1.9959,-1.8302,-1.8302,-2.0703,-2.1675,-2.012,-1.7695,-1.7237,-1.954,-1.9874,-1.9468,-1.8333,-1.8302,-1.8781,-1.9806,-1.9822,-2.1253,-2.419,-2.4266,-2.421,-2.3955,-2.2816,-2.1432,-1.9874,-2.0532,-2.0431,-1.969,-1.969,-1.8626,-1.7162,-2.0831,-2.1645,-2.0828,-2.1857,-2.2003,-2.1735,-2.2089,-2.1974,-2.1642,-2.2061,-2.1974,-2.146,-2.0196,-2.0025,-1.9812,-1.7225,-1.717,-1.7661,-1.6426,-1.6095,-1.6123,-1.6089,-1.6317,0.0,-1.652,-1.4835,-1.3697,0.0,0.0,0.0,0.0,0.0,0.0,0.0,0.0,0.0,0.0,0.0,0.0,0.0,0.0,0.0,-2.1543,-2.1549,-2.2061,-2.3194,-2.4094,-2.5354,-2.7026,-2.7152,-2.7289,-2.7619,-2.761,-2.758,-2.758,-2.761,-2.761,-2.759,-2.7573,-2.8583,-3.0534,-3.1861,-3.321,-3.4508,-3.5283,-3.6129,-3.684,-3.5994,-3.728,-3.9851,-4.002,-4.0087,-4.0087,-4.0087,-4.0087,-4.0087,-1.924,-1.9954,-1.985,-1.9141,-1.8338,-1.7794,-1.7794,-2.0365,-2.2327,-2.2327,-2.1786,-2.1414,-2.1414,-2.1955,-2.2152,-2.1827,-2.0063,-1.9186,-1.966,-2.0991,-2.1678,-2.1421,-2.1414,-2.1986,-2.3217,-2.3235,-2.3566,-2.419,-2.4795,-2.4253,-2.2668,-2.2432,-2.1735,-2.0731,-2.0189,-1.9839,-1.969,-1.969,-1.9442,-1.9266,-2.143,-2.1945,-2.143,-2.1642,-2.1882,-2.2152,-2.1823,-2.1705,-2.1582,-2.1552,-2.1823,-2.2103,-2.1827,-2.0299,0.0,-1.6923,-1.6647,-1.6357,-1.4208,-1.3573,-1.3594,0.0,0.0,0.0,-1.6496,-1.6146,-1.5637,0.0,0.0,0.0,0.0,0.0,0.0,0.0,0.0,0.0,0.0,0.0,0.0,0.0,0.0,0.0,-2.1493,-2.1966,-2.232,-2.2587,-2.3917,-2.4661,-2.4333,-2.4336,-2.5361,-2.7514,-2.7613,-2.7606,-2.7606,-2.762,-2.761,-2.761,-2.7569,-2.8364,-2.9819,-3.1181,-3.2545,-3.3829,-3.5048,-3.5723,-3.5893,-3.569,-3.6705,-3.8464,-3.9614,-4.0087,-4.0087,-4.0087,-4.0087,-4.0087,-2.0133,-2.0359,-2.0088,-1.9419,-1.8475,-1.8302,-1.9824,-2.1346,-2.2327,-2.2327,-2.2327,-2.2535,-2.3188,-2.2694,-2.2327,-2.2327,-2.1493,-2.0991,-2.0991,-2.1827,-2.2327,-2.2327,-2.2892,-2.3535,-2.419,-2.4575,-2.4752,-2.4752,-2.4752,-2.3914,-2.2327,-2.2327,-2.1857,-2.0959,-2.0085,-1.9945,-2.0296,-1.9874,-2.0015,-2.0632,-2.1524,-2.1705,-2.1521,-2.1823,-2.2089,-2.2265,-2.2032,-2.1974,-2.1945,-2.1886,-2.2049,0.0,0.0,-2.1332,-1.973,0.0,-1.5658,-1.4428,0.0,0.0,0.0,-1.4165,0.0,0.0,0.0,-1.5543,-1.4664,0.0,0.0,0.0,0.0,0.0,0.0,0.0,0.0,0.0,0.0,0.0,0.0,0.0,0.0,0.0,-2.0623,-2.0959,-2.1709,-2.2963,-2.4066,-2.4564,-2.4247,-2.3839,-2.42,-2.5585,-2.5597,-2.6258,-2.7579,-2.76,-2.761,-2.761,-2.802,-2.8865,-3.0085,-3.1071,-3.2443,-3.4074,-3.515,-3.5622,-3.5622,-3.5622,-3.6062,-3.684,-3.7584,-3.8768,-4.0087,-4.0087,-4.0087,-4.0087,-2.0586,-2.0456,-2.0088,-1.9419,-1.8949,-1.9486,-2.1955,-2.2327,-2.2327,-2.2327,-2.2327,-2.2799,-2.4072,-2.3283,-2.2561,-2.2321,-2.2327,-2.2405,-2.2642,-2.2432,-2.2327,-2.2327,-2.3283,-2.3955,-2.419,-2.4917,-2.5303,-2.5303,-2.3563,-2.2176,-2.1178,-2.1579,-2.121,-2.0302,-1.9737,-1.9949,-2.0667,-2.0085,-2.0431,-2.1397,0.0,-2.143,-2.1491,-2.2061,-2.2327,-2.2327,-2.2327,-2.2327,-2.2327,-2.2327,-2.23,-2.2246,-2.1885,-2.2033,0.0,0.0,0.0,0.0,0.0,0.0,0.0,0.0,0.0,-1.37,0.0,0.0,0.0,0.0,0.0,0.0,0.0,0.0,0.0,0.0,0.0,0.0,0.0,0.0,0.0,0.0,0.0,0.0,0.0,-1.9847,-2.0988,-2.3351,-2.385,-2.4268,-2.4687,-2.403,-2.3701,-2.3868,-2.4192,-2.5414,-2.757,-2.761,-2.761,-2.761,-2.8247,-2.9123,-3.0145,-3.1094,-3.2438,-3.4172,-3.4992,-3.5407,-3.5622,-3.5622,-3.5622,-3.5622,-3.5622,-3.7212,-3.9546,-3.9952,-4.0087,-4.0087,-2.0586,-2.0456,-2.0088,-1.9419,-2.0679,-2.1921,-2.226,-2.2327,-2.2327,-2.2327,-2.2327,-2.2799,-2.4072,-2.4092,-2.3535,-2.2405,-2.2327,-2.2799,-2.3915,-2.2917,-2.2327,-2.2327,-2.2432,-2.3042,-2.417,-2.4917,-2.5303,-2.5303,-1.9996,-1.7302,-1.7218,-1.8914,-1.9126,-1.7985,-1.8482,-1.9126,-1.9783,-2.0093,-2.0733,-2.1483,-2.1549,-2.1582,0.0,-2.2123,-2.2327,-2.2327,-2.2327,-2.2327,-2.2327,0.0,-2.23,-2.2019,0.0,-2.1077,-2.156,-1.7624,0.0,0.0,0.0,0.0,0.0,0.0,-1.6594,0.0,0.0,0.0,0.0,0.0,0.0,0.0,0.0,0.0,0.0,0.0,0.0,0.0,0.0,0.0,0.0,0.0,0.0,0.0,0.0,-1.9638,-2.0772,-2.2651,-2.2438,-2.2673,-2.3699,-2.3626,-2.3955,-2.4822,-2.632,-2.7313,-2.7625,-2.759,-2.761,-2.761,-2.769,-2.8088,-2.8762,-3.071,-3.2015,-3.2784,-3.3952,-3.4911,-3.5622,-3.5622,-3.5622,-3.5622,-3.5622,-3.6366,-3.7652,-3.9411,-4.0087,-4.0087,-2.0586,-2.0531,-2.0342,-1.9944,-2.1842,-2.3399,-2.3399,-2.2799,-2.2327,-2.2327,-2.2943,-2.3602,-2.4151,-2.419,-2.3976,-2.3445,0.0,-2.3826,0.0,0.0,-2.3399,-2.3399,-2.3399,-2.383,-2.4823,-2.5149,-2.5103,-2.4648,-1.9186,-1.6522,-1.6522,-1.6641,-1.7168,-1.806,-1.8313,-1.906,-2.0138,-2.0734,-2.1483,0.0,0.0,0.0,0.0,-2.2343,-2.2327,-2.2327,-2.2327,-2.2327,-2.2327,0.0,-2.23,0.0,0.0,0.0,0.0,0.0,0.0,0.0,0.0,0.0,0.0,0.0,0.0,0.0,-1.5207,0.0,-1.3448,0.0,0.0,0.0,0.0,0.0,0.0,0.0,-1.4138,0.0,0.0,0.0,0.0,0.0,0.0,0.0,0.0,0.0,0.0,0.0,-2.1816,-2.2251,-2.3024,-2.3406,-2.4014,-2.4984,-2.5952,-2.6801,-2.761,-2.763,-2.761,-2.761,-2.8069,-2.8748,-2.958,-3.0778,-3.2221,-3.365,-3.3762,-3.4466,-3.5588,-3.5013,-3.5115,-3.5622,-3.5622,-3.64,-3.755,-3.7516,-3.8599,-4.0087,-2.173,-2.1204,-2.0843,-2.1528,-2.3055,-2.4092,-2.371,-2.3188,-2.2816,-2.2816,-2.3624,-2.419,-2.419,-2.419,-2.419,-2.419,-2.419,-2.4526,0.0,0.0,-2.4284,-2.4493,-2.451,0.0,-2.4981,-2.4993,-2.4335,-2.2976,-1.9235,-1.7063,-1.6479,-1.5377,-1.5941,-1.7875,-1.7988,-1.8716,-1.9912,-2.0831,-2.1922,-2.2923,-2.2803,-2.2912,-2.3105,-2.2686,-2.2426,-2.2327,-2.2327,-2.2327,-2.2327,-2.2327,-2.23,0.0,-2.176,0.0,0.0,0.0,0.0,0.0,-2.2706,0.0,0.0,0.0,0.0,0.0,0.0,0.0,0.0,0.0,0.0,0.0,0.0,0.0,0.0,-1.3949,0.0,-1.4805,0.0,0.0,0.0,0.0,0.0,0.0,0.0,0.0,0.0,0.0,0.0,-2.1946,-2.2629,-2.3451,-2.4283,-2.5129,-2.5444,-2.6255,-2.761,-2.761,-2.763,-2.761,-2.8436,-2.9289,-3.0254,-3.0958,-3.2218,-3.3863,-3.3761,-3.4303,-3.5284,-3.4776,-3.4979,-3.5622,-3.5622,-3.6299,-3.7144,-3.6028,-3.7444,-3.9966,-2.4555,-2.2687,-2.1542,-2.4606,-2.4603,-2.3774,-2.2535,-2.3376,-2.4151,-2.4151,-2.417,0.0,0.0,0.0,0.0,0.0,0.0,-2.4526,-2.5234,0.0,-2.4526,-2.5224,-2.5244,-2.4943,0.0,-2.4247,-2.2797,-1.9839,-1.966,-1.8521,-1.6479,-1.5668,-1.5756,-1.6582,-1.7027,-1.7678,-1.855,-1.9997,-2.1716,-2.3477,-2.3259,-2.3069,-2.2933,0.0,-2.2807,-2.2327,-2.2327,0.0,0.0,-2.2327,-2.2295,0.0,0.0,0.0,0.0,0.0,0.0,0.0,0.0,0.0,0.0,-2.1582,0.0,0.0,0.0,0.0,-1.4068,0.0,0.0,0.0,0.0,0.0,-1.2959,-1.2939,-1.3952,0.0,0.0,0.0,0.0,0.0,0.0,0.0,0.0,0.0,0.0,0.0,0.0,0.0,-2.264,-2.3909,-2.4851,-2.5585,-2.5616,-2.6268,-2.761,-2.761,-2.7579,-2.7605,-2.8401,-2.9243,-3.0018,-3.0968,-3.1783,-3.2442,-3.3863,-3.4472,-3.4573,-3.5284,-3.5588,-3.5622,-3.5622,-3.5656,-3.569,-3.5656,-3.7301,-3.967,-2.5101,-2.4559,-2.4278,-2.5155,-2.5103,-2.464,-2.3696,-2.3915,-2.419,0.0,0.0,0.0,0.0,-2.419,-2.419,0.0,0.0,-2.4526,-2.5234,-2.5091,0.0,0.0,0.0,-2.5182,0.0,0.0,-2.3305,-2.1432,-2.0292,-1.8626,-1.6522,-1.6727,-1.6876,-1.7019,-1.8086,-1.9008,0.0,0.0,0.0,0.0,0.0,-2.3544,-2.3069,0.0,0.0,-2.2546,-2.2546,-2.2634,0.0,-2.2382,-2.2289,-2.2491,-2.3464,-2.31,-2.2306,-2.2312,-2.1892,0.0,0.0,0.0,-2.4281,-2.2347,0.0,0.0,0.0,0.0,0.0,0.0,0.0,0.0,0.0,0.0,-1.5519,-1.4812,-1.5039,-1.5466,0.0,0.0,0.0,0.0,0.0,0.0,0.0,0.0,0.0,0.0,-2.0284,0.0,-2.2003,-2.3244,-2.4448,-2.5585,-2.561,-2.6261,-2.7564,-2.7595,-2.7622,-2.7642,-2.9496,-3.0511,-3.0793,-3.1116,-3.1907,-3.3017,-3.3017,-3.3592,-3.4506,-3.4776,-3.5182,-3.5622,-3.5622,-3.5622,-3.5622,-3.5622,-3.8397,-4.2196,-2.5303,-2.5503,-2.5607,-2.5357,-2.5065,-2.4836,-2.4617,0.0,0.0,0.0,-2.419,0.0,-2.419,0.0,-2.419,0.0,-2.4425,-2.4795,-2.5283,-2.5303,0.0,-2.7072,-2.5956,0.0,0.0,0.0,0.0,-2.2327,-2.115,-1.9606,-1.7639,-1.7353,-1.7315,-1.7556,-1.8341,-1.9351,-2.048,-2.1927,-2.301,0.0,0.0,-2.3837,0.0,0.0,-2.2972,-2.2746,0.0,-2.3117,-2.2947,-2.2642,-2.2427,-2.2302,-2.2315,-2.231,-2.2295,-2.2304,-2.2304,-2.2315,-2.2311,-2.2992,0.0,-2.3153,-2.2463,0.0,-1.9796,0.0,0.0,0.0,0.0,0.0,0.0,0.0,-1.686,-1.5922,-1.5835,-1.6145,0.0,-1.7394,0.0,0.0,0.0,0.0,0.0,0.0,0.0,-1.9182,-2.0448,-2.1445,0.0,0.0,-2.4477,-2.5585,-2.6068,-2.671,-2.7575,-2.8432,-2.8904,-2.8906,-3.0455,-3.1191,-3.1199,-3.12,-3.1901,-3.3119,-3.2645,-3.322,-3.4506,-3.4776,-3.5182,-3.5622,-3.5622,-3.5622,-3.5622,-3.5622,-3.7763,-4.0955,-2.5303,-2.555,-2.5607,-2.5357,-2.4723,0.0,0.0,0.0,-2.503,0.0,-2.4228,-2.419,-2.419,-2.419,-2.4209,-2.4266,-2.4891,-2.5303,-2.5303,-2.5457,0.0,0.0,-2.7033,-2.5293,-2.5262,0.0,0.0,0.0,-2.2377,-2.1491,-1.9767,-1.7746,-1.7327,-1.8299,-1.7953,-1.8821,-2.0569,-2.1568,-2.2821,-2.419,-2.419,-2.3935,-2.3522,-2.3653,-2.3305,-2.2873,-2.3837,-2.3774,-2.3165,-2.2977,-2.2626,-2.2324,-2.2309,-2.2327,-2.2327,-2.2327,-2.2327,-2.2304,-2.2295,-2.2333,-2.2664,-2.3992,0.0,0.0,0.0,0.0,-2.1434,0.0,0.0,0.0,0.0,0.0,0.0,-1.6397,-1.6405,-1.6886,-1.7973,-1.8131,0.0,0.0,0.0,0.0,0.0,0.0,-1.919,-1.9922,-2.107,-2.1994,0.0,0.0,-2.4881,-2.5585,-2.6844,-2.7522,-2.7592,-2.9974,-3.1199,-3.1199,-3.1199,-3.1199,-3.119,-3.119,-3.1732,-3.2713,-3.2747,-3.3423,-3.4539,-3.5318,-3.5622,-3.5622,-3.5622,-3.5667,-3.5722,-3.5722,-3.5868,-3.6697,-2.5598,-2.5659,-2.5607,0.0,-2.5149,-2.5103,0.0,0.0,0.0,0.0,-2.4559,-2.419,-2.419,-2.419,-2.4408,-2.4968,-2.5182,0.0,0.0,0.0,0.0,-2.6687,-2.5764,-2.503,-2.4493,-2.4284,0.0,-2.3689,0.0,-2.2996,-2.1615,-2.1053,-2.0958,-2.1179,-2.0443,-2.1014,-2.2513,-2.2768,-2.3361,-2.419,-2.419,-2.3976,-2.3653,0.0,-2.3816,-2.3477,-2.3753,-2.3732,-2.3522,-2.3224,-2.2958,-2.2678,-2.2405,-2.2327,-2.2327,-2.2327,-2.2327,-2.2287,-2.231,-2.2649,-2.3005,-2.3231,-2.3267,-2.3319,0.0,0.0,0.0,0.0,0.0,0.0,0.0,0.0,0.0,-1.912,-1.8205,-1.7894,0.0,0.0,0.0,-1.9442,0.0,0.0,0.0,0.0,-1.9493,-2.0959,-2.1461,-2.2164,-2.317,0.0,0.0,-2.5585,-2.592,-2.6602,-2.758,-2.9996,-3.121,-3.1207,-3.1207,-3.1213,-3.119,-3.119,-3.1772,-3.2727,-3.3499,-3.4066,-3.4539,-3.5318,-3.581,-3.6156,-3.5756,-3.6545,-3.7895,-3.7895,-3.9409,-4.165,-2.5662,-2.5703,0.0,-2.5357,0.0,0.0,-2.5303,0.0,0.0,-2.5303,-2.493,0.0,-2.4678,-2.4678,-2.485,-2.5244,-2.5303,0.0,-2.5303,0.0,0.0,-2.538,-2.5303,-2.4943,-2.4209,-2.419,0.0,-2.419,0.0,-2.3852,-2.314,-2.314,-2.314,-2.3116,-2.26,-2.2877,-2.3631,-2.3631,-2.3837,-2.419,-2.419,-2.4112,0.0,-2.4132,-2.4056,-2.3935,-2.3935,-2.3935,-2.3837,-2.3351,-2.3129,-2.2943,-2.2581,-2.2508,-2.2535,-2.234,-2.2279,-2.2314,-2.2323,-2.2952,-2.3618,-2.3495,-2.3981,-2.4504,-2.4664,-2.552,-2.5853,0.0,0.0,0.0,0.0,0.0,0.0,-2.0771,-1.9333,0.0,0.0,0.0,0.0,0.0,0.0,0.0,0.0,-1.963,-1.9782,-2.1027,-2.1499,-2.2054,0.0,0.0,0.0,-2.5858,-2.6663,-2.7255,-2.7606,-2.9996,-3.1205,-3.119,-3.119,-3.119,-3.119,-3.119,-3.1516,-3.2127,-3.4007,-3.4864,-3.5013,-3.5684,-3.5985,-3.6028,-3.5756,-3.7752,-4.0781,-4.0781,-4.1919,-4.3497,-2.5601,-2.5662,0.0,0.0,0.0,0.0,0.0,-2.5303,0.0,-2.5171,0.0,-2.5803,-2.5341,-2.5303,-2.5303,-2.5303,0.0,-2.5303,-2.5303,-2.5303,-2.5303,-2.5303,-2.5303,-2.4943,-2.4209,-2.419,0.0,0.0,-2.4266,-2.419,-2.419,-2.4016,-2.4016,-2.419,-2.419,-2.4228,-2.4284,-2.4228,-2.4228,-2.4284,-2.4228,-2.4209,-2.4247,-2.4209,-2.419,-2.419,-2.419,-2.417,-2.4036,-2.3477,-2.3236,-2.3177,-2.2977,-2.3041,-2.3127,-2.2751,-2.2786,-2.2888,-2.3102,-2.3813,-2.4504,-2.4523,-2.5285,-2.5816,-2.4867,-2.6242,-2.735,-2.6007,-2.6116,-2.6285,0.0,0.0,0.0,0.0,0.0,0.0,0.0,0.0,0.0,0.0,0.0,0.0,0.0,0.0,-2.0104,-2.0835,-2.1383,-2.1904,0.0,0.0,0.0,-2.6182,-2.7999,-2.8545,-2.7619,0.0,-3.1199,-3.1185,-3.119,-3.119,-3.119,-3.1201,-3.1194,-3.1371,-3.433,-3.5668,-3.5756,-3.6156,-3.6028,-3.5622,-3.5898,-3.9089,-4.3497,-4.3497,-4.3497,-4.3497,-2.5382,0.0,0.0,0.0,0.0,-2.5303,-2.5303,-2.5303,-2.5103,-2.4476,-2.739,-2.8418,-2.561,-2.5303,-2.5303,-2.5303,-2.5303,0.0,0.0,0.0,0.0,-2.5303,-2.5303,-2.4943,-2.4209,-2.419,-2.451,0.0,-2.451,-2.419,-2.417,-2.314,-2.3188,-2.419,-2.419,-2.4393,-2.467,-2.4339,0.0,-2.467,-2.4321,-2.4321,-2.4445,-2.4266,-2.419,-2.419,-2.419,-2.4016,-2.3774,-2.3631,-2.3432,-2.3295,-2.3919,-2.4428,-2.4761,-2.4711,-2.5248,-2.6136,-2.7465,-2.703,-2.6162,-2.6169,-2.6008,-2.5905,-2.6206,-2.6604,-2.683,-2.6551,-2.5642,-2.5203,-2.6319,0.0,0.0,0.0,0.0,0.0,0.0,0.0,0.0,0.0,0.0,0.0,0.0,0.0,0.0,-2.1779,-2.1773,-2.2133,0.0,0.0,0.0,0.0,-2.7721,0.0,0.0,0.0,-3.1208,-3.1194,-3.1179,-3.119,-3.123,-3.117,-3.1219,-3.1366,-3.4301,-3.5937,-3.6498,-3.5966,-3.5711,-3.5766,-3.7506,-4.0333,-4.3497,-4.3497,-4.3497,-4.3497,0.0,0.0,0.0,0.0,0.0,0.0,0.0,-2.5303,0.0,-2.4823,-2.6517,-2.711,-2.5495,-2.5303,-2.5303,-2.5303,-2.5303,-2.5303,-2.5303,-2.5303,-2.5303,-2.5303,-2.5303,0.0,-2.478,-2.4766,-2.4943,-2.5303,-2.4943,-2.4554,-2.419,-2.358,-2.3602,-2.419,-2.419,-2.4284,-2.4476,0.0,0.0,-2.479,-2.4575,-2.4547,-2.4547,-2.4303,-2.419,-2.419,-2.419,-2.4112,-2.3955,-2.3774,-2.3876,-2.4157,-2.4551,-2.5135,-2.5781,-2.6212,-2.6271,-2.6594,-2.8498,-2.7647,-2.6198,-2.6197,-2.6182,-2.6067,-2.5593,-2.6109,-2.6479,-2.5732,-2.5575,-2.5942,-2.6817,-2.6175,0.0,0.0,0.0,0.0,0.0,0.0,0.0,0.0,0.0,0.0,0.0,0.0,0.0,0.0,0.0,0.0,0.0,0.0,0.0,0.0,0.0,0.0,0.0,0.0,0.0,-3.1213,-3.2089,-3.2533,-3.2508,-3.1602,-3.17,-3.2647,-3.47,-3.6155,-3.6965,-3.658,-3.6746,-3.7323,-3.83,-3.9643,-4.1314,-4.3707,-4.4575,-4.4471,0.0,-2.6289,0.0,0.0,-2.6018,0.0,-2.5376,-2.5339,-2.5303,-2.5303,-2.5303,-2.5303,-2.5303,-2.5303,-2.5303,-2.5303,-2.5303,-2.5303,-2.5303,-2.5303,-2.5303,-2.5303,-2.5303,-2.5303,-2.5303,-2.5303,-2.5303,0.0,-2.6033,-2.573,-2.4425,-2.4247,-2.419,-2.4246,-2.5115,0.0,0.0,0.0,-2.4956,-2.4902,-2.5068,-2.5039,-2.4891,-2.4561,-2.4447,-2.441,-2.4263,-2.43,-2.4427,-2.4133,-2.4469,-2.5085,-2.5411,-2.5955,-2.664,-2.7493,-2.7016,-2.6512,-2.7941,-2.7236,-2.6146,-2.6124,-2.6292,-2.6147,-2.5084,-2.5791,-2.6339,-2.5016,-2.5778,-2.6723,-2.6908,-2.643,0.0,0.0,0.0,0.0,0.0,0.0,0.0,0.0,0.0,0.0,0.0,0.0,0.0,0.0,0.0,-2.1894,-2.2264,-2.3786,-2.5198,0.0,0.0,-2.87,-2.9419,0.0,-3.3509,-3.1206,-3.296,-3.3811,-3.3768,-3.2508,-3.3002,-3.4871,-3.5862,-3.6712,-3.7537,-3.7541,-3.818,-3.9203,-3.8836,-3.8994,-3.9806,-4.2959,-4.4787,-4.5438,0.0,0.0,0.0,0.0,0.0,0.0,-2.566,-2.5479,-2.5303,-2.5303,-2.5303,-2.5303,-2.5303,-2.5303,-2.5303,-2.5303,-2.5303,-2.5303,-2.5303,-2.5303,-2.5303,-2.5303,-2.5303,-2.5303,-2.5303,-2.5303,-2.5303,0.0,-2.8379,-2.828,-2.5182,-2.4526,-2.419,-2.4357,0.0,0.0,0.0,-2.5224,-2.5273,-2.5318,-2.5846,-2.6005,-2.5828,-2.5449,-2.5311,-2.5201,-2.4447,-2.4667,-2.5254,-2.5234,-2.5307,-2.5601,-2.7068,-2.7581,-2.7801,-2.8631,-2.8264,-2.7398,-2.6388,-2.6658,-2.7243,-2.7251,-2.6548,-2.6008,-2.6462,-2.6631,-2.6479,-2.5666,-2.615,-2.6488,-2.5876,-2.6814,-2.7555,0.0,0.0,0.0,0.0,0.0,0.0,0.0,0.0,0.0,0.0,-2.2118,0.0,0.0,-2.1569,-2.1894,-2.2264,-2.3786,-2.5435,-2.7253,0.0,-2.8169,-2.9403,-3.0866,-3.1482,-3.123,-3.2967,-3.3807,-3.3811,-3.4139,-3.5728,-3.8246,-3.8355,-3.8469,-3.8581,-3.8587,-3.947,-4.0744,-3.9276,-3.9974,-4.1594,-3.9974,-4.2019,-4.5586,0.0,0.0,0.0,0.0,0.0,0.0,0.0,-2.5605,-2.5524,-2.5524,-2.5398,-2.5303,-2.5303,-2.5303,-2.5303,-2.5303,-2.5303,-2.5303,-2.5303,-2.5303,-2.5303,-2.5303,-2.5303,-2.5303,-2.5303,-2.5303,-2.5303,0.0,0.0,-2.7395,-2.7473,-2.5245,-2.5519,0.0,0.0,-2.6572,-2.5303,-2.5303,-2.5303,-2.537,-2.6314,-2.6408,-2.6048,-2.6654,-2.6578,-2.6025,-2.5217,-2.5438,-2.6135,-2.6135,-2.6429,-2.6943,-2.7603,-2.8117,-2.8594,-2.8902,-2.8081,-2.7178,-2.7588,-2.6995,-2.6323,-2.6796,-2.6224,-2.546,-2.5026,-2.5486,-2.57,-2.477,-2.536,-2.6012,-2.599,-2.6644,-2.7225,0.0,0.0,0.0,0.0,0.0,0.0,0.0,0.0,0.0,0.0,0.0,-2.2112,0.0,0.0,-2.1605,-2.1351,-2.3406,-2.5137,-2.6298,0.0,-2.7913,-3.0311,-3.0704,-3.1532,-3.2756,-3.3476,-3.433,-3.5266,-3.4467,-3.5793,-3.8684,-3.8716,-3.8688,-3.8729,-3.8669,-3.9093,-3.9822,-4.1556,-4.2179,-4.2019,-4.1102,-4.28,-4.5586,-2.8906,0.0,-2.5703,0.0,-2.5703,-2.5703,-2.5703,-2.5703,-2.5703,-2.5703,-2.5559,-2.5383,-2.5322,-2.5303,-2.5303,-2.5303,-2.5303,-2.5303,-2.5303,-2.5303,-2.5303,-2.5303,-2.5303,0.0,-2.5303,-2.5303,-2.5303,-2.5303,-2.5303,-2.6584,-2.8925,-2.595,0.0,0.0,-2.6379,-2.5303,-2.5303,-2.5303,-2.561,-2.612,-2.6764,-2.6911,-2.6911,-2.7656,-2.7567,-2.6921,-2.6066,-2.6282,-2.6943,-2.6943,-2.7493,-2.8117,-2.786,-2.8338,-2.8938,-2.8741,-2.786,-2.7163,-2.8044,-2.6869,-2.5531,-2.6098,-2.5805,-2.523,-2.4556,-2.5158,-2.5657,-2.4867,-2.5357,-2.5942,-2.6018,-2.6365,-2.6697,-2.6749,0.0,0.0,0.0,0.0,0.0,0.0,-2.3323,-2.2898,-2.2996,-2.2915,0.0,0.0,0.0,0.0,-2.1566,-2.3799,0.0,0.0,0.0,0.0,0.0,-3.1496,-3.2223,-3.3426,-3.3671,-3.4936,-3.6961,-3.5776,-3.6486,-3.8689,-3.8689,-3.8689,-3.8726,-3.87,-3.8915,-3.9547,-4.3403,-4.4056,-4.2837,-4.305,-4.419,-4.5586,-2.5742,-2.5742,-2.5703,-2.5703,-2.5703,-2.5703,-2.5703,-2.5703,-2.5703,-2.5703,-2.5703,-2.5598,-2.5321,-2.5303,-2.5303,-2.5303,-2.5303,-2.5303,-2.5303,-2.5303,-2.5303,0.0,0.0,-2.5303,-2.5303,-2.5303,-2.5303,-2.5303,0.0,0.0,-2.8925,0.0,-2.5303,-2.5341,-2.5303,-2.5303,-2.5303,-2.5303,-2.6274,-2.7813,-2.7236,-2.7711,-2.8713,-2.8257,-2.8109,-2.7959,-2.6938,-2.709,-2.7787,-2.7787,-2.8338,-2.8828,-2.8044,-2.8338,-2.8851,-2.8044,-2.7787,-2.7603,-2.6833,-2.6025,-2.5421,-2.5421,-2.5421,-2.5523,-2.5968,-2.6397,-2.669,-2.6653,-2.6657,-2.6454,-2.5744,-2.6224,-2.6427,-2.5641,0.0,0.0,0.0,0.0,0.0,0.0,-2.3189,-2.3305,-2.3653,0.0,0.0,0.0,0.0,0.0,0.0,0.0,0.0,-2.9006,-2.8,0.0,-3.2049,-3.3198,-3.334,-3.2535,-3.3396,-3.5515,-3.8685,-3.8676,-3.8652,-3.8689,-3.8689,-3.8689,-3.8726,-3.8679,-3.9333,-4.0609,-4.42,-4.5163,-4.4663,-4.5323,-4.5586,-4.5586,-2.5703,-2.5703,-2.5703,-2.5703,-2.5703,-2.5703,-2.5703,-2.5703,-2.5703,-2.5703,-2.5703,-2.5661,-2.559,-2.5413,-2.5303,0.0,-2.5303,-2.5303,0.0,-2.5303,-2.5303,-2.5303,-2.5303,-2.5041,-2.4575,-2.503,-2.5041,-2.4559,0.0,0.0,0.0,-2.5669,-2.5303,-2.5322,-2.5479,-2.5457,-2.5303,-2.5303,-2.6313,-2.7928,-2.8082,-2.8262,-2.8464,-2.9077,-2.9064,-2.8669,-2.836,-2.8411,-2.8448,-2.7346,-2.753,-2.8044,-2.7236,-2.7934,-2.8938,-2.8705,-2.8227,-2.775,-2.7493,-2.6833,-2.6209,-2.6209,-2.6209,-2.6261,-2.6395,-2.6741,-2.6978,-2.6795,-2.7163,-2.7186,-2.6162,-2.6096,-2.615,-2.5864,-2.5222,0.0,0.0,0.0,0.0,0.0,-2.3477,-2.3328,0.0,-2.3872,0.0,0.0,0.0,0.0,0.0,0.0,0.0,0.0,-2.99,0.0,-3.267,-3.3444,-3.3643,-3.3396,-3.4816,-3.6626,-3.8713,-3.8689,-3.9093,-3.9753,-3.9019,-3.9019,-3.9533,-3.9722,-4.0198,-4.1135,-4.3853,-4.5065,-4.5303,-4.5532,-4.5586,-4.5586,-2.5703,-2.5703,-2.5703,-2.5703,-2.5703,-2.5703,-2.5703,-2.5703,-2.5703,-2.5703,-2.5703,-2.5703,-2.5703,-2.5531,0.0,-2.5322,-2.5303,-2.5303,-2.5303,-2.5303,-2.5303,-2.5303,-2.5303,-2.5676,-2.6505,-2.5452,0.0,-2.5988,-2.5525,-2.5365,-2.5434,-2.5434,-2.5434,-2.5479,-2.5611,-2.5531,-2.538,-2.6649,-2.7852,-2.8852,-2.9198,-2.9143,-2.8935,-2.9531,-2.9514,-2.9134,-2.9021,-2.8815,-2.8411,-2.7383,-2.7163,-2.731,-2.7126,-2.775,-2.8558,-2.8558,-2.8411,-2.8117,-2.7493,-2.72,-2.6906,-2.6282,-2.6612,-2.7083,-2.7228,-2.7477,-2.7579,-2.7272,-2.7331,-2.7138,-2.6079,-2.5709,-2.5469,-2.5203,-2.4632,-2.4315,-2.4526,0.0,0.0,0.0,0.0,0.0,0.0,-2.4873,-2.5405,0.0,0.0,0.0,0.0,0.0,0.0,-3.0196,-3.1762,0.0,-3.3299,-3.3625,-3.378,-3.3826,-3.5475,-3.6971,-3.8248,-3.8579,-3.9093,-3.9717,-3.9875,-3.9851,-3.969,-3.9682,-4.0265,-4.136,-4.3942,-4.5209,-4.5586,-4.5586,-4.5586,-4.5586,-2.5703,-2.5703,0.0,0.0,-2.5703,0.0,-2.5662,-2.5703,-2.5703,-2.5703,-2.5703,-2.5703,-2.5703,-2.5703,-2.5601,-2.5357,0.0,0.0,0.0,-2.5303,-2.5303,-2.5303,-2.5303,-2.6879,-3.034,-2.6392,-2.5869,-2.9112,-2.655,-2.5441,-2.5662,-2.5662,-2.5663,-2.5703,-2.5936,-2.5905,-2.5841,-2.9033,-3.0379,-3.0379,-3.0379,-3.0254,-2.9984,-2.966,-2.9456,-2.9332,-2.9112,-2.8544,-2.786,-2.775,-2.7273,-2.6796,-2.7493,-2.775,-2.7787,-2.786,-2.8411,-2.8645,-2.7126,-2.7273,-2.7493,-2.5972,-2.6722,-2.7976,-2.8359,-2.8428,-2.835,-2.7966,-2.7315,-2.6508,-2.5648,-2.5124,-2.459,-2.384,-2.3996,-2.419,-2.417,0.0,0.0,0.0,0.0,0.0,0.0,-2.626,-2.703,0.0,0.0,0.0,0.0,0.0,-3.0818,-3.2246,-3.3263,-3.3807,-3.3807,-3.3797,-3.3917,-3.4137,-3.5491,-3.6648,-3.7588,-3.8358,-3.8762,-3.8903,-4.0894,-4.0891,-3.9401,-3.9064,-3.9825,-4.1456,-4.4411,-4.5567,-4.5586,-4.5586,-4.5586,-4.5586,0.0,0.0,-2.544,-2.5661,-2.5703,-2.5613,-2.5441,-2.558,-2.5703,-2.5703,-2.5703,-2.5703,-2.5703,-2.5703,-2.5662,-2.5605,-2.5427,-2.5303,-2.5303,-2.5303,-2.5303,-2.5303,-2.5303,-2.6879,-3.034,-2.6871,-2.6708,-3.0066,-2.688,-2.533,-2.5391,-2.5391,-2.5489,-2.582,-2.821,-2.9265,-2.9264,-3.0071,-3.0379,-3.0379,-3.0379,-3.0367,-3.0279,-3.0215,-2.975,-2.9134,-2.9332,-2.9116,-2.8521,-2.731,-2.7163,-2.742,-2.7016,-2.731,-2.7934,-2.8558,-2.8828,-2.8778,-2.7787,-2.8117,-2.8484,-2.7493,-2.797,-2.8755,-2.8845,-2.8881,-2.8675,-2.7984,-2.7669,-2.7086,-2.5688,-2.533,-2.5006,-2.4202,-2.4151,-2.4132,-2.3837,-2.3674,0.0,0.0,-2.446,-2.4924,-2.5262,-2.6176,-2.6966,0.0,0.0,0.0,0.0,-3.106,-3.1384,-3.2044,-3.3194,-3.3807,-3.3807,-3.3783,-3.507,-3.7527,-3.5409,-3.58,-3.8432,-3.8615,-3.9166,-3.99,-3.9607,-4.0056,-4.0965,-4.0934,-4.1288,-4.2055,-4.4082,-4.5163,-4.5586,-4.5586,-4.5586,-4.5586,-2.5473,-2.5398,-2.5357,-2.5479,-2.5503,-2.5451,-2.5312,-2.5511,-2.5703,-2.5703,-2.5703,-2.5703,-2.5703,-2.5703,-2.5703,-2.5703,-2.544,-2.5303,-2.5303,-2.5303,-2.5303,-2.5303,-2.6802,-2.8494,-3.034,-2.8571,-2.7764,-2.8071,-2.793,-2.7822,-2.7691,-2.6134,-2.5751,-2.6477,-2.8473,-2.9718,-3.0379,-3.0379,-3.0379,-3.0379,-3.0379,-3.0379,-3.0379,-3.0379,-2.9915,-2.9249,-2.9414,-2.9026,-2.8338,-2.7457,-2.72,-2.7236,-2.7163,-2.7457,-2.797,-2.8778,-2.8975,-2.8792,-2.8007,-2.8374,-2.8902,-2.8448,-2.8705,-2.8975,-2.8975,-2.9089,-2.9052,-2.8609,-2.8202,-2.7557,-2.6299,-2.5721,-2.5164,-2.4337,-2.4056,-2.3935,-2.3732,-2.3889,0.0,-2.4721,-2.5502,-2.6145,-2.6444,-2.7236,-2.775,-2.7787,-2.8154,0.0,-3.076,-3.1201,-3.1858,-3.2774,-3.3456,-3.3795,-3.3795,-3.5834,-3.737,-3.8362,-3.7093,-3.7314,-3.8884,-3.9016,-3.9298,-3.9564,-3.9537,-4.0079,-4.1132,-4.1915,-4.2374,-4.273,-4.4407,-4.5283,-4.5586,-4.5586,-4.5586,-4.5586,-2.5303,-2.5303,-2.5303,-2.5303,-2.5303,-2.5303,-2.5303,-2.5479,-2.5655,-2.5655,-2.5662,-2.5703,-2.5703,-2.5703,-2.5703,-2.5703,-2.5479,-2.5348,-2.5313,-2.5303,-2.5303,-2.5303,-2.8071,-2.9879,-3.0379,-3.043,-2.9013,-2.6072,-2.8758,-3.0125,-3.0152,-2.7484,-2.6631,-2.7311,-2.7828,-2.8952,-3.0379,-3.0379,-3.0379,-3.0379,-3.0379,-3.0379,-3.0379,-3.0379,-3.0022,-2.9494,-2.9474,-2.8804,-2.797,-2.7824,-2.742,-2.7053,-2.7603,-2.786,-2.8117,-2.8792,-2.8975,-2.8828,-2.8154,-2.8484,-2.8975,-2.8975,-2.9021,-2.9044,-2.9044,-2.9249,-2.9416,-2.9304,-2.8651,-2.7848,-2.7028,-2.6078,-2.5237,-2.463,-2.4231,-2.3991,-2.4057,0.0,-2.5112,-2.6041,-2.6908,-2.7556,-2.7794,-2.8588,-2.8823,-2.8191,-2.8815,-2.9586,-3.0503,-3.1201,-3.2291,-3.3813,-3.3846,-3.3864,-3.3919,-3.7797,-3.9271,-3.8412,-3.9315,-3.9548,-3.9261,-3.9462,-3.9314,-3.8921,-4.0024,-4.0508,-4.0585,-4.2101,-4.2871,-4.3278,-4.4932,-4.5586,-4.5586,-4.5586,-4.5586,-4.5586,-2.5303,-2.5303,-2.5303,-2.5303,-2.5303,-2.5303,-2.5303,-2.533,-2.5343,-2.5343,-2.5577,-2.5703,-2.5703,-2.5703,-2.5703,-2.5703,-2.566,-2.5524,-2.5293,-2.5303,-2.5303,-2.5303,-2.5803,-2.7418,-3.034,-3.0686,-3.0424,-2.961,-2.7286,-2.697,-2.8501,-2.9273,-2.8983,-2.7816,-2.7903,-2.8846,-3.0379,-3.0379,-3.0379,-3.0379,-3.0379,-3.0379,-3.0379,-3.0379,-3.0022,-2.9514,-2.9626,-2.9282,-2.8705,-2.8044,-2.8154,-2.8535,-2.797,-2.8264,-2.8851,-2.8938,-2.8975,-2.8975,-2.8828,-2.8902,-2.8975,-2.8975,-2.9178,-2.9349,-2.9349,-2.9494,-2.9454,-2.8793,-2.8333,-2.7848,-2.7028,-2.6078,-2.5585,-2.6135,-2.5601,-2.5278,-2.5656,0.0,-2.6307,-2.6429,-2.7352,-2.8012,-2.8051,-2.8849,-2.9487,-2.9793,-2.9953,-3.065,-3.2155,-3.2375,-3.2944,-3.4104,-3.4139,-3.4277,-3.4565,-3.5683,-3.7584,-4.0101,-4.0291,-4.0148,-3.9774,-3.9665,-3.9564,-3.9524,-4.0212,-4.0508,-4.0508,-4.0768,-4.1783,-4.3278,-4.4932,-4.5586,-4.5586,-4.5586,-4.5586,-4.5586,-2.5303,-2.5303,-2.5303,-2.5303,-2.5303,-2.5303,-2.5303,-2.5303,-2.5303,-2.5303,-2.5413,-2.5524,-2.5663,-2.5703,-2.5703,-2.5703,-2.5703,-2.5657,-2.5507,-2.5368,-2.5303,-2.5303,-2.5303,-2.6125,-2.7818,-2.9871,-3.0732,-3.0379,-2.8802,-2.8482,-2.9351,-2.9434,-2.939,-2.9198,-2.7967,-2.8544,-3.0379,-3.0379,-3.0379,-3.0379,-3.0379,-3.0379,-3.0379,-3.0379,-3.0022,-2.9514,-2.9624,-2.9397,-2.8938,-2.8594,-2.8705,-2.8938,-2.8558,-2.8705,-2.8975,-2.8975,-2.8975,-2.8975,-2.8975,-2.8975,-2.9021,-2.9178,-2.9328,-2.9414,-2.9533,-2.9712,-2.9747,-2.9383,-2.919,-2.886,-2.8061,-2.6987,-2.6395,-2.6897,-2.5943,0.0,0.0,-2.6896,-2.7195,-2.7304,-2.8297,-2.8914,-2.8817,-2.958,-3.0086,-3.0197,-3.0613,-3.1347,-3.2559,-3.2736,-3.331,-3.4427,-3.4538,-3.4756,-3.5132,-3.6281,-3.8076,-4.0482,-4.0488,-4.0329,-4.0013,-4.0038,-3.9916,-3.9626,-4.0248,-4.1546,-4.3085,-4.1261,-4.2069,-4.4509,-4.5278,-4.5586,-4.5586,-4.5586,-4.5586,-4.5586,-2.5303,-2.5303,-2.5303,-2.5303,-2.5303,-2.5303,-2.5303,-2.5303,-2.5303,-2.5303,-2.5995,-2.6257,-2.5671,-2.566,-2.5703,-2.5703,-2.6445,-2.6562,-2.5742,-2.5493,-2.5391,-2.5391,-2.618,-2.634,-2.5703,-2.9101,-3.0732,-3.0379,-3.0379,-3.0379,-3.0379,-2.9494,-2.9571,-3.0302,-2.8571,-2.8764,-3.0379,-3.0379,-3.0379,-3.0379,-3.0379,-3.0379,-3.0379,-3.0379,-3.0052,-2.9626,-2.9695,-2.9436,-2.8975,-2.8975,-2.8975,-2.8975,-2.8975,-2.8975,-2.8975,-2.8975,-2.8975,-2.8975,-2.8975,-2.8975,-2.9067,-2.9312,-2.9434,-2.9514,-2.9712,-2.9924,-3.0109,-3.0109,-3.0028,-2.9823,-2.9202,-2.8083,-2.7414,-2.7786,0.0,0.0,0.0,-2.8053,-2.8535,-2.8725,-2.9712,-3.0316,-3.0171,-3.0714,-3.1022,-3.0867,-3.1468,-3.2145,-3.2852,-3.3213,-3.3811,-3.4717,-3.492,-3.5193,-3.5493,-3.7161,-3.8845,-4.0506,-4.05,-4.0389,-4.0214,-4.0406,-4.0248,-3.9861,-4.0321,-4.1992,-4.4282,-4.2431,-4.3239,-4.5586,-4.5586,-4.5586,-4.5586,-4.5586,-4.5586,-4.5586,-2.5303,-2.5303,-2.5303,-2.5303,-2.5303,-2.5303,-2.5303,-2.5303,-2.5303,-2.5303,-2.8071,-2.8824,-2.5668,-2.5531,-2.5703,-2.5703,-2.8633,-2.9141,-2.5898,-2.5663,-2.5662,-2.5662,-2.8748,-2.8983,-2.5781,-2.9101,-3.0732,-3.0379,-3.0379,-3.0379,-3.0379,-3.0302,-3.0302,-3.0379,-3.0225,-3.0225,-3.0379,-3.0379,-3.0379,-3.0379,-3.0379,-3.0379,-3.0379,-3.0379,-3.0202,-2.9877,-2.9893,-2.9495,-2.8975,-2.8975,-2.8975,-2.8975,-2.8975,-2.8975,-2.8975,-2.8975,-2.8975,-2.8975,-2.8975,-2.8975,-2.9067,-2.9312,-2.9533,-2.9712,-2.9939,-3.0163,-3.0367,-3.0367,-3.0163,-2.9961,-2.9923,-2.9049,-2.8638,-2.9393,0.0,0.0,-2.9358,-3.0243,-3.0822,-3.1035,-3.1828,-3.2378,-3.2362,-3.2438,-3.254,-3.2806,-3.306,-3.3387,-3.3687,-3.4278,-3.4679,-3.4882,-3.5262,-3.5479,-3.5493,-3.7161,-3.8845,-4.0506,-4.05,-4.0508,-4.0454,-4.0508,-4.0492,-4.0422,-4.0482,-4.0641,-4.1106,-4.4013,-4.5355,-4.5586,-4.5586,-4.5586,-4.5586,-4.5586,-4.5586,-4.5586,-2.4601,-2.4601,-2.4766,-2.5214,-2.7033,-2.7764,-2.561,-2.711,-2.7687,-2.5572,-2.8264,-2.9917,-2.861,-2.8548,-2.8685,-2.8906,-2.8164,-2.7109,-2.5781,-2.7734,-2.8906,-2.8906,-3.0195,-3.0273,-2.8945,-3.0034,-3.0518,-3.0379,-3.0482,-3.0527,-3.052,-3.052,-3.052,-3.052,-3.0436,-3.0379,-3.034,-2.9648,-2.9159,-2.8929,-2.9967,-2.9994,-2.9417,-3.011,-3.0228,-2.9969,-2.9969,-2.9642,-2.9265,-2.9265,-2.9134,-2.8975,-2.8975,-2.8975,-2.9021,-2.92,-2.9353,-2.9548,-3.0111,-2.9746,-2.9332,-2.9677,-2.9829,-2.9939,-3.0177,-3.0343,-3.0379,-3.0379,-3.033,-3.0254,-3.0254,-2.9407,-2.9017,-2.998,0.0,-2.9693,-3.0782,-3.1562,-3.2057,-3.2272,-3.2568,-3.2757,-3.26,-3.3042,-3.3329,-3.3255,-3.3843,-3.4254,-3.4353,-3.4658,-3.53,-3.6274,-3.681,-3.7046,-3.706,-3.6632,-3.78,-4.0477,-4.0485,-4.0508,-4.0508,-4.0508,-4.0508,-4.0639,-4.2749,-4.364,-4.3765,-4.5068,-4.5586,-4.5586,-4.5586,-4.5586,-4.5586,-4.5586,-4.5586,-4.5893,-2.419,-2.5262,-2.6321,-2.6814,-2.8841,-2.961,-2.7264,-2.8879,-2.9571,-2.7187,-2.8917,-3.0379,-3.0379,-3.0379,-3.0501,-3.0724,-2.7576,-2.5605,-2.5703,-2.8945,-3.0898,-3.0898,-3.0898,-3.0898,-3.0898,-3.0686,-3.056,-3.056,-3.0642,-3.0672,-3.0681,-3.0626,-3.0605,-3.0598,-3.0451,-3.0425,-3.0392,-2.9567,-2.9006,-2.8775,-2.9929,-2.9917,-2.9302,-3.011,-3.0279,-3.0136,-3.0136,-2.9861,-2.9551,-2.9551,-2.9397,-2.9228,-2.9228,-2.9413,-2.9662,-2.9847,-3.0171,-3.0636,-3.1328,-3.0958,-3.0489,-3.0753,-3.0624,-3.0476,-3.0739,-3.0879,-3.0917,-3.084,-3.0879,-3.0994,-3.116,-3.0586,-3.0318,-3.1059,-3.0939,-3.1073,-3.1943,-3.2683,-3.3154,-3.3301,-3.3545,-3.3659,-3.3532,-3.4244,-3.4492,-3.3979,-3.504,-3.5723,-3.5723,-3.5549,-3.6048,-3.7392,-3.7661,-3.8084,-3.8768,-3.7647,-3.8223,-4.05,-4.0508,-4.1046,-4.2117,-4.2117,-4.2117,-4.2233,-4.4592,-4.5694,-4.584,-4.58,-4.5835,-4.5813,-4.5827,-4.5827,-4.5815,-4.5665,-4.5586,-4.6086,-2.4226,-2.7562,-3.0379,-3.0379,-3.0379,-3.0379,-3.0379,-3.0379,-3.0379,-3.0379,-3.0379,-3.0379,-3.0379,-3.0379,-3.0379,-3.0379,-2.7302,-2.5459,-2.5702,-2.8984,-3.0898,-3.0898,-3.0898,-3.0898,-3.0898,-3.0898,-3.0898,-3.0898,-3.0898,-3.0898,-3.0898,-3.0689,-3.0586,-3.0574,-3.0482,-3.0451,-3.0599,-3.0469,-3.0379,-3.0379,-3.0379,-3.0379,-3.0379,-3.0379,-3.0379,-3.0379,-3.0379,-3.0163,-2.9908,-2.9908,-2.9813,-2.9677,-2.9715,-3.0298,-3.1013,-3.1013,-3.158,-3.2257,-3.2537,-3.26,-3.26,-3.26,-3.1936,-3.1369,-3.1661,-3.1917,-3.202,-3.1775,-3.1917,-3.2301,-3.2814,-3.2891,-3.2891,-3.2891,-3.2891,-3.2891,-3.2891,-3.366,-3.4199,-3.4199,-3.4968,-3.5507,-3.5493,-3.6238,-3.6266,-3.5179,-3.6903,-3.8007,-3.8007,-3.7113,-3.7058,-3.8007,-3.7493,-3.8277,-4.0515,-4.0477,-4.05,-4.0508,-4.0515,-4.2316,-4.5577,-4.5616,-4.5616,-4.5616,-4.5582,-4.5869,-4.6289,-4.632,-4.6305,-4.6287,-4.6297,-4.6309,-4.6246,-4.579,-4.5642,-4.6124,-2.7126,-2.8582,-2.9644,-3.0305,-2.9867,-2.9624,-3.0318,-3.0379,-3.0379,-3.0379,-3.0379,-3.0379,-3.0379,-3.0379,-3.0379,-3.0379,-2.9456,-2.8905,-2.9007,-3.0203,-3.0898,-3.0898,-3.0898,-3.0898,-3.0898,-3.0898,-3.0898,-3.0898,-3.0898,-3.0898,-3.0898,-3.0855,-3.0746,-3.058,-3.056,-3.0501,-3.0469,-3.0414,-3.0044,-2.9544,-3.016,-3.0044,-2.9544,-3.016,-3.0379,-3.0379,-3.0379,-3.0228,-2.9969,-2.9969,-2.9845,-2.9808,-3.0429,-3.0873,-3.1347,-3.1933,-3.2371,-3.2833,-3.3541,-3.3286,-3.2826,-3.2826,-3.262,-3.2442,-3.2532,-3.17,-3.1226,-3.2301,-3.357,-3.4161,-3.3083,-3.2891,-3.2891,-3.2891,-3.3391,-3.3814,-3.3814,-3.4545,-3.5122,-3.5122,-3.5853,-3.6122,-3.5532,-3.6776,-3.7209,-3.6305,-3.7324,-3.8161,-3.8546,-3.7932,-3.8239,-3.973,-3.96,-4.0408,-4.2302,-3.9961,-3.9354,-4.0508,-4.2925,-4.4614,-4.5603,-4.5603,-4.5594,-4.5616,-4.5957,-4.6186,-4.6289,-4.628,-4.63,-4.6309,-4.6303,-4.6284,-4.6289,-4.6136,-4.7384,-4.9317,-2.8608,-2.8975,-2.9185,-2.9767,-2.9377,-2.9185,-2.9746,-2.9867,-2.9977,-3.0355,-3.0379,-3.0379,-3.0379,-3.0379,-3.0379,-3.0379,-3.0379,-3.0379,-3.0379,-3.0598,-3.0746,-3.0898,-3.0898,-3.0898,-3.0898,-3.0898,-3.0898,-3.0898,-3.0898,-3.0898,-3.0898,-3.0898,-3.0806,-3.058,-3.0598,-3.0548,-3.043,-3.0414,-3.0121,-2.966,-3.0198,-3.0083,-2.966,-3.0198,-3.0379,-3.0379,-3.0379,-3.0279,-3.015,-3.015,-3.008,-3.0129,-3.1134,-3.1836,-3.2422,-3.3049,-3.3541,-3.4045,-3.4584,-3.4314,-3.393,-3.393,-3.366,-3.3391,-3.3391,-3.2904,-3.2622,-3.3276,-3.4879,-3.5843,-3.4697,-3.4774,-3.499,-3.5018,-3.5438,-3.5777,-3.5777,-3.6177,-3.6507,-3.6507,-3.693,-3.7007,-3.6546,-3.7738,-3.843,-3.8238,-3.8392,-3.8969,-3.9915,-3.9339,-3.9454,-4.0469,-4.1022,-4.229,-4.4365,-4.1455,-4.0546,-4.1546,-4.4322,-4.5611,-4.561,-4.561,-4.5616,-4.562,-4.5901,-4.6132,-4.6289,-4.6289,-4.7109,-4.8164,-4.6836,-4.6719,-4.7422,-4.8086,-4.944,-5.0969,-2.8975,-2.8975,-2.8975,-2.8975,-2.8975,-2.8975,-2.8975,-2.8975,-2.9295,-3.0174,-3.0343,-3.0379,-3.0379,-3.0379,-3.0379,-3.0379,-3.0379,-3.0402,-3.0419,-3.043,-3.0591,-3.0898,-3.0898,-3.0898,-3.0898,-3.0898,-3.0898,-3.0856,-3.0898,-3.0898,-3.0898,-3.0898,-3.0808,-3.0642,-3.0613,-3.0552,-3.05,-3.0447,-3.0379,-3.0379,-3.0379,-3.0379,-3.0379,-3.0379,-3.0379,-3.0379,-3.0379,-3.0379,-3.0379,-3.0379,-3.0379,-3.0609,-3.184,-3.2955,-3.3891,-3.4199,-3.4891,-3.5507,-3.5597,-3.5636,-3.5622,-3.5713,-3.5136,-3.4507,-3.443,-3.5045,-3.543,-3.4725,-3.6048,-3.7295,-3.7073,-3.7686,-3.8229,-3.8298,-3.8266,-3.8218,-3.8218,-3.8092,-3.8064,-3.8141,-3.8204,-3.8229,-3.8229,-3.9022,-3.9854,-4.0662,-3.9969,-4.02,-4.1739,-4.1193,-4.0793,-4.0784,-4.2073,-4.3939,-4.624,-4.4365,-4.3397,-4.3404,-4.4936,-4.5673,-4.5665,-4.5665,-4.5665,-4.5665,-4.5665,-4.5911,-4.6328,-4.6641,-4.8398,-5.0664,-4.7851,-4.7734,-4.9297,-5.0859,-5.1406,-5.1445,-2.8975,-2.8975,-2.8975,-2.8975,-2.8975,-2.8975,-2.8975,-2.8975,-2.9067,-2.9291,-2.9946,-3.0379,-3.0379,-3.0379,-3.0379,-3.0379,-3.0379,-3.0491,-3.0752,-3.0799,-3.081,-3.0898,-3.0898,-3.0898,-3.0898,-3.0898,-3.0788,-3.053,-3.0788,-3.0898,-3.0898,-3.0898,-3.0898,-3.0813,-3.0662,-3.0513,-3.0436,-3.0402,-3.0379,-3.0379,-3.0379,-3.0379,-3.0379,-3.0379,-3.0379,-3.0379,-3.0379,-3.0379,-3.0379,-3.0379,-3.0379,-3.0763,-3.2801,-3.3609,-3.4007,-3.493,-3.5353,-3.5649,-3.6416,-3.6511,-3.6612,-3.7421,-3.7385,-3.7007,-3.6315,-3.6507,-3.6947,-3.7278,-3.8009,-3.8479,-3.8066,-3.8159,-3.8284,-3.8305,-3.8291,-3.8276,-3.8276,-3.826,-3.8477,-3.9185,-3.9769,-4.0113,-4.0099,-4.0805,-4.1623,-4.247,-4.1739,-4.1492,-4.2069,-4.2883,-4.3157,-4.2783,-4.4326,-4.5481,-4.6134,-4.5811,-4.5609,-4.56,-4.5963,-4.6153,-4.614,-4.614,-4.614,-4.614,-4.614,-4.6198,-4.6523,-4.918,-4.9141,-4.7617,-4.9531,-5.0547,-5.0898,-5.1289,-5.1406,-5.1797,-2.8975,-2.8975,-2.8975,-2.8975,-2.8975,-2.8975,-2.8975,-2.8975,-2.8975,-2.8975,-2.9436,-2.9712,-2.9712,-3.0147,-3.0379,-3.0379,-3.0379,-3.0535,-3.0897,-3.0898,-3.0898,-3.0898,-3.0898,-3.0898,-3.0898,-3.0898,-3.0806,-3.0652,-3.0806,-3.0898,-3.0898,-3.0898,-3.0898,-3.0898,-3.07,-3.0552,-3.039,-3.0419,-3.0409,-3.0379,-3.0379,-3.0379,-3.0379,-3.0379,-3.0379,-3.0379,-3.0379,-3.066,-3.1044,-3.1148,-3.1391,-3.1941,-3.4013,-3.4698,-3.4807,-3.5426,-3.5581,-3.564,-3.6133,-3.6852,-3.7637,-3.8403,-3.853,-3.8268,-3.7511,-3.7513,-3.7796,-3.8147,-3.9112,-3.9855,-3.9641,-4.0276,-4.0833,-4.0863,-4.0842,-4.0666,-4.0276,-4.0513,-4.0765,-4.0804,-4.1479,-4.1955,-4.1889,-4.2228,-4.2502,-4.2662,-4.2508,-4.2387,-4.2348,-4.2873,-4.3668,-4.4655,-4.5025,-4.5501,-4.6196,-4.6261,-4.6312,-4.6292,-4.6285,-4.6289,-4.6289,-4.6289,-4.6289,-4.6289,-4.6289,-4.6289,-4.6562,-5.0,-5.0351,-4.8906,-5.0703,-5.1406,-5.1406,-5.1406,-5.1406,-5.1641,-2.8626,-2.8626,-2.87,-2.8952,-2.8975,-2.8975,-2.8975,-2.8975,-2.8975,-2.8975,-2.8975,-2.8975,-2.8975,-2.9851,-3.0379,-3.0379,-3.0379,-3.0771,-3.1616,-3.1157,-3.0852,-3.0898,-3.0898,-3.0898,-3.0898,-3.0898,-3.0898,-3.0898,-3.0898,-3.0898,-3.0898,-3.0898,-3.0857,-3.0806,-3.0732,-3.0581,-3.043,-3.0463,-3.0462,-3.0379,-3.0379,-3.0379,-3.0379,-3.0379,-3.0494,-3.0609,-3.0609,-3.1006,-3.1506,-3.1737,-3.2506,-3.3621,-3.5095,-3.5873,-3.6117,-3.5781,-3.5814,-3.5885,-3.5665,-3.6911,-3.8468,-3.9189,-3.9494,-3.9474,-3.8916,-3.8733,-3.8714,-3.885,-4.0221,-4.1389,-4.1456,-4.2633,-4.3657,-4.3671,-4.3663,-4.3372,-4.263,-4.3061,-4.3254,-4.2669,-4.3318,-4.3817,-4.3679,-4.3656,-4.344,-4.2888,-4.3158,-4.3294,-4.3092,-4.2803,-4.3733,-4.6035,-4.5211,-4.5246,-4.63,-4.6286,-4.6289,-4.6289,-4.6289,-4.6289,-4.6289,-4.6289,-4.6289,-4.6289,-4.6289,-4.6289,-4.6562,-5.0,-5.1406,-5.1406,-5.1406,-5.1406,-5.1406,-5.1406,-5.1406,-5.1484,-2.7019,-2.7019,-2.7422,-2.8749,-2.8975,-2.8975,-2.8975,-2.8975,-2.8975,-2.8975,-2.8975,-2.8975,-2.8975,-2.9851,-3.0379,-3.0379,-3.0379,-3.1684,-3.4697,-3.2122,-3.0605,-3.0898,-3.0898,-3.0898,-3.0898,-3.0898,-3.0898,-3.0898,-3.0898,-3.0898,-3.0898,-3.0898,-3.0735,-3.0472,-3.0552,-3.0613,-3.0581,-3.0472,-3.0402,-3.0379,-3.0379,-3.0379,-3.0379,-3.0379,-3.0891,-3.1506,-3.1506,-3.1121,-3.0571,-3.0609,-3.2648,-3.5199,-3.5418,-3.6752,-3.7885,-3.62,-3.639,-3.6956,-3.5958,-3.6985,-3.8708,-4.0486,-4.1551,-4.219,-4.208,-4.1271,-4.0765,-4.1574,-4.2524,-4.3251,-4.3318,-4.3515,-4.3671,-4.3711,-4.3672,-4.3632,-4.3515,-4.3592,-4.3904,-4.4528,-4.5288,-4.5702,-4.5559,-4.555,-4.5502,-4.5405,-4.4822,-4.4764,-4.5425,-4.4876,-4.5007,-4.6083,-4.6069,-4.6132,-4.6288,-4.6289,-4.6289,-4.6289,-4.6289,-4.6289,-4.6289,-4.6289,-4.6289,-4.6289,-4.6289,-4.6289,-4.6562,-5.0,-5.1406,-5.1406,-5.1406,-5.1406,-5.1406,-5.1406,-5.1406,-5.1836,-2.6691,-2.6691,-2.6922,-2.7601,-2.7718,-2.8002,-2.8881,-2.8975,-2.8975,-2.8975,-2.8975,-2.8975,-2.8975,-2.9851,-3.0379,-3.0379,-3.0379,-3.184,-3.5262,-3.407,-3.2458,-3.0704,-3.0801,-3.0898,-3.0898,-3.0898,-3.0898,-3.0898,-3.0898,-3.0898,-3.0898,-3.0898,-3.0808,-3.0686,-3.0607,-3.0601,-3.058,-3.0574,-3.05,-3.0379,-3.0379,-3.0379,-3.039,-3.0441,-3.0984,-3.1767,-3.198,-3.199,-3.1948,-3.1948,-3.3545,-3.5495,-3.5599,-3.7653,-3.9687,-3.7844,-3.6975,-3.6501,-3.6005,-3.7836,-4.0369,-4.2138,-4.3654,-4.4465,-4.3486,-4.3216,-4.3177,-4.3049,-4.3732,-4.437,-4.4414,-4.4805,-4.5156,-4.5156,-4.5156,-4.4961,-4.4492,-4.4844,-4.5312,-4.5664,-4.6013,-4.615,-4.6014,-4.6001,-4.602,-4.6005,-4.5607,-4.5585,-4.6115,-4.5768,-4.5763,-4.6214,-4.6285,-4.6289,-4.6289,-4.6289,-4.6289,-4.6289,-4.6289,-4.6289,-4.6289,-4.6289,-4.6836,-4.7812,-4.875,-4.9141,-4.9258,-5.0781,-5.1406,-5.1406,-5.1406,-5.1406,-5.1406,-5.1406,-5.1406,-5.1914]},{"header":{"parameterUnit":"m.s-1","parameterCategory":1,"la1":30.6,"la2":28.766,"lo1":-90.7593,"lo2":-88.6598,"dy":0.0162,"dx":0.0183,"nx":116,"ny":114,"refTime":"2024-04-29T12:00:00:Z","depth":0,"parameterNumber":3,"parameterNumberName":"V-component_of_WINDS"},"data":[0.0,0.0,0.0,0.0,0.0,0.0,0.0,0.0,0.0,0.0,0.0,0.0,0.0,0.0,0.0,0.0,0.0,0.0,0.0,0.0,0.0,0.0,0.0,0.0,0.0,0.0,0.0,0.0,0.0,0.0,0.0,0.0,0.0,0.0,0.0,0.0,0.0,0.0,0.0,0.0,0.0,0.0,0.0,0.0,0.0,0.0,0.0,0.0,0.0,0.0,0.0,0.0,0.0,0.0,0.0,0.0,0.0,0.0,0.0,0.0,0.0,0.0,0.0,0.0,0.0,0.0,0.0,0.0,0.0,0.0,0.0,0.0,0.0,0.0,0.0,0.0,0.0,0.0,0.0,0.0,0.0,0.0,0.0,0.0,0.0,0.0,0.0,0.0,0.0,0.0,0.0,0.0,0.0,0.0,0.0,0.0,0.0,0.0,0.0,0.0,0.0,0.0,0.0,0.0,0.0,0.0,0.0,0.0,0.0,0.0,0.0,0.0,0.0,0.0,0.0,0.0,0.0,0.0,0.0,0.0,0.0,0.0,0.0,0.0,0.0,0.0,0.0,0.0,0.0,0.0,0.0,0.0,0.0,0.0,0.0,0.0,0.0,0.0,0.0,0.0,0.0,0.0,0.0,0.0,0.0,0.0,0.0,0.0,0.0,0.0,0.0,0.0,0.0,0.0,0.0,0.0,0.0,0.0,0.0,0.0,0.0,0.0,0.0,0.0,0.0,0.0,0.0,0.0,0.0,0.0,0.0,0.0,0.0,0.0,0.0,0.0,0.0,0.0,0.0,0.0,0.0,0.0,0.0,0.0,0.0,0.0,0.0,0.0,0.0,0.0,0.0,0.0,0.0,0.0,0.0,0.0,0.0,0.0,0.0,0.0,0.0,0.0,0.0,0.0,0.0,0.0,0.0,0.0,0.0,0.0,0.0,0.0,0.0,0.0,0.0,0.0,0.0,0.0,0.0,0.0,0.0,0.0,0.0,0.0,0.0,0.0,0.0,0.0,0.0,0.0,0.0,0.0,0.0,0.0,0.0,0.0,0.0,0.0,0.0,0.0,0.0,0.0,0.0,0.0,0.0,0.0,0.0,0.0,0.0,0.0,0.0,0.0,0.0,0.0,0.0,0.0,0.0,0.0,0.0,0.0,0.0,0.0,0.0,0.0,0.0,0.0,0.0,0.0,0.0,0.0,0.0,0.0,0.0,0.0,0.0,0.0,0.0,0.0,0.0,0.0,0.0,0.0,0.0,0.0,0.0,0.0,0.0,0.0,0.0,0.0,0.0,0.0,0.0,0.0,0.0,0.0,0.0,0.0,0.0,0.0,0.0,0.0,0.0,0.0,0.0,0.0,0.0,0.0,0.0,0.0,0.0,0.0,0.0,0.0,0.0,0.0,0.0,0.0,0.0,0.0,0.0,0.0,0.0,0.0,0.0,0.0,0.0,0.0,0.0,0.0,0.0,0.0,0.0,0.0,0.0,0.0,0.0,0.0,0.0,0.0,0.0,0.0,0.0,0.0,0.0,0.0,0.0,0.0,0.0,0.0,0.0,0.0,0.0,0.0,0.0,0.0,0.0,0.0,0.0,0.0,0.0,0.0,0.0,0.0,0.0,0.0,0.0,0.0,0.0,0.0,0.0,0.0,0.0,0.0,0.0,0.0,0.0,0.0,0.0,0.0,0.0,0.0,0.0,0.0,0.0,0.0,0.0,0.0,0.0,0.0,0.0,0.0,0.0,0.0,0.0,0.0,0.0,0.0,0.0,0.0,0.0,0.0,0.0,0.0,0.0,0.0,0.0,0.0,0.0,0.0,0.0,0.0,0.0,0.0,0.0,0.0,0.0,0.0,0.0,0.0,0.0,0.0,0.0,0.0,0.0,0.0,0.0,0.0,0.0,0.0,0.0,0.0,0.0,0.0,0.0,0.0,0.0,0.0,0.0,0.0,0.0,0.0,0.0,0.0,0.0,0.0,0.0,0.0,0.0,0.0,0.0,0.0,0.0,0.0,0.0,0.0,0.0,0.0,0.0,0.0,0.0,0.0,0.0,0.0,0.0,0.0,0.0,0.0,0.0,0.0,0.0,0.0,0.0,0.0,0.0,0.0,0.0,0.0,0.0,0.0,0.0,0.0,0.0,0.0,0.0,0.0,0.0,0.0,0.0,0.0,0.0,0.0,0.0,0.0,0.0,0.0,0.0,0.0,0.0,0.0,0.0,0.0,0.0,0.0,0.0,0.0,0.0,0.0,0.0,0.0,0.0,0.0,0.0,0.0,0.0,0.0,0.0,0.0,0.0,0.0,0.0,0.0,0.0,0.0,0.0,0.0,0.0,0.0,0.0,0.0,0.0,0.0,0.0,0.0,0.0,0.0,0.0,0.0,0.0,0.0,0.0,0.0,0.0,0.0,0.0,0.0,0.0,0.0,0.0,0.0,0.0,0.0,0.0,0.0,0.0,0.0,0.0,0.0,0.0,0.0,0.0,0.0,0.0,0.0,0.0,0.0,0.0,0.0,0.0,0.0,0.0,0.0,0.0,0.0,0.0,0.0,0.0,0.0,0.0,0.0,0.0,0.0,0.0,0.0,0.0,0.0,0.0,0.0,0.0,0.0,0.0,0.0,0.0,0.0,0.0,0.0,0.0,0.0,0.0,0.0,0.0,0.0,0.0,0.0,0.0,0.0,0.0,0.0,0.0,0.0,0.0,0.0,0.0,0.0,0.0,0.0,0.0,0.0,0.0,0.0,0.0,0.0,0.0,0.0,0.0,0.0,0.0,0.0,0.0,0.0,0.0,0.0,0.0,0.0,0.0,0.0,0.0,0.0,0.0,0.0,0.0,0.0,0.0,0.0,0.0,0.0,0.0,0.0,0.0,0.0,0.0,0.0,0.0,0.0,0.0,0.0,0.0,0.0,0.0,0.0,0.0,0.0,0.0,0.0,0.0,0.0,0.0,0.0,0.0,0.0,0.0,0.0,0.0,0.0,0.0,0.0,0.0,0.0,0.0,0.0,0.0,0.0,0.0,0.0,0.0,0.0,0.0,0.0,0.0,0.0,0.0,0.0,0.0,0.0,0.0,0.0,0.0,0.0,0.0,0.0,0.0,0.0,0.0,0.0,0.0,0.0,0.0,0.0,0.0,0.0,0.0,0.0,0.0,0.0,0.0,0.0,0.0,0.0,0.0,0.0,0.0,0.0,0.0,0.0,0.0,0.0,0.0,0.0,0.0,0.0,0.0,0.0,0.0,0.0,0.0,0.0,0.0,0.0,0.0,0.0,0.0,0.0,0.0,0.0,0.0,0.0,0.0,0.0,0.0,0.0,0.0,0.0,0.0,0.0,0.0,0.0,0.0,0.0,0.0,0.0,0.0,0.0,0.0,0.0,0.0,0.0,0.0,0.0,0.0,0.0,0.0,0.0,0.0,0.0,0.0,0.0,0.0,0.0,0.0,0.0,0.0,0.0,0.0,0.0,0.0,0.0,0.0,0.0,0.0,0.0,0.0,0.0,0.0,0.0,0.0,0.0,0.0,0.0,0.0,0.0,0.0,0.0,0.0,0.0,0.0,0.0,0.0,0.0,0.0,0.0,0.0,0.0,0.0,0.0,0.0,0.0,0.0,0.0,0.0,0.0,0.0,0.0,0.0,0.0,0.0,0.0,0.0,0.0,0.0,0.0,0.0,0.0,0.0,0.0,0.0,0.0,0.0,0.0,0.0,0.0,0.0,0.0,0.0,0.0,0.0,0.0,0.0,0.0,0.0,0.0,0.0,0.0,0.0,0.0,0.0,0.0,0.0,0.0,0.0,0.0,0.0,0.0,0.0,0.0,0.0,0.0,0.0,0.0,0.0,0.0,0.0,0.0,0.0,0.0,0.0,0.0,0.0,0.0,0.0,0.0,0.0,0.0,0.0,0.0,0.0,0.0,0.0,0.0,0.0,0.0,0.0,0.0,0.0,0.0,0.0,0.0,0.0,0.0,0.0,0.0,0.0,0.0,0.0,0.0,0.0,0.0,0.0,0.0,0.0,0.0,0.0,0.0,0.0,0.0,0.0,0.0,0.0,0.0,0.0,0.0,0.0,0.0,0.0,0.0,0.0,0.0,0.0,0.0,0.0,0.0,0.0,0.0,0.0,0.0,0.0,0.0,0.0,0.0,0.0,0.0,0.0,0.0,0.0,0.0,0.0,0.0,0.0,0.0,0.0,0.0,0.0,0.0,0.0,0.0,0.0,0.0,0.0,0.0,0.0,0.0,0.0,0.0,0.0,0.0,0.0,0.0,0.0,0.0,0.0,0.0,0.0,0.0,0.0,0.0,0.0,0.0,0.0,0.0,0.0,0.0,0.0,0.0,0.0,0.0,0.0,0.0,0.0,0.0,0.0,0.0,0.0,0.0,0.0,0.0,0.0,0.0,0.0,0.0,0.0,0.0,0.0,0.0,0.0,0.0,0.0,0.0,0.0,0.0,0.0,0.0,0.0,0.0,0.0,0.0,0.0,0.0,0.0,0.0,0.0,0.0,0.0,0.0,0.0,0.0,0.0,0.0,0.0,0.0,0.0,0.0,0.0,0.0,0.0,0.0,0.0,0.0,0.0,0.0,0.0,0.0,0.0,0.0,0.0,0.0,0.0,0.0,0.0,0.0,0.0,0.0,0.0,0.0,0.0,0.0,0.0,0.0,0.0,0.0,0.0,0.0,0.0,0.0,0.0,0.0,0.0,0.0,0.0,0.0,0.0,0.0,0.0,0.0,0.0,0.0,0.0,0.0,0.0,0.0,0.0,0.0,0.0,0.0,0.0,0.0,0.0,0.0,0.0,0.0,0.0,0.0,0.0,0.0,0.0,0.0,0.0,0.0,0.0,0.0,0.0,0.0,0.0,0.0,0.0,0.0,0.0,0.0,0.0,0.0,0.0,0.0,0.0,0.0,0.0,0.0,0.0,0.0,0.0,0.0,0.0,0.0,0.0,0.0,0.0,0.0,0.0,0.0,0.0,0.0,0.0,0.0,0.0,0.0,0.0,0.0,0.0,0.0,0.0,0.0,0.0,0.0,0.0,0.0,0.0,0.0,0.0,0.0,0.0,0.0,0.0,0.0,0.0,0.0,0.0,0.0,0.0,0.0,0.0,0.0,0.0,0.0,0.0,0.0,0.0,0.0,0.0,0.0,0.0,0.0,0.0,0.0,0.0,0.0,0.0,0.0,0.0,0.0,0.0,0.0,0.0,0.0,0.0,0.0,0.0,0.0,0.0,0.0,0.0,0.0,0.0,0.0,0.0,0.0,0.0,0.0,0.0,0.0,0.0,0.0,0.0,0.0,0.0,0.0,0.0,0.0,0.0,0.0,0.0,0.0,0.0,0.0,0.0,0.0,0.0,0.0,0.0,0.0,0.0,0.0,0.0,0.0,0.0,0.0,0.0,0.0,0.0,0.0,0.0,0.0,0.0,0.0,0.0,0.0,0.0,0.0,0.0,0.0,0.0,0.0,0.0,0.0,0.0,0.0,0.0,0.0,0.0,0.0,0.0,0.0,0.0,0.0,0.0,0.0,0.0,0.0,0.0,0.0,0.0,0.0,0.0,0.0,0.0,0.0,0.0,0.0,0.0,0.0,0.0,0.0,0.0,0.0,0.0,0.0,0.0,0.0,0.0,0.0,0.0,0.0,0.0,0.0,0.0,0.0,0.0,0.0,0.0,0.0,0.0,0.0,0.0,0.0,0.0,0.0,0.0,0.0,0.0,0.0,0.0,0.0,0.0,0.0,0.0,0.0,0.0,0.0,0.0,0.0,0.0,0.0,0.0,0.0,0.0,0.0,0.0,0.0,0.0,0.0,0.0,0.0,0.0,0.0,0.0,0.0,0.0,0.0,0.0,0.0,0.0,0.0,0.0,0.0,0.0,0.0,0.0,0.0,0.0,0.0,0.0,0.0,0.0,0.0,0.0,0.0,0.0,0.0,0.0,0.0,0.0,0.0,0.0,0.0,0.0,0.0,0.0,0.0,0.0,0.0,0.0,0.0,0.0,0.0,0.0,0.0,0.0,0.0,0.0,0.0,0.0,0.0,0.0,0.0,0.0,0.0,0.0,0.0,0.0,0.0,0.0,0.0,0.0,0.0,-2.4279,0.0,0.0,0.0,0.0,0.0,0.0,0.0,0.0,0.0,0.0,0.0,0.0,0.0,0.0,0.0,0.0,0.0,0.0,0.0,0.0,0.0,0.0,0.0,0.0,-2.0586,-2.0541,-2.0589,-2.0585,-2.0586,-2.0586,-2.0586,-2.0586,-2.0586,-2.1836,-2.2539,-2.2539,-2.4209,-2.5046,-2.4985,-2.5024,-2.4788,-2.4375,-2.5273,-2.5469,-2.5078,0.0,0.0,0.0,0.0,0.0,0.0,0.0,0.0,0.0,0.0,0.0,0.0,0.0,0.0,0.0,0.0,0.0,0.0,0.0,0.0,0.0,0.0,0.0,0.0,0.0,0.0,0.0,0.0,0.0,0.0,0.0,0.0,0.0,0.0,0.0,0.0,0.0,0.0,0.0,0.0,0.0,0.0,0.0,0.0,0.0,0.0,0.0,0.0,0.0,0.0,0.0,0.0,0.0,0.0,0.0,0.0,0.0,0.0,0.0,0.0,0.0,0.0,0.0,0.0,0.0,0.0,0.0,0.0,0.0,0.0,0.0,-2.5065,0.0,0.0,0.0,0.0,0.0,0.0,0.0,0.0,0.0,0.0,0.0,0.0,0.0,0.0,0.0,0.0,0.0,0.0,0.0,0.0,0.0,-2.0586,-2.0586,-2.0703,-2.0781,-2.082,-2.0897,-2.0949,-2.082,-2.082,-2.082,-2.082,-2.1634,-2.2525,-2.3386,-2.4206,-2.488,-2.5428,-2.4591,-2.4237,-2.4401,-2.5272,-2.531,-2.4631,-2.5377,0.0,0.0,0.0,0.0,0.0,0.0,0.0,0.0,0.0,0.0,0.0,0.0,0.0,0.0,0.0,0.0,0.0,0.0,0.0,0.0,0.0,0.0,0.0,0.0,0.0,0.0,0.0,0.0,0.0,0.0,0.0,0.0,0.0,0.0,0.0,0.0,0.0,0.0,0.0,0.0,0.0,0.0,0.0,0.0,0.0,0.0,0.0,0.0,0.0,0.0,0.0,0.0,0.0,0.0,0.0,0.0,0.0,0.0,0.0,0.0,0.0,0.0,0.0,-3.3981,-3.3801,-3.3209,-3.243,-3.1361,-3.0067,-2.8917,-2.7182,-2.5269,0.0,0.0,0.0,0.0,0.0,0.0,0.0,0.0,0.0,0.0,0.0,0.0,0.0,0.0,0.0,0.0,0.0,0.0,0.0,0.0,-2.0547,-2.0586,-2.1289,-2.1719,-2.1719,-2.242,-2.2536,-2.1797,-2.1719,-2.1719,-2.1719,-2.2516,-2.3309,-2.4135,-2.5048,-2.5176,-2.4389,-2.364,-2.364,-2.4345,-2.5244,-2.5609,-2.5437,-2.5562,-2.6057,-2.6797,0.0,0.0,0.0,0.0,0.0,0.0,0.0,0.0,0.0,0.0,0.0,0.0,0.0,0.0,0.0,0.0,0.0,0.0,0.0,0.0,0.0,0.0,0.0,0.0,0.0,0.0,0.0,0.0,0.0,0.0,0.0,0.0,0.0,0.0,0.0,0.0,0.0,0.0,0.0,0.0,0.0,-2.2682,-2.42,0.0,0.0,0.0,0.0,0.0,0.0,0.0,0.0,0.0,0.0,0.0,0.0,0.0,-2.9259,-2.791,-3.0283,-3.2796,-3.525,-3.527,-3.4639,-3.3449,-3.4505,-3.3819,-3.1928,-3.1577,0.0,-2.6872,-2.5634,0.0,0.0,0.0,0.0,0.0,0.0,0.0,0.0,0.0,0.0,0.0,0.0,0.0,0.0,0.0,0.0,0.0,0.0,0.0,0.0,0.0,-2.1211,-2.1367,-2.1875,-2.2266,-2.2305,-2.1914,-2.2305,-2.2578,-2.2617,-2.3403,-2.3979,-2.4361,-2.4755,-2.4532,-2.3629,-2.4257,-2.4762,-2.512,-2.6016,-2.6649,-2.7048,-2.7017,-2.6957,-2.6845,-2.5966,0.0,0.0,0.0,0.0,0.0,0.0,0.0,0.0,0.0,0.0,0.0,0.0,0.0,0.0,0.0,0.0,0.0,0.0,0.0,0.0,0.0,0.0,0.0,0.0,0.0,0.0,0.0,0.0,0.0,0.0,0.0,0.0,0.0,0.0,0.0,0.0,0.0,0.0,0.0,-2.4468,-2.5243,-2.5294,-2.5831,-2.686,0.0,0.0,0.0,0.0,0.0,0.0,0.0,0.0,0.0,-3.2819,-3.2091,-3.1091,-2.9804,-3.1689,-3.4352,-3.7704,-3.7704,-3.7404,-3.6866,-3.8212,-3.7535,-3.5401,-3.4108,-3.2842,-3.1612,-2.9139,-2.7429,-2.6134,0.0,0.0,0.0,0.0,-2.3203,-2.3488,0.0,0.0,0.0,0.0,0.0,0.0,0.0,0.0,0.0,0.0,0.0,0.0,-2.1445,-2.1172,-2.1289,-2.2148,-2.2422,-2.2539,-2.2539,-2.2891,-2.3203,-2.3516,-2.4062,-2.4508,-2.4701,-2.4503,-2.4303,-2.418,-2.5195,-2.5913,-2.6396,-2.7479,-2.8306,-2.8818,-2.901,-2.8445,-2.7374,-2.632,-2.6039,-2.6205,0.0,0.0,0.0,0.0,0.0,0.0,0.0,0.0,0.0,0.0,0.0,0.0,0.0,0.0,0.0,0.0,0.0,0.0,0.0,0.0,0.0,0.0,0.0,0.0,0.0,0.0,0.0,0.0,0.0,0.0,0.0,0.0,0.0,0.0,0.0,0.0,0.0,-2.5906,-2.7028,-2.6113,-2.6926,-2.8247,0.0,0.0,0.0,0.0,0.0,0.0,-3.3274,-3.4567,-3.532,-3.545,-3.4849,-3.4203,-3.3544,-3.519,-3.7494,-4.0427,-4.0427,-4.0427,-4.0382,-4.0197,-3.917,-3.7424,-3.5827,-3.5303,-3.5328,-3.2641,-3.0059,-2.7787,-2.7268,-2.6635,-2.5936,-2.5564,-2.5814,-2.6039,0.0,0.0,0.0,0.0,0.0,0.0,0.0,0.0,0.0,0.0,0.0,-1.9528,-2.0468,-2.1328,-2.2187,-2.3047,-2.3828,-2.4258,-2.4258,-2.3555,-2.3477,-2.4297,-2.4375,-2.4766,-2.5507,-2.4736,-2.513,-2.6797,-2.6055,-2.6562,-2.8202,-2.9922,-3.0604,-3.0528,-3.1356,-3.0775,-2.9049,-2.7374,-2.7164,-2.7887,-2.7079,0.0,0.0,0.0,0.0,0.0,0.0,0.0,0.0,0.0,0.0,0.0,0.0,0.0,0.0,0.0,0.0,0.0,0.0,0.0,0.0,0.0,0.0,0.0,0.0,0.0,0.0,0.0,0.0,0.0,0.0,0.0,0.0,0.0,0.0,0.0,0.0,0.0,0.0,-2.6014,-2.8321,0.0,0.0,0.0,0.0,-3.322,-3.5271,-3.6274,-3.5761,-3.689,-3.7561,-3.7561,-3.8546,-3.908,-3.902,-4.1564,-4.294,-4.312,-4.312,-4.312,-4.2962,-3.8604,-3.6633,-3.6445,-3.6377,-3.6282,-3.6182,-3.4625,-3.2893,-3.0948,-2.9003,-2.8195,-2.7965,-2.6655,-2.6393,-2.6676,0.0,0.0,0.0,-1.6836,-1.6912,-1.7418,-1.893,-1.8864,-1.9042,-2.0196,-1.9656,-1.992,-2.1952,-2.1523,-2.1836,-2.3789,-2.3711,-2.3594,-2.3633,-2.3828,-2.4062,-2.4375,-2.4922,-2.5117,-2.4844,-2.5603,-2.6071,-2.6172,-2.6992,-2.8281,-3.0,-3.0625,-3.1387,-3.2305,-3.259,-3.2314,-3.148,-2.9259,-2.8213,-2.7962,-2.7116,-2.6304,0.0,0.0,0.0,0.0,0.0,0.0,0.0,0.0,0.0,0.0,0.0,0.0,0.0,0.0,0.0,0.0,0.0,0.0,0.0,0.0,0.0,0.0,0.0,0.0,0.0,0.0,0.0,0.0,0.0,0.0,0.0,0.0,0.0,0.0,0.0,0.0,0.0,-2.9955,-3.2144,0.0,-3.366,-3.437,-3.4844,-3.4844,-3.6956,-3.8053,-3.7735,-3.9418,-4.0538,-4.0739,-4.0958,-4.1354,-4.1923,-4.2851,-4.3329,-4.325,-4.029,-4.0462,-4.317,-3.8559,-3.6358,-3.6358,-3.6358,-3.6358,-3.6307,-3.5805,-3.4901,-3.3721,-3.1655,-3.1042,-3.124,-3.0,-3.0056,-3.0652,0.0,-1.6937,0.0,-1.7389,-1.721,-1.7343,-1.8538,-1.8685,-1.8962,-1.9851,-1.9519,-1.9973,-2.1987,-2.1518,-2.1953,-2.4219,-2.3633,-2.3398,-2.3984,-2.4023,-2.4258,-2.4805,-2.5391,-2.5586,-2.5273,-2.6406,-2.6992,-2.7031,-2.8476,-2.9922,-3.1367,-3.188,-3.2834,-3.4054,-3.4338,-3.4505,-3.4507,-3.2545,-3.076,-2.9165,-2.8037,-2.7445,-2.7166,0.0,0.0,0.0,0.0,0.0,0.0,0.0,0.0,0.0,0.0,0.0,0.0,0.0,0.0,0.0,0.0,0.0,0.0,0.0,0.0,0.0,0.0,0.0,0.0,0.0,0.0,0.0,0.0,0.0,0.0,0.0,0.0,0.0,0.0,0.0,-3.2119,-3.3634,-3.5318,-3.6502,-3.6738,-3.7212,-3.7516,-3.7516,-3.9564,-4.0767,-4.0582,-4.1821,-4.2673,-4.2953,-4.2561,-4.2761,-4.3329,-4.3329,-4.3329,-4.325,-3.942,-3.8738,-4.0887,-3.7769,-3.6358,-3.6358,-3.6358,-3.6358,-3.6358,-3.6358,-3.6081,-3.5479,-3.3947,-3.347,-3.352,-3.2591,-3.2717,-3.3183,0.0,-1.7262,-1.6708,-1.6881,-1.608,-1.5932,-1.7562,-1.7838,-1.8158,-1.9001,-1.9168,-1.9527,-2.0427,-2.1318,-2.2539,-2.4258,-2.3594,-2.3828,-2.5508,-2.4062,-2.3906,-2.5625,-2.5703,-2.6094,-2.6992,-2.707,-2.7969,-2.9648,-3.0547,-3.1406,-3.2303,-3.3897,-3.5017,-3.5779,-3.6588,-3.7339,-3.793,-3.7084,-3.4891,-3.1737,-2.9929,-2.9721,-3.0216,0.0,0.0,0.0,0.0,0.0,0.0,0.0,0.0,0.0,0.0,0.0,0.0,0.0,0.0,0.0,0.0,0.0,0.0,0.0,0.0,0.0,0.0,0.0,0.0,0.0,0.0,0.0,0.0,0.0,0.0,0.0,0.0,0.0,-2.9488,-3.1871,-3.4336,-3.6569,-3.755,-3.8328,-3.9039,-4.0426,-4.1305,-4.1253,-4.3182,-4.4319,-4.4256,-4.3965,-4.3769,-4.3738,-4.3472,-4.3329,-4.3329,-4.3329,-4.325,-4.317,-4.0916,-3.8675,-3.6358,-3.6358,-3.6358,-3.6358,-3.6358,-3.6358,-3.6358,-3.6358,-3.6358,-3.6307,-3.5755,-3.5228,-3.4675,-3.4098,-3.3872,-3.3709,-1.9088,-1.8474,-1.7483,-1.7465,-1.7234,-1.7202,-1.7716,-1.8385,-1.8876,-1.9059,-1.9204,-1.9814,-2.129,-2.1162,-2.1875,-2.4219,-2.25,-2.2031,-2.3711,-2.2852,-2.3281,-2.5586,-2.5703,-2.6094,-2.6992,-2.8867,-3.0078,-3.0547,-3.1992,-3.3126,-3.3945,-3.5045,-3.5902,-3.6614,-3.742,-3.7839,-3.7969,-3.7738,-3.7123,-3.6007,-3.3045,-3.1311,-3.0353,0.0,0.0,0.0,0.0,0.0,0.0,0.0,0.0,0.0,0.0,0.0,0.0,0.0,0.0,0.0,0.0,0.0,0.0,0.0,0.0,0.0,0.0,0.0,0.0,0.0,0.0,0.0,0.0,0.0,0.0,0.0,-3.0788,-3.189,-3.1589,-3.4016,-3.6468,-3.8193,-3.9986,-4.117,-4.1373,-4.276,-4.3384,-4.2659,-4.4636,-4.5342,-4.3983,-4.4257,-4.4202,-4.3486,-4.3337,-4.3329,-4.3329,-4.3329,-4.2467,-4.0831,-3.9596,-3.8107,-3.6358,-3.6358,-3.6358,-3.6358,-3.6358,-3.6358,-3.6358,-3.6358,-3.6358,-3.6307,-3.5755,-3.5454,-3.5203,-3.4248,-3.3069,-3.1793,-1.9942,-1.8919,-1.7759,-1.7696,-1.7119,-1.6779,-1.7183,-1.8059,-1.8533,-1.8159,-1.8808,-1.9681,-2.0651,-2.0334,-2.0937,-2.3164,-2.1992,-2.1719,-2.3008,-2.3359,-2.4141,-2.5625,-2.6055,-2.6992,-2.8594,-3.0117,-3.125,-3.1953,-3.3275,-3.4339,-3.5153,-3.5959,-3.7102,-3.8477,-3.8569,-3.8969,-3.9585,-3.92,-3.9046,-3.8854,-3.6507,-3.4802,-3.3441,-3.1506,-3.0609,-3.0298,-2.9259,-2.9264,-2.9512,-2.7923,0.0,0.0,0.0,0.0,0.0,0.0,0.0,0.0,0.0,0.0,0.0,0.0,0.0,0.0,0.0,0.0,0.0,0.0,0.0,0.0,0.0,0.0,0.0,0.0,-3.3216,-3.5115,-3.5893,-3.7516,-3.9174,-4.0663,-4.2557,-4.3707,-4.3707,-4.5094,-4.5555,-4.4607,-4.5669,-4.5736,-4.4223,-4.4143,-4.3927,-4.3329,-4.3329,-4.3329,-4.3329,-4.3329,-4.2304,-4.0318,-3.9244,-3.8107,-3.7057,-3.6615,-3.6358,0.0,-3.6358,-3.5763,-3.4751,-3.5953,-3.6073,0.0,0.0,0.0,0.0,0.0,-3.1683,-3.0305,-1.9696,-1.8696,-1.7542,-1.7542,-1.6234,-1.5509,-1.638,-1.7292,-1.7611,-1.6791,-1.8203,-1.9258,-1.9141,-1.9141,-1.9805,-2.1445,-2.1602,-2.2031,-2.3047,-2.4648,-2.5664,-2.5977,-2.6836,-2.8476,-3.0976,-3.1211,-3.2109,-3.3672,-3.4497,-3.5321,-3.6197,-3.6848,-3.8439,-4.0668,-3.9931,-4.0392,-4.1777,-4.1085,-4.0662,-4.0431,-3.9815,-3.8931,-3.7661,-3.4507,-3.416,-3.5084,-3.2776,-3.1621,-3.0879,-2.9219,0.0,0.0,0.0,0.0,0.0,0.0,0.0,0.0,0.0,0.0,0.0,0.0,0.0,0.0,0.0,0.0,0.0,0.0,0.0,0.0,0.0,0.0,0.0,0.0,-3.5723,-3.8193,-4.117,-4.1745,-4.2252,-4.3403,-4.4891,-4.5805,-4.5703,-4.7056,-4.744,-4.6388,-4.6273,-4.5778,-4.4662,0.0,0.0,0.0,0.0,-4.325,-4.3061,-4.3061,-4.2193,-4.0462,-3.9244,-3.8379,-3.7861,-3.6896,-3.6358,-3.6358,-3.6358,-3.5041,-3.2932,-3.5041,-3.5259,-3.4459,-3.5784,-3.5448,-3.3929,-3.1581,-3.0158,-2.9418,-1.735,-1.7426,-1.6734,-1.6734,-1.5888,-1.5503,-1.6356,-1.7247,-1.7534,-1.6723,-1.8154,-1.8984,-1.832,-1.8242,-1.8672,-1.9727,-1.9805,-2.0742,-2.2969,-2.4062,-2.5586,-2.7695,-2.8633,-3.0,-3.1914,-3.3281,-3.4453,-3.5508,-3.626,-3.7026,-3.7839,-3.8569,-3.9492,-4.0546,-4.1085,-4.1508,-4.1854,-4.2354,-4.1777,-4.0546,-4.1085,-3.9969,-3.7853,-3.6469,-3.5315,-3.4391,-3.3891,-3.4558,-3.5277,-3.2976,-3.3056,-3.3631,-3.0794,-2.8945,0.0,0.0,0.0,0.0,0.0,0.0,0.0,0.0,0.0,0.0,0.0,0.0,0.0,0.0,0.0,0.0,0.0,0.0,0.0,-3.6535,-3.8396,-4.0527,-4.3504,-4.4959,-4.5365,-4.4451,-4.5669,-4.6346,-4.5771,-4.7056,-4.722,-4.5491,-4.5859,-4.5488,-4.3693,-4.3409,-4.3329,-4.3329,-4.3329,-4.271,-4.1504,-4.1753,-4.0376,-3.7335,0.0,0.0,-3.6709,-3.6546,-3.6358,-3.6358,-3.6358,-3.6048,-3.5451,-3.3749,-3.3353,-3.3997,-3.5095,-3.4499,-3.2672,-3.0532,-2.9575,-2.9304,-1.5965,-1.6465,-1.6503,-1.6503,-1.5772,-1.5349,-1.5772,-1.6978,-1.7504,-1.6728,-1.8135,-1.9062,-1.8672,-1.8242,-1.8359,-1.9219,-1.9687,-2.1016,-2.3594,-2.457,-2.582,-2.7578,-2.9336,-3.1055,-3.2773,-3.4492,-3.5723,-3.655,-3.7316,-3.8338,-3.9492,-3.9415,-4.0431,-4.2393,-4.197,-4.2047,-4.247,-4.2931,-4.2085,-4.0585,-4.147,-4.0777,-3.92,-3.8777,-3.8084,-3.7276,-3.6944,-3.6829,-3.6675,-3.5072,-3.4584,-3.4248,-3.2199,-3.0664,-2.9336,0.0,0.0,0.0,0.0,0.0,0.0,0.0,0.0,0.0,0.0,0.0,0.0,0.0,0.0,-3.1557,-3.2477,0.0,-3.64,-3.8667,-4.0899,-4.3132,-4.5365,-4.6346,-4.638,-4.5263,-4.6447,-4.7056,-4.6312,-4.6864,-4.6748,-4.5699,-4.5588,-4.4856,-4.3409,-4.3329,-4.3329,-4.3329,-4.2739,-4.2111,-4.1337,-4.0547,-3.9156,-3.7243,-3.7243,-3.6989,-3.6358,-3.6358,-3.6358,-3.6358,-3.6358,-3.6358,-3.6168,-3.3429,-3.3429,-3.5114,-3.565,-3.4006,-3.1105,-2.9444,-2.8655,-2.8342,-1.5146,-1.5741,-1.6215,-1.6234,-1.5645,-1.5216,-1.542,-1.6785,-1.7549,-1.6945,-1.8218,-1.9139,-1.9062,-1.8437,-1.8477,-1.9687,-2.0156,-2.1562,-2.4453,-2.5312,-2.625,-2.7461,-3.0,-3.2187,-3.3867,-3.5417,-3.665,-3.7609,-3.8396,-3.9518,-4.0938,-4.0354,-4.1546,-4.4239,-4.2893,-4.2701,-4.3316,-4.3316,-4.2316,-4.0816,-4.1546,-4.1316,-4.0508,-4.0392,-4.0392,-4.0446,-3.9523,-3.8223,-3.6825,-3.594,-3.4723,-3.3455,-3.2682,-3.1953,-3.1016,-2.9101,-2.8433,0.0,0.0,0.0,0.0,0.0,0.0,0.0,0.0,-3.019,-3.0828,-3.2133,-3.2883,-3.3706,-3.5069,-3.6981,-3.887,-4.0493,-4.2794,-4.4891,-4.638,-4.6583,-4.638,-4.5771,-4.6887,-4.7402,-4.6582,-4.6504,-4.6354,-4.5929,-4.5227,-4.4358,-4.3329,-4.3061,-4.2981,-4.2981,-4.1864,-4.1169,-4.0887,-3.9332,-3.8289,-3.7769,-3.6803,-3.6358,-3.6358,-3.6358,-3.6358,-3.6358,-3.6358,-3.6358,-3.6263,-3.4044,-3.4044,-3.5547,-3.5041,-3.2787,-2.9614,-2.8615,-2.7988,-2.7519,-1.4955,-1.5057,-1.5228,-1.5337,-1.5171,-1.5304,-1.6228,-1.7125,-1.7702,-1.7741,-1.8538,-1.8868,-1.8203,-1.8047,-1.8984,-2.1406,-2.0273,-2.1172,-2.5273,-2.5664,-2.6797,-2.9219,-3.1758,-3.3945,-3.5664,-3.6521,-3.7791,-3.94,-4.01,-4.0908,-4.1854,-4.2431,-4.3278,-4.4278,-4.4085,-4.4085,-4.4162,-4.4162,-4.3201,-4.1662,-4.1893,-4.147,-4.06,-3.9954,-4.0123,-4.0469,-3.8977,-3.7817,-3.6826,-3.5285,-3.4671,-3.4371,-3.3554,-3.3203,-3.2656,-3.0195,-2.8895,-2.8065,-2.7028,-2.6792,-2.7149,-2.8402,-2.926,-3.0435,0.0,-3.42,-3.4666,-3.4494,-3.5616,-3.6751,-3.7445,-3.8831,-4.0527,-4.2692,-4.3335,-4.4079,-4.5602,-4.5838,-4.5805,-4.5703,-4.6413,-4.6555,-4.5653,-4.6123,-4.6086,-4.5048,-4.4887,-4.4358,-4.3329,-4.2386,-4.1753,-4.1753,-4.0661,-3.9623,-3.8469,-3.8289,-3.7678,-3.664,-3.6452,-3.6358,-3.6358,-3.6358,-3.6358,-3.6358,-3.6358,-3.6358,-3.6358,-3.6048,-3.463,-3.2532,-3.012,-2.8966,-2.8502,-2.8368,-2.8262,-2.8184,-1.4913,-1.4857,-1.4863,-1.5061,-1.5475,-1.5902,-1.6413,-1.7227,-1.7965,-1.857,-1.895,-1.926,-1.9491,-1.9492,-2.0352,-2.2461,-2.1055,-2.1641,-2.5469,-2.5703,-2.6875,-2.9492,-3.2031,-3.4219,-3.5976,-3.721,-3.8447,-3.9646,-4.0338,-4.1123,-4.1893,-4.1662,-4.2547,-4.4239,-4.3278,-4.3162,-4.3662,-4.3662,-4.2701,-4.1277,-4.1838,-4.1244,-3.9979,-3.922,-3.8485,-3.7817,-3.7133,-3.6029,0.0,-3.4115,-3.3594,-3.3164,-3.2812,-3.236,-3.1532,-2.9413,-2.8874,-2.8883,-2.8384,-2.8811,-2.9665,-3.0662,-3.2052,-3.3499,-3.4829,-3.5659,-3.6245,-3.668,-3.7386,-3.8408,-4.004,-4.0882,-4.1813,0.0,-4.4181,-4.4788,-4.495,-4.5009,-4.4707,-4.3718,-4.3588,-4.3872,-4.4735,-4.4526,-4.4306,-4.4204,-4.4067,-4.3427,-4.2356,-4.1864,-4.1337,-4.0661,-3.9448,-3.8649,-3.8107,-3.7402,-3.6896,-3.6358,-3.6358,-3.5978,-3.5259,-3.4534,-3.3254,-3.1825,-3.5041,-3.6358,-3.6358,-3.6358,-3.3848,-2.9807,-2.8688,-2.8301,-2.8301,-2.8301,-2.8301,-2.8301,-1.4804,-1.4785,-1.4794,-1.4965,-1.5697,-1.6437,-1.6759,-1.7381,-1.8216,-1.9374,-1.954,-1.9817,-2.0506,-2.0586,-2.1211,-2.2695,-2.168,-2.2109,-2.4844,-2.543,-2.6641,-2.8789,-3.1328,-3.3633,-3.5586,-3.6975,-3.8309,-3.9608,-4.0315,-4.1046,-4.1777,-4.1393,-4.2316,-4.4278,-4.2854,-4.2739,-4.3602,-4.3119,-4.2237,-4.1156,-4.1347,-4.0563,-3.9131,-3.7858,-3.6351,-3.4864,-3.4866,-3.3754,-3.2251,-3.2048,-3.1597,-3.1148,-3.1382,-3.1209,-3.0579,-2.9012,-2.8965,-2.9421,-2.9436,-3.0517,-3.1879,-3.2676,-3.4517,-3.6229,-3.6608,-3.7344,-3.8115,-3.8813,-3.9051,-3.9709,-4.1498,-4.1921,-4.2286,-4.3267,-4.435,-4.474,-4.3965,-4.3889,-4.334,-4.1719,-4.0938,-4.1119,-4.2678,-4.2406,-4.2499,-4.3328,-4.2887,-4.2262,-4.167,-4.0972,-4.029,-3.9448,-3.8198,-3.7586,-3.7586,-3.6803,-3.6358,-3.6358,-3.6073,-3.5571,-3.4945,-3.3433,-3.1074,-2.8601,-3.4044,-3.6358,-3.6358,-3.6358,-3.3231,-2.8301,-2.8301,-2.8301,-2.8301,-2.8301,-2.8301,-2.8262,0.0,-1.4726,-1.4895,-1.4904,-1.5687,-1.659,-1.7535,-1.7748,-1.8434,-2.0141,-2.0424,-2.0487,-2.0584,-2.0586,-2.0977,-2.1875,-2.1875,-2.2266,-2.3203,-2.4805,-2.6094,-2.7031,-2.957,-3.2148,-3.4687,-3.5407,-3.7036,-3.9608,-4.02,-4.0931,-4.1816,-4.2624,-4.3564,-4.4449,-4.3547,-4.3717,-4.4537,-4.2865,-4.2101,-4.1927,-4.037,-3.9246,-3.8155,-3.5745,-3.3754,-3.2321,-3.2327,-3.1171,-2.957,-2.875,-2.845,-2.8531,-2.9323,-3.0144,-3.0598,-2.9641,-2.93,-2.9321,-2.9829,-3.1138,-3.2618,-3.3776,-3.591,-3.794,-3.8717,-4.0095,-4.116,-4.0882,-4.0816,-4.0905,-4.1189,-4.1238,-4.1711,-4.3166,-4.347,-4.3194,-4.2502,-4.2352,-4.1822,-4.024,-3.9283,-3.8805,0.0,-4.0013,-4.1269,-4.2346,-4.1339,-4.0953,-4.1558,-3.942,-3.8198,-3.8198,-3.7057,-3.6452,-3.6452,-3.6452,-3.6358,-3.6358,-3.5066,-3.5066,-3.6282,-3.4123,-3.1366,-2.8601,-3.4044,-3.6358,-3.6358,-3.6358,-3.3231,-2.8301,-2.8301,-2.8301,-2.8301,-2.8301,-2.8301,-2.8184,0.0,0.0,-1.4705,-1.4877,-1.5165,-1.5902,-1.7444,-1.779,-1.8268,-1.9433,-2.0182,0.0,0.0,0.0,0.0,0.0,-2.1367,-2.1875,-2.3867,-2.4531,-2.5469,-2.6953,-2.8945,-3.0976,-3.3008,-3.3743,-3.512,-3.7161,-3.7847,-3.8331,-3.8639,-3.95,-4.0361,-4.1162,-4.0307,-4.0488,-4.1311,-4.0135,-3.9694,-3.9624,-3.7951,-3.6718,-3.566,-3.3156,-3.112,-2.9528,0.0,-2.8359,-2.7733,-2.6817,-2.6505,-2.6564,-2.6752,-2.7055,-2.7451,-2.8222,-2.9037,-2.9961,-3.1227,-3.3333,-3.5549,-3.6976,-3.8389,-3.9657,-4.0613,-4.0954,-4.0796,-3.9877,-3.9242,-3.8908,-3.902,-3.9005,-3.9478,-4.0967,-4.2016,-4.2189,-4.0918,-4.1579,-4.1059,-3.8021,-3.7867,0.0,0.0,0.0,0.0,-3.9857,-3.9373,-3.9061,-3.9278,-3.8559,-3.7769,-3.6964,-3.664,-3.6358,-3.6358,-3.6358,-3.6358,-3.6358,-3.3552,-3.365,-3.6307,-3.3922,-3.2298,-3.1693,-3.4932,-3.6358,-3.6358,-3.6358,-3.3231,-2.8301,-2.8301,-2.8301,-2.8301,-2.8301,-2.8301,-2.8203,0.0,0.0,0.0,-1.4877,-1.4971,0.0,0.0,0.0,0.0,0.0,0.0,0.0,0.0,0.0,0.0,0.0,0.0,-2.1641,-2.2969,-2.3906,-2.4883,-2.6016,-2.7734,-2.9492,-3.1211,-3.168,-3.2745,-3.4525,-3.4974,-3.5316,-3.5612,-3.6177,-3.6895,-3.7683,-3.6829,-3.6993,-3.7793,-3.6949,-3.6434,-3.6166,-3.5078,-3.3906,-3.2617,-3.0703,-2.9062,0.0,-2.6836,-2.6514,-2.6416,-2.5807,-2.5582,-2.5534,-2.5483,-2.5829,-2.6588,-2.849,-3.0038,-3.1596,-3.375,-3.5925,-3.7948,-3.9491,-4.031,-4.0895,-4.1392,-4.0951,-4.0043,-3.854,-3.7618,-3.7009,-3.6738,-3.6265,-3.6591,-3.8622,-3.9461,-3.9752,-3.9176,-3.9962,-3.9658,-3.7134,-3.7031,-3.694,0.0,0.0,0.0,-3.8256,-3.7838,-3.7655,-3.7828,-3.7665,-3.715,-3.6452,-3.6358,-3.6358,-3.6358,-3.6358,-3.6048,-3.5451,-3.3726,-3.3429,-3.4412,-3.3552,-3.3308,-3.352,-3.4675,-3.4916,-3.4413,-3.3781,-3.1287,-2.8008,-2.8203,-2.8301,-2.8301,-2.8301,-2.8301,-2.8223,0.0,0.0,0.0,0.0,0.0,0.0,0.0,0.0,0.0,0.0,0.0,0.0,0.0,0.0,0.0,0.0,0.0,0.0,-2.0703,-2.293,-2.4258,-2.4258,-2.5898,-2.7578,-2.9219,-2.9219,-3.0039,-3.1679,-3.175,-3.2137,-3.2842,-3.2919,-3.3418,-3.42,-3.338,-3.3476,-3.4184,-3.3428,-3.2645,-3.1945,-3.1986,-3.0976,-2.9336,-2.8476,-2.7656,-2.6836,-2.5976,-2.5658,-2.5582,-2.5582,-2.5582,-2.5534,-2.5523,-2.6477,-2.8061,-3.0356,-3.2202,-3.4111,-3.7091,-3.867,-3.9792,-4.1106,-4.1614,-4.156,-4.0943,-4.0181,-3.9077,-3.7034,-3.5994,-3.5104,-3.4361,-3.3152,-3.3177,-3.6109,-3.6057,-3.6108,-3.7498,-3.7778,-3.7738,0.0,0.0,0.0,0.0,0.0,0.0,-3.7558,0.0,-3.6455,-3.7174,-3.6683,-3.6358,-3.6358,-3.6358,-3.6358,-3.6358,-3.6358,-3.5547,-3.3848,-3.5426,-3.4509,-3.1374,-3.3215,-3.4198,-3.4173,-3.3308,-3.2136,-3.0718,-2.8857,-2.7891,-2.7519,-2.8086,-2.8301,-2.8301,-2.8301,-2.8301,-2.8242,0.0,0.0,0.0,0.0,0.0,0.0,0.0,0.0,0.0,0.0,0.0,0.0,0.0,0.0,0.0,0.0,0.0,0.0,-2.1523,-2.2187,-2.2539,-2.2539,-2.3555,-2.4297,-2.4766,-2.6016,-2.6822,-2.7212,-2.918,-2.9858,-2.9406,-3.0694,-3.1083,-3.0684,-3.0472,-3.0503,-3.069,-3.0459,-3.0646,-3.0901,-2.9641,-2.8879,-2.831,-2.6825,-2.6119,-2.5874,-2.5693,-2.5528,-2.5466,-2.5505,-2.5768,-2.6098,-2.6598,-2.7818,-2.9547,-3.1956,-3.4113,-3.6159,-3.8382,-3.9935,-4.1033,-4.1573,-4.1419,-4.0804,-3.9624,-3.841,-3.6966,-3.4772,-3.3259,-3.1948,-3.0849,-3.0726,-3.144,-3.3323,-3.4807,0.0,-3.7437,-3.8521,0.0,-3.7571,0.0,-3.8085,-3.6618,-3.648,0.0,0.0,-3.5003,-3.5124,-3.6523,-3.6471,-3.6358,-3.6358,-3.6358,-3.6358,-3.6358,-3.6358,-3.6143,-3.5642,-3.4222,-3.4031,-3.4993,-3.3666,-3.3766,-3.4901,-3.2309,-3.0359,-2.8877,-2.712,-2.7051,-2.8086,-2.8242,-2.8301,-2.8301,-2.8301,-2.8301,-2.8281,0.0,0.0,0.0,0.0,0.0,0.0,0.0,0.0,0.0,0.0,0.0,0.0,0.0,0.0,0.0,0.0,0.0,0.0,0.0,-2.168,-2.1914,-2.1914,-2.2656,-2.3125,-2.3125,-2.4102,-2.4581,-2.4501,-2.5953,-2.642,-2.5881,-2.6864,-2.7032,-2.6539,-2.6552,-2.6524,-2.6496,-2.6525,-2.6605,0.0,0.0,-2.618,-2.579,-2.5621,-2.5511,-2.5512,-2.5558,-2.5416,-2.5378,-2.6034,-2.6708,-2.7523,-2.88,-3.0278,-3.203,-3.4437,-3.6279,-3.8016,-3.9795,-4.0699,-4.1209,-4.1367,-4.0967,-4.0103,-3.8303,-3.7089,-3.5363,-3.2193,-3.0818,-2.9656,-2.7765,-2.7679,-2.8543,-3.0482,-3.1962,0.0,-3.5921,-3.7449,-3.8196,0.0,-3.8127,0.0,-3.6985,-3.6603,-3.6156,0.0,-3.4869,-3.5027,-3.5956,-3.6232,-3.6358,-3.6358,-3.6358,-3.6358,-3.6358,-3.6132,-3.6132,-3.6358,-3.4695,-3.4744,-3.6332,-3.4588,-3.4385,-3.5177,0.0,-3.0396,-2.8147,-2.6409,-2.6445,-2.7578,-2.8086,-2.8301,-2.8301,-2.8301,-2.8301,-2.8301,0.0,0.0,0.0,0.0,0.0,0.0,0.0,0.0,0.0,-2.0326,-2.0381,-2.0389,0.0,0.0,0.0,0.0,0.0,0.0,0.0,0.0,-2.1719,-2.1719,-2.25,-2.2891,-2.2852,-2.3086,-2.3064,-2.2752,-2.2987,-2.2978,-2.2821,-2.2936,-2.2859,-2.2714,-2.2714,-2.2675,-2.262,-2.2679,-2.2295,-2.1812,-2.3554,-2.3784,-2.3256,0.0,-2.5476,-2.5485,-2.5464,-2.5313,-2.5348,-2.6978,-2.8088,-2.9125,-3.1309,-3.3178,-3.5018,-3.7308,-3.8627,-3.9626,-4.1173,-4.1301,-4.1012,-4.0965,-4.0466,-3.9343,-3.7017,-3.5678,-3.3685,-2.9559,-2.8581,-2.7698,-2.5174,-2.4832,-2.5657,-2.7984,-2.8866,-3.0479,-3.4115,-3.5544,-3.6701,-3.8002,-3.7288,-3.6759,-3.6988,-3.6186,-3.5713,-3.5672,-3.5655,-3.5655,-3.5655,-3.6107,-3.6358,-3.6358,-3.6358,-3.6358,-3.6358,-3.5881,-3.5855,-3.6232,-3.578,-3.578,-3.6182,-3.5554,-3.5328,-3.5328,0.0,0.0,-2.8559,-2.6557,-2.6152,-2.6875,-2.7773,-2.8203,-2.8301,-2.8301,-2.8301,-2.8301,0.0,0.0,0.0,0.0,0.0,0.0,0.0,0.0,0.0,0.0,-2.0216,-2.0312,0.0,0.0,0.0,0.0,0.0,0.0,0.0,0.0,0.0,-2.082,-2.1641,-2.1797,-2.1055,-2.2461,-2.246,-2.0967,-2.2344,-2.2601,-2.1845,-2.2513,-2.2427,-2.1735,-2.1735,-2.1735,-2.1735,-2.1727,-2.2081,-2.2658,-2.3697,-2.4043,-2.4005,-2.5043,0.0,0.0,-2.5322,-2.522,-2.5438,-2.8244,-2.9195,-2.9692,-3.2527,-3.5027,-3.7353,-3.9753,-4.0739,-4.1245,-4.2305,-4.2261,-4.1781,-4.1273,-4.0188,-3.8468,-3.5656,-3.2947,-3.0325,-2.7722,-2.6294,-2.5102,-2.3668,-2.4435,-2.5846,-2.7497,-2.8733,-3.0904,-3.4771,-3.4773,-3.5085,0.0,-3.6694,-3.6491,-3.6444,-3.6743,0.0,0.0,0.0,-3.6207,-3.6207,-3.6307,-3.6358,-3.6358,-3.6358,-3.6358,-3.6358,-3.6282,-3.6031,-3.568,-3.5579,-3.5504,-3.5454,-3.5328,-3.5604,-3.6157,-3.5906,0.0,-3.1307,-2.7354,-2.6621,-2.7949,-2.7441,-2.7676,-2.8301,-2.8301,-2.8301,-2.8301,0.0,0.0,0.0,0.0,0.0,0.0,-1.8875,-1.9595,-1.9964,-1.9893,-2.0125,-2.0312,-2.0312,-2.0312,-2.035,0.0,0.0,0.0,0.0,0.0,0.0,-2.0586,-2.1016,-2.1016,-2.0625,-2.1406,-2.1406,-2.0508,0.0,-2.1391,-2.0943,-2.132,-2.1273,-2.0889,-2.0889,-2.0817,-2.0736,-2.0826,-2.1281,-2.1939,-2.2997,-2.3621,-2.407,-2.4975,0.0,0.0,-2.5303,-2.5138,-2.5256,-2.7587,-2.8688,-2.9761,-3.3319,-3.623,-3.8554,-3.9686,-4.052,-4.1329,-4.2261,-4.205,-4.1579,-4.1256,-3.9512,-3.705,-3.3815,-3.1232,-2.8538,-2.5089,-2.4339,-2.388,-2.241,-2.3366,-2.4737,-2.5858,-2.6644,-2.8419,-3.2156,-3.2371,-3.2953,-3.53,-3.5503,-3.5655,-3.5864,-3.6145,0.0,0.0,0.0,-3.5931,-3.5931,-3.5655,-3.5504,-3.5504,-3.5504,-3.5604,-3.578,-3.5604,-3.5479,-3.5403,-3.5504,-3.5655,-3.583,-3.583,-3.6031,-3.6307,-3.5152,0.0,-2.8915,-2.9333,-2.8561,-2.6914,-2.6504,-2.7148,-2.8301,-2.8301,-2.8301,-2.8301,0.0,0.0,0.0,0.0,0.0,0.0,-1.8192,-1.9152,-1.9754,-1.9794,-2.0088,-2.0327,-2.0325,-2.0335,-2.0389,0.0,0.0,0.0,0.0,0.0,0.0,0.0,-2.0781,-2.0781,-2.0586,0.0,0.0,-2.0494,-2.0416,0.0,0.0,0.0,0.0,0.0,-2.0312,-2.0225,-2.0069,-2.0425,-2.0757,0.0,0.0,-2.3332,-2.3826,0.0,0.0,0.0,0.0,-2.5056,-2.5054,-2.6682,-2.7828,-2.9234,-3.2564,-3.5854,-3.85,-3.8507,-3.9478,-4.0781,-4.1613,-4.1542,-4.1204,-4.1204,-3.8836,-3.5701,-3.245,-2.9867,-2.6985,-2.2928,-2.2766,-2.286,-2.137,-2.2269,-2.3478,-2.4252,-2.4629,-2.5965,-2.943,-2.9841,-3.0758,-3.3567,-3.394,0.0,-3.5044,-3.5188,0.0,0.0,0.0,0.0,-3.5353,-3.4951,-3.4776,-3.4901,-3.47,-3.4826,-3.5328,-3.4851,-3.4801,-3.5152,-3.5429,-3.5705,-3.6006,-3.6257,-3.6107,-3.5554,-3.3822,0.0,0.0,-3.0489,-2.9742,-2.625,-2.5879,-2.6562,-2.7793,-2.8164,-2.8301,-2.8301,0.0,0.0,0.0,0.0,0.0,0.0,-1.7918,-1.8584,-1.9135,-1.9719,-2.0088,-2.0339,-2.0361,-2.045,-2.0504,0.0,0.0,0.0,0.0,0.0,0.0,0.0,0.0,0.0,0.0,0.0,0.0,-2.0487,-2.042,0.0,0.0,0.0,0.0,0.0,0.0,-2.0304,-2.0334,-2.1073,0.0,0.0,0.0,0.0,0.0,0.0,0.0,0.0,0.0,-2.493,-2.5054,-2.6682,-2.7321,-2.7659,-2.8746,-3.2529,-3.6625,-3.6837,-3.8183,-3.9757,-4.0746,-4.1096,-4.1204,-4.1204,-3.843,-3.4981,-3.2307,-2.8434,-2.4743,-2.257,-2.1805,-2.1303,-2.0516,-2.169,-2.2975,-2.358,-2.4259,-2.5821,-2.8944,-2.8573,-2.9008,-3.1849,0.0,0.0,-3.3896,-3.4086,0.0,0.0,0.0,0.0,-3.4776,-3.4751,-3.4951,-3.5454,-3.465,-3.465,-3.5504,-3.465,-3.4399,-3.4776,-3.5303,-3.5303,-3.4901,-3.5906,-3.5278,-3.337,-3.3169,0.0,0.0,-2.8555,-2.847,-2.791,-2.6348,-2.584,-2.6152,-2.7715,-2.8301,-2.8301,0.0,0.0,0.0,0.0,0.0,0.0,-1.7399,-1.824,-1.9097,-1.9882,-2.024,-2.0419,-2.0457,-2.048,-2.0521,-2.0565,-2.0579,0.0,0.0,0.0,0.0,0.0,0.0,0.0,0.0,0.0,-2.1139,-2.1281,-2.1174,0.0,0.0,0.0,0.0,0.0,0.0,0.0,-2.0182,-2.1095,0.0,0.0,0.0,0.0,0.0,0.0,0.0,0.0,0.0,0.0,-2.4888,-2.5389,-2.5704,-2.5827,-2.5646,-2.7886,-3.1016,-3.3135,-3.537,-3.7507,-3.9268,-4.0458,-4.0998,-4.0127,-3.6582,-3.2563,-2.9955,-2.6193,-2.2762,-2.1023,-2.0698,-2.0659,-2.0558,-2.1061,-2.1695,-2.2353,-2.2106,-2.2676,-2.5268,-2.4989,-2.5858,-2.9702,-3.0593,0.0,0.0,0.0,0.0,0.0,0.0,0.0,-3.3746,-3.3746,-3.3822,-3.4048,-3.3696,-3.3696,-3.4048,-3.4022,-3.4073,-3.4223,-3.4776,-3.5278,-3.5705,-3.5479,-3.4525,-3.3068,-3.3068,0.0,0.0,-2.8,-2.7363,-2.8125,-2.6406,-2.5742,-2.5937,-2.7656,-2.8301,-2.8301,0.0,0.0,0.0,0.0,0.0,-1.5865,-1.6676,-1.7557,-1.8496,-1.9563,-1.9918,-2.0171,-2.041,-2.0237,-2.0244,-2.0553,-2.0534,0.0,0.0,0.0,0.0,0.0,0.0,0.0,0.0,-2.0526,-2.0787,-2.1378,-2.1547,-2.1795,0.0,0.0,0.0,0.0,0.0,0.0,0.0,0.0,0.0,0.0,0.0,0.0,0.0,0.0,0.0,0.0,0.0,0.0,0.0,0.0,0.0,-2.4298,-2.3598,-2.4261,-2.5882,-2.9005,-3.1974,-3.4621,-3.6363,-3.8037,-3.9068,-3.8064,-3.4397,-3.0413,-2.8031,-2.4618,-2.1516,-2.0025,-1.9945,-2.0172,-2.0355,-2.0737,-2.1057,-2.1139,-2.0755,-2.1019,-2.2692,-2.2752,-2.4029,-2.7971,0.0,0.0,0.0,0.0,0.0,0.0,0.0,0.0,0.0,-3.3068,-3.3144,-3.3319,-3.3169,-3.3169,-3.3319,-3.3545,-3.3746,-3.3897,-3.4299,-3.4977,-3.5855,-3.5077,-3.4123,-3.3068,0.0,0.0,0.0,-2.8338,-2.6924,-2.7419,-2.6148,-2.6055,-2.6641,-2.7851,-2.8301,-2.8301,0.0,0.0,0.0,0.0,0.0,-1.5151,-1.5796,-1.6265,-1.7078,-1.862,-1.8994,-1.9419,-2.021,-1.9648,-1.9554,-2.0419,-2.0438,0.0,0.0,0.0,0.0,0.0,-2.0547,-2.0547,-2.0586,-2.0526,-2.0465,-2.0427,-2.1227,-2.115,-2.035,-2.1119,-2.1081,-2.0312,0.0,0.0,0.0,0.0,-2.316,0.0,0.0,0.0,-2.476,0.0,0.0,0.0,0.0,0.0,0.0,0.0,0.0,0.0,0.0,-2.2146,-2.2165,-2.4704,-2.8112,-3.116,-3.1616,-3.3255,-3.4864,-3.4864,-3.2144,-2.9066,-2.7229,-2.4069,-2.1162,-1.9954,-1.969,-1.9726,-1.969,-2.0797,-2.1297,-2.0107,-2.0906,-2.1833,-2.2352,-2.2802,-2.4155,0.0,0.0,0.0,0.0,0.0,0.0,0.0,0.0,0.0,0.0,-3.3068,-3.3319,-3.3872,-3.337,-3.3345,-3.3897,-3.3345,-3.3345,-3.3897,-3.3897,-3.4198,-3.4751,-3.4726,-3.4123,0.0,0.0,0.0,0.0,-2.9631,-2.7283,-2.5751,-2.5733,-2.6777,-2.8262,-2.8281,-2.8301,-2.8301,0.0,0.0,0.0,0.0,0.0,0.0,-1.607,-1.6345,-1.6901,-1.7975,-1.8216,-1.8397,-1.8633,-1.8975,-1.9308,-1.9581,-1.9574,0.0,0.0,0.0,0.0,-2.0526,-2.0566,-2.0547,-2.0547,-2.106,-2.1585,-2.2167,-2.2928,-2.3466,-2.3688,-2.2812,-2.2265,-2.2026,-2.0842,-2.0458,0.0,-2.2197,-2.3505,-2.4624,-2.4691,-2.4654,-2.4559,0.0,0.0,0.0,0.0,0.0,0.0,0.0,0.0,0.0,0.0,0.0,0.0,-2.1859,-2.4389,-2.7421,-2.8637,-3.0182,-3.1223,-3.0228,-2.8107,-2.5894,-2.4357,-2.2048,-2.0146,-1.9756,-1.9406,-1.9155,-1.9155,-1.9171,-1.9341,-1.9768,-2.018,-2.0758,-2.1668,-2.293,0.0,-2.6992,0.0,0.0,0.0,0.0,0.0,0.0,0.0,0.0,0.0,-3.3068,-3.3169,-3.3345,-3.3169,-3.3169,-3.3345,-3.3169,-3.3169,-3.3345,-3.3345,-3.342,-3.3596,-3.3596,0.0,0.0,0.0,0.0,0.0,-2.8284,-2.6164,-2.571,-2.5702,-2.635,-2.7502,-2.8121,-2.8301,-2.8301,0.0,0.0,0.0,0.0,0.0,0.0,-1.572,-1.5926,-1.6489,-1.7639,-1.7838,-1.8133,-1.8728,-1.8731,-1.8923,-1.9574,-1.9042,0.0,0.0,0.0,0.0,-2.0481,-2.0512,-2.0681,-2.0977,-2.1129,-2.17,-2.2699,-2.3111,-2.3774,-2.4649,-2.4043,-2.3274,-2.2389,-2.1581,-2.1265,0.0,-2.3043,-2.4234,-2.4979,-2.4836,-2.4685,-2.4497,0.0,0.0,0.0,0.0,0.0,0.0,0.0,0.0,0.0,0.0,0.0,0.0,0.0,-2.1579,-2.3632,-2.5345,-2.6841,-2.7703,-2.6838,-2.5296,-2.3733,-2.2565,-2.0946,-1.969,-1.969,-1.9295,-1.8893,-1.8893,-1.868,-1.8659,-1.9114,-1.9607,-2.0201,-2.1043,-2.2629,0.0,0.0,0.0,0.0,0.0,0.0,0.0,0.0,0.0,0.0,0.0,-3.2907,-3.2882,-3.3068,-3.3503,-3.3503,-3.3068,-3.3503,-3.3503,-3.3068,-3.3068,-3.3068,-3.3068,-3.3068,0.0,0.0,0.0,0.0,0.0,-2.8404,-2.6594,-2.5742,-2.5742,-2.6271,-2.7097,-2.7746,-2.8135,-2.8301,0.0,0.0,0.0,0.0,0.0,0.0,0.0,-1.5185,-1.59,-1.7504,-1.7771,-1.8401,-1.9938,-1.8785,-1.8515,-2.0077,-1.8862,0.0,0.0,-2.0392,-2.0353,-2.0473,-2.0427,-2.0826,-2.1679,-2.0945,-2.1119,-2.2249,-2.2238,-2.2726,-2.3726,-2.4803,-2.4014,-2.1768,-2.2474,-2.288,-2.3093,-2.4563,-2.5105,-2.4967,-2.4823,-2.467,0.0,0.0,0.0,0.0,0.0,0.0,0.0,0.0,0.0,0.0,0.0,0.0,0.0,0.0,0.0,0.0,0.0,-2.334,-2.4224,-2.4224,-2.3327,-2.2252,-2.1655,-2.0512,0.0,-1.9617,-1.9155,-1.8779,-1.8836,-1.8899,-1.885,-1.8368,-1.9298,-2.0234,-2.0828,-2.2412,0.0,0.0,0.0,0.0,0.0,0.0,0.0,0.0,0.0,0.0,0.0,-3.245,-3.245,-3.3079,-3.4075,-3.4247,-3.3259,-3.4307,-3.4298,-3.3205,-3.3179,-3.3068,-3.3068,-3.3068,0.0,0.0,0.0,0.0,0.0,-2.9236,-2.7844,-2.5859,-2.5742,-2.6198,-2.7005,-2.7264,-2.7737,-2.8301,0.0,0.0,0.0,0.0,0.0,0.0,0.0,0.0,0.0,0.0,-1.6813,-1.7224,-1.8281,-1.8621,-1.8932,0.0,0.0,0.0,0.0,-2.0487,-2.0419,-2.0427,-2.0465,-2.0579,-2.0734,-2.1785,-2.2472,-2.2794,-2.3957,-2.4649,-2.4918,-2.5149,-2.4514,-2.3108,-2.2898,-2.3197,-2.3842,-2.4049,-2.448,-2.4967,-2.4678,-2.4526,0.0,0.0,0.0,0.0,-2.3455,-2.3305,0.0,0.0,0.0,0.0,0.0,0.0,0.0,0.0,-1.969,-1.9779,-2.0258,0.0,-2.0857,-2.0857,-2.0321,-1.972,0.0,-1.8979,-1.8482,-1.8482,-1.8052,-1.7814,-1.8272,-1.8017,-1.8164,-1.9253,-2.0067,-2.1066,-2.2554,0.0,0.0,0.0,0.0,0.0,0.0,0.0,0.0,0.0,0.0,0.0,0.0,-3.1709,-3.1967,-3.2823,-3.3938,-3.4406,-3.4321,-3.5331,-3.5288,-3.4264,-3.3503,-3.3068,-3.3068,-3.3068,0.0,0.0,0.0,0.0,-3.0548,-2.7714,-2.6764,-2.7053,-2.6132,-2.6251,-2.7042,-2.7113,-2.7592,-2.8301,0.0,0.0,0.0,0.0,0.0,0.0,0.0,0.0,0.0,0.0,-1.74,-1.7917,-1.8897,-1.9406,-1.9701,0.0,0.0,0.0,-2.0434,-2.0498,-2.0495,-2.0452,-2.0482,-2.068,-2.1047,-2.1911,-2.2926,-2.4168,-2.4389,-2.4803,-2.5303,-2.5303,-2.4774,-2.383,-2.3514,-2.3823,-2.4492,-2.4404,-2.4435,-2.452,-2.4351,0.0,0.0,0.0,0.0,0.0,-2.2514,-2.2443,0.0,-2.151,-2.1271,-2.1116,0.0,0.0,0.0,0.0,-1.969,-1.969,-1.969,-1.969,-1.969,-1.969,-1.9295,-1.8893,-1.8893,-1.8482,-1.8092,-1.8092,-1.7653,-1.7418,-1.7734,-1.7342,-1.7526,-1.9183,-1.9991,-2.1538,0.0,0.0,0.0,0.0,0.0,0.0,0.0,0.0,0.0,0.0,0.0,0.0,0.0,-3.1564,-3.2014,-3.2813,-3.4014,-3.4649,-3.4538,-3.5535,-3.5298,-3.384,-3.353,-3.3093,-3.266,-3.266,-3.266,0.0,0.0,0.0,-3.0683,-2.8314,-2.7467,-2.7467,-2.6406,-2.6289,-2.6763,-2.7122,-2.7592,-2.8009,0.0,0.0,0.0,0.0,0.0,0.0,0.0,0.0,0.0,0.0,0.0,0.0,0.0,0.0,0.0,0.0,0.0,-1.9588,-2.035,-2.0476,-2.0504,-2.0508,-2.0491,-2.0925,-2.1775,-2.1836,-2.2997,-2.5303,-2.4341,-2.4341,-2.5303,-2.5303,-2.4841,-2.4063,-2.389,-2.4192,-2.4764,-2.4677,-2.4354,-2.3875,-2.3833,0.0,0.0,0.0,0.0,0.0,0.0,0.0,0.0,-2.0567,-2.0299,-2.0227,-1.9839,0.0,0.0,0.0,0.0,0.0,-1.9767,-1.9822,-1.9809,-1.972,-1.9295,-1.8893,-1.8817,-1.8366,-1.7933,-1.7854,-1.7517,-1.7214,-1.7319,-1.7085,-1.7409,-1.9029,-2.0404,0.0,0.0,0.0,0.0,0.0,0.0,0.0,0.0,0.0,0.0,0.0,0.0,0.0,0.0,-3.172,-3.2246,-3.2986,-3.4228,-3.4727,-3.4498,-3.5568,-3.5119,-3.3031,-3.3528,-3.3208,-3.2068,-3.2068,-3.2031,-3.2112,0.0,0.0,-3.0123,-2.9524,-2.8519,-2.7211,-2.6543,-2.633,-2.6546,-2.7318,-2.7651,-2.7863,0.0,0.0,0.0,0.0,0.0,0.0,0.0,0.0,0.0,0.0,0.0,0.0,0.0,0.0,0.0,0.0,-2.0196,-2.0196,-2.0389,-2.0448,-2.0512,-2.0586,-2.0544,-2.0922,-2.1783,-2.2406,-2.3283,-2.4389,-2.4832,-2.5111,-2.5303,-2.5303,-2.4802,-2.3815,-2.2942,-2.3019,-2.3699,-2.3321,-2.3235,-2.3355,-2.2953,0.0,0.0,0.0,0.0,0.0,0.0,0.0,0.0,-2.0467,-2.0299,-2.0227,-1.9839,0.0,0.0,0.0,0.0,0.0,-2.0124,-2.037,-2.0408,-1.9839,-1.9295,-1.8779,-1.8327,-1.7814,-1.7312,-1.6837,-1.6667,-1.6777,-1.7283,-1.8118,-1.914,-2.0452,0.0,0.0,0.0,0.0,0.0,0.0,0.0,0.0,0.0,0.0,0.0,0.0,0.0,0.0,0.0,-3.1303,-3.2058,-3.3779,-3.4023,-3.4493,-3.5311,-3.6586,-3.6141,-3.4196,-3.4269,-3.3357,-3.1504,-3.1504,-3.1506,-3.1523,0.0,-3.0523,-2.8896,-2.8779,-2.7635,-2.5995,-2.5879,-2.6241,-2.6931,-2.7102,-2.7597,-2.8281,0.0,0.0,0.0,0.0,0.0,0.0,0.0,0.0,0.0,0.0,0.0,0.0,0.0,0.0,0.0,0.0,-2.0312,-2.035,-2.0465,-2.0465,-2.0748,-2.1289,-2.1289,-2.1444,-2.1784,-2.2979,-2.3786,-2.4159,-2.4908,-2.5234,-2.5122,-2.508,-2.4778,-2.4283,-2.3253,-2.3169,-2.3682,-2.27,-2.2218,-2.2059,0.0,0.0,0.0,0.0,0.0,0.0,0.0,0.0,0.0,0.0,-1.998,-1.9945,-1.9762,0.0,0.0,0.0,0.0,0.0,-1.9945,-2.008,-2.0005,-1.942,-1.9342,-1.9255,-1.867,-1.8385,-1.812,-1.753,-1.767,-1.7881,-1.7869,-1.849,-2.0022,-2.3032,0.0,0.0,0.0,0.0,0.0,0.0,0.0,0.0,0.0,0.0,0.0,0.0,0.0,0.0,0.0,0.0,-3.3079,-3.3931,-3.4505,-3.5026,-3.5519,-3.611,-3.5644,-3.4192,-3.3935,-3.3091,-3.1706,-3.1179,-3.0994,-3.0984,0.0,-3.0099,-2.8797,-2.8612,-2.7746,-2.6289,-2.6152,-2.6211,-2.6333,-2.6562,-2.7226,-2.7951,0.0,0.0,0.0,0.0,0.0,0.0,0.0,0.0,0.0,0.0,0.0,0.0,0.0,0.0,0.0,0.0,-2.1062,-2.1275,-2.0512,-2.0504,-2.0942,-2.1953,-2.2099,-2.2241,-2.2374,-2.3589,-2.4268,-2.4389,-2.5024,-2.5214,-2.5077,-2.4743,-2.4512,-2.4294,-2.3087,-2.2721,-2.2919,-2.1704,-2.1032,-2.0773,0.0,0.0,0.0,0.0,0.0,0.0,0.0,0.0,0.0,0.0,0.0,0.0,0.0,0.0,0.0,-1.9803,-1.9767,-1.9726,-1.9803,-1.9918,-1.976,-1.9072,-1.9267,-1.9558,-1.9208,-1.9189,-1.9216,-1.9024,-1.9387,-1.9514,-1.8917,-1.9649,0.0,-2.6099,0.0,0.0,0.0,0.0,0.0,0.0,0.0,0.0,0.0,0.0,0.0,0.0,0.0,0.0,0.0,0.0,-3.4129,-3.438,-3.5112,-3.5519,-3.5519,-3.5519,-3.5026,-3.4009,-3.3477,-3.2729,-3.1811,-3.0855,-3.0444,-3.0444,-3.0444,-2.9677,-2.8445,-2.8274,-2.7585,-2.6406,-2.6152,-2.6015,-2.5977,-2.6319,-2.6917,-2.7532,0.0,0.0,0.0,0.0,0.0,0.0,0.0,0.0,0.0,0.0,0.0,0.0,0.0,0.0,-2.0312,-2.0312,-2.3387,-2.3915,-2.0612,-2.0504,-2.1097,-2.2226,-2.2732,-2.3362,-2.4111,-2.4178,-2.4572,-2.5303,-2.5303,-2.5303,-2.5244,-2.4441,-2.3671,-2.2967,-2.1335,-2.0393,-1.9996,-1.9487,-1.9572,-1.989,-1.881,0.0,0.0,0.0,0.0,0.0,0.0,0.0,0.0,0.0,0.0,0.0,0.0,0.0,-1.9767,-2.0158,-1.9984,-1.9767,-2.0158,-2.0436,-2.0355,-1.9217,-1.8921,-1.9098,-1.9607,-1.9724,-2.0051,-2.1024,-2.1457,-2.1398,-2.072,-2.2665,-2.5683,0.0,0.0,0.0,0.0,0.0,0.0,0.0,0.0,0.0,0.0,0.0,0.0,0.0,0.0,0.0,0.0,0.0,0.0,-3.5353,-3.5454,-3.5519,-3.5519,-3.5519,-3.5026,-3.398,-3.3107,-3.2194,-3.1242,-3.0316,-2.9907,-2.9907,-2.9907,-2.8864,-2.7215,-2.7227,-2.6422,-2.5237,-2.5217,-2.5625,-2.6388,-2.6839,-2.6962,-2.7082,0.0,0.0,0.0,0.0,0.0,0.0,0.0,0.0,0.0,0.0,0.0,-1.9843,-2.0241,0.0,-2.1324,-2.3475,-2.2962,-2.1913,-2.0412,-2.1166,-2.199,-2.2692,-2.3466,-2.3927,-2.4055,-2.4638,-2.499,-2.5044,-2.4915,-2.4728,-2.4489,-2.3931,-2.3328,-2.2676,-2.1555,-2.0707,-2.0102,-1.8385,-1.8032,-1.8604,-1.8273,-1.7609,0.0,0.0,0.0,0.0,0.0,0.0,0.0,0.0,-1.951,-1.9361,-1.96,-1.969,-1.9726,-1.9874,-1.9803,-1.9726,-1.9874,-2.0028,-1.9817,-1.8691,-1.8672,-1.9337,-2.0751,-2.171,-2.2519,-2.3337,-2.4528,-2.5096,-2.3955,0.0,-2.7893,0.0,0.0,0.0,0.0,0.0,0.0,0.0,0.0,0.0,0.0,0.0,0.0,0.0,0.0,0.0,0.0,0.0,0.0,-3.5519,-3.5519,-3.5519,-3.5519,-3.5519,-3.5335,-3.4901,-3.3369,-3.2375,-3.1993,-3.047,-2.9804,-2.9804,-2.9804,-2.8595,-2.678,-2.6975,-2.6114,-2.4723,-2.5217,-2.5879,-2.6426,-2.6251,-2.6369,-2.6566,0.0,0.0,0.0,0.0,0.0,0.0,0.0,0.0,-1.8341,0.0,0.0,0.0,0.0,-2.0523,-2.1523,0.0,-2.1953,-2.0534,-2.041,-2.1249,-2.2013,-2.2588,-2.3108,-2.3384,-2.3423,-2.4026,-2.4345,-2.4344,-2.4542,-2.4586,-2.4409,-2.3728,-2.3058,-2.247,-2.1652,-2.0733,-1.9656,-1.7499,-1.6664,-1.6879,-1.7394,-1.7036,0.0,0.0,0.0,0.0,0.0,0.0,0.0,0.0,-1.954,-1.942,-1.963,-1.969,-1.969,-1.969,-1.9551,-1.9442,-1.9442,-1.9324,-1.9035,-1.8289,-1.8731,-1.9962,-2.2304,-2.3491,-2.4498,-2.6022,-2.7116,-2.7703,-2.7169,-2.8103,0.0,0.0,0.0,0.0,0.0,0.0,0.0,0.0,0.0,0.0,0.0,0.0,0.0,0.0,0.0,0.0,0.0,0.0,0.0,0.0,-3.5519,-3.5519,-3.5519,-3.5519,-3.5519,-3.5489,-3.3827,-3.2904,-3.2539,-3.0984,-3.006,-2.9804,-2.9804,-2.8521,-2.6562,-2.678,-2.5899,-2.4473,-2.5388,-2.5879,-2.6132,-2.5859,-2.5859,-2.6131,0.0,0.0,0.0,0.0,0.0,0.0,0.0,0.0,-1.9088,-1.9896,-1.9877,0.0,0.0,0.0,0.0,0.0,-2.0586,-2.0586,-2.0586,-2.0541,-2.0905,-2.1775,-2.157,-2.1706,-2.2365,-2.2121,-2.2397,-2.3305,-2.4306,-2.493,-2.5244,-2.3839,-2.2857,-2.2237,-2.1401,-1.9994,-1.8221,-1.6733,-1.5497,-1.4625,-1.5954,-1.6454,-1.6454,0.0,0.0,0.0,0.0,0.0,0.0,0.0,-1.9241,-1.8822,-1.948,-1.969,-1.9726,-1.969,-1.9332,-1.8893,-1.8893,-1.8511,-1.8098,-1.8206,-1.9184,-2.0952,-2.417,-2.4751,-2.563,-2.9279,-2.9092,-2.8769,-3.0235,-3.0013,0.0,0.0,0.0,0.0,0.0,0.0,0.0,0.0,0.0,0.0,0.0,0.0,0.0,0.0,0.0,0.0,0.0,0.0,0.0,0.0,-3.5519,-3.5519,-3.5519,-3.5519,-3.5519,-3.5489,-3.4469,-3.3492,-3.259,-3.1655,-3.0701,-2.9804,-2.9804,-2.8554,-2.655,-2.6497,-2.5655,-2.4463,-2.5353,-2.5742,-2.5742,-2.5742,-2.5742,-2.5742,0.0,0.0,0.0,0.0,0.0,0.0,0.0,0.0,-1.9948,-2.0246,-2.0267,0.0,0.0,0.0,0.0,0.0,0.0,-2.0544,-2.0472,-2.0481,-2.0773,-2.1417,-2.1814,-2.1909,-2.1639,-1.9848,-2.0137,-2.2651,-2.3834,-2.3656,-2.2299,-2.247,-2.2141,-2.1401,-2.1768,-2.092,-1.9162,-1.7215,-1.6127,-1.5657,-1.4596,-1.4543,-1.5163,0.0,0.0,0.0,0.0,0.0,0.0,0.0,0.0,0.0,-1.9707,-1.9909,-2.0054,-1.9767,-1.9332,-1.8893,-1.8893,-1.8544,-1.8376,-1.9314,-2.0452,-2.2232,-2.5506,-2.6165,-2.7195,-3.0981,-3.1102,-3.0834,-3.1721,-3.1779,0.0,0.0,0.0,0.0,0.0,0.0,0.0,0.0,0.0,0.0,0.0,0.0,0.0,0.0,0.0,0.0,0.0,0.0,0.0,0.0,-3.5519,-3.5519,-3.5519,-3.5519,-3.5519,-3.5519,-3.521,-3.4193,-3.2554,-3.166,-3.0701,-2.9804,-2.9804,-2.857,-2.6417,-2.5228,-2.4275,-2.3673,-2.5139,-2.5489,-2.5217,-2.5606,-2.5742,-2.5742,0.0,0.0,0.0,0.0,0.0,0.0,-1.8489,-1.9673,-2.035,-2.0389,-2.0427,-2.0476,0.0,0.0,0.0,-2.043,-2.0529,-2.0534,-2.0366,-2.0342,-2.0431,-2.0659,-2.0816,-2.0535,-1.9861,-1.8787,-1.8708,-1.9673,-2.1007,-2.0993,-1.973,-2.0766,-2.0991,-2.0499,-2.1023,-2.0665,-1.9617,-1.8013,-1.7129,-1.6638,-1.4787,-1.455,-1.5302,0.0,0.0,0.0,0.0,0.0,0.0,0.0,0.0,0.0,-1.9797,-1.9874,-1.9984,-1.9767,-1.9332,-1.8893,-1.8893,-1.8723,-1.887,-2.0108,-2.1777,-2.3974,-2.7471,-2.8891,-3.0273,-3.3124,-3.2976,-3.2527,-3.3185,-3.3095,0.0,0.0,0.0,0.0,0.0,0.0,0.0,0.0,0.0,0.0,0.0,0.0,0.0,0.0,0.0,0.0,0.0,0.0,0.0,-3.5085,-3.5365,-3.5365,-3.5085,-3.5365,-3.5519,-3.5519,-3.5519,-3.4456,-3.2577,-3.2009,-3.1008,-2.9779,-2.887,-2.787,-2.6758,-2.4522,-2.3398,-2.3242,-2.4297,-2.4789,-2.5005,-2.5489,-2.5742,-2.5742,0.0,0.0,-1.5154,-1.5405,0.0,0.0,-1.9996,-2.035,-2.0404,-2.0441,-2.045,-2.0481,0.0,0.0,0.0,-2.0586,-2.0585,-2.0509,-2.0296,-2.0193,-2.0009,-1.9726,-1.9087,-1.8394,-1.7625,-1.8501,-1.7762,-1.53,-1.6664,-1.7472,-1.7671,-1.9057,-1.9654,-1.9551,-1.9654,-1.9654,-1.9551,-1.8893,-1.821,-1.749,-1.6009,-1.5816,-1.6318,-1.5596,0.0,0.0,0.0,0.0,0.0,0.0,0.0,0.0,-1.9726,-1.9726,-1.9762,-1.9654,-1.9236,-1.8806,-1.8826,-1.8906,-1.9336,-2.0712,-2.3198,-2.6176,-2.9754,-3.2048,-3.3754,-3.4981,-3.4352,-3.3754,-3.4292,0.0,0.0,0.0,0.0,0.0,0.0,0.0,0.0,0.0,0.0,0.0,0.0,0.0,0.0,0.0,0.0,0.0,0.0,0.0,-3.5056,-3.444,-3.5096,-3.5096,-3.444,-3.515,-3.5489,-3.5394,-3.5389,-3.4389,-3.2612,-3.2626,-3.1585,-2.9702,-2.7464,-2.6843,-2.7295,-2.4313,-2.3144,-2.3144,-2.3144,-2.3742,-2.4789,-2.533,-2.5508,-2.5527,0.0,0.0,-1.5475,-1.6896,0.0,0.0,-2.0235,-2.035,-2.0457,-2.0521,-2.0521,-2.0502,-2.0562,-2.0583,0.0,-2.0586,-2.0472,-2.036,-2.0312,-2.0263,-2.0108,-1.9797,-1.9397,-1.8735,-1.7783,-1.6954,-1.5587,-1.3696,-1.4036,-1.4953,-1.6498,-1.8673,-1.9258,-1.8482,-1.9332,-1.9369,-1.8817,-1.8664,-1.8366,-1.7906,-1.6704,-1.586,-1.5344,-1.5536,-1.5819,0.0,0.0,0.0,0.0,0.0,0.0,0.0,-1.9803,-1.9909,-2.0019,-1.9303,-1.8621,-1.8149,-1.8254,-1.8282,-1.8974,-2.1785,-2.5531,-2.9068,-3.0854,-3.2049,-3.2795,-3.3125,-3.3754,-3.4143,-3.3784,0.0,0.0,0.0,0.0,0.0,0.0,0.0,0.0,0.0,0.0,0.0,0.0,0.0,0.0,0.0,0.0,0.0,0.0,-3.4257,-3.3856,-3.3703,-3.4394,-3.4364,-3.3703,-3.4901,-3.521,0.0,-3.4437,-3.3705,-3.2609,-3.26,-3.1585,-2.9702,-2.7464,-2.6588,-2.655,-2.4079,-2.3144,-2.3144,-2.3144,-2.3262,-2.3457,-2.3633,-2.3691,-2.3887,0.0,0.0,0.0,0.0,0.0,0.0,0.0,0.0,-2.0412,-2.0516,-2.0497,-2.0539,-2.0585,-2.0586,0.0,0.0,-2.0063,-1.9952,-2.0296,-1.9982,-1.9513,-1.8777,-1.8646,-1.8059,-1.6876,-1.6163,-1.5191,-1.4011,-1.3395,-1.4125,-1.6145,-1.754,-1.7854,-1.7353,-1.7894,-1.8521,-1.9118,-1.9118,-1.8893,-1.8416,-1.7577,-1.677,-1.6103,-1.635,-1.6473,-1.6702,-1.8021,0.0,0.0,0.0,0.0,0.0,0.0,0.0,-1.9133,-1.8674,-1.8446,-1.8387,-1.8436,-1.8931,-2.0135,-2.3393,-2.6882,-2.9913,-3.121,-3.178,-3.208,-3.2467,-3.3275,0.0,0.0,0.0,0.0,0.0,0.0,0.0,0.0,0.0,0.0,0.0,0.0,0.0,0.0,0.0,0.0,0.0,0.0,0.0,-3.4469,-3.3865,-3.3332,-3.303,-3.3634,-3.3698,-3.3064,-3.3988,-3.4137,-3.3405,-3.3243,-3.2458,-3.1135,-3.1246,-3.0725,-2.9702,-2.7464,-2.6318,-2.5819,-2.3887,-2.3144,-2.3144,-2.3144,-2.3144,-2.3144,-2.3144,-2.3144,-2.3262,0.0,0.0,0.0,0.0,0.0,0.0,0.0,0.0,0.0,-2.0194,-2.0344,-2.0498,-2.0576,-2.0576,-2.0448,0.0,0.0,0.0,-1.9844,-1.9133,-1.8128,-1.688,-1.6963,-1.6496,-1.5389,-1.5359,-1.5129,-1.4626,-1.3923,-1.4268,-1.5568,-1.5919,-1.6157,-1.6306,-1.6411,-1.7531,-1.9332,-1.9406,-1.9155,-1.8712,-1.8232,-1.7786,-1.7435,-1.7382,-1.7464,-1.7693,-1.8588,-1.8968,-1.9118,-1.9551,0.0,0.0,0.0,0.0,-1.821,-1.8013,-1.8271,-1.8598,-1.875,-1.9777,-2.1584,-2.4505,-2.7176,-2.9388,-3.0559,-3.1096,-3.1483,-3.205,0.0,0.0,0.0,0.0,0.0,0.0,0.0,0.0,0.0,0.0,0.0,0.0,0.0,0.0,0.0,0.0,0.0,0.0,0.0,-3.4133,-3.4133,-3.3487,-3.2874,-3.2309,-3.2993,-3.3036,-3.2304,-3.2946,-3.2855,-3.199,-3.1808,-3.087,-2.9269,-2.9428,-2.9426,-2.917,-2.7221,-2.6003,-2.5253,-2.3734,-2.3144,-2.3144,-2.3144,-2.3144,-2.3144,-2.3144,-2.3144,-2.3144,0.0,0.0,0.0,0.0,0.0,0.0,0.0,0.0,0.0,0.0,-1.9986,-2.043,-2.043,-2.0385,-2.0105,-1.9504,-1.9346,-1.8978,-1.8183,0.0,0.0,-1.3874,-1.3802,-1.3729,-1.3547,-1.3547,-1.3489,-1.3423,-1.5181,-1.5122,-1.3367,-1.4136,-1.4857,-1.549,-1.612,-1.697,-1.7894,-1.8171,-1.8249,-1.821,-1.8131,-1.8052,-1.7973,-1.7973,-1.8288,-1.8703,-1.8855,-1.9192,-1.9617,-1.969,-1.9654,0.0,0.0,0.0,-1.8626,-1.7653,-1.7381,-1.7467,-1.8032,-1.9864,-2.1934,-2.3503,-2.5438,-2.722,-2.7935,0.0,-3.0659,0.0,0.0,0.0,0.0,0.0,0.0,0.0,0.0,0.0,0.0,0.0,0.0,0.0,0.0,0.0,0.0,0.0,0.0,0.0,0.0,-3.2789,-3.2789,-3.2137,-3.1717,-3.1629,-3.2279,-3.2312,-3.1663,-3.2163,-3.199,-3.134,-3.0351,-2.9319,-2.8293,-2.8346,-2.7854,-2.7004,-2.6109,-2.559,-2.5253,-2.3734,-2.3144,-2.3144,-2.3144,-2.3144,-2.3144,-2.3144,-2.3144,-2.3144,0.0,0.0,0.0,0.0,0.0,0.0,0.0,0.0,0.0,0.0,0.0,-2.0182,-1.9684,-1.9687,-1.9402,-1.8551,-1.8455,-1.7954,-1.6773,-1.6136,-1.4544,-1.1704,-1.2615,-1.3198,-1.3198,-1.3198,-1.3682,-1.4658,-1.5892,-1.5976,-1.4926,-1.3909,-1.4022,-1.5017,-1.6015,-1.6659,-1.697,-1.7572,-1.7933,-1.8131,-1.8405,-1.8366,-1.8171,-1.8779,-1.8779,-1.8482,-1.8779,-1.8855,-1.8817,-1.8817,-1.8626,-1.8288,-1.8052,0.0,0.0,0.0,-1.7005,-1.7408,-1.831,-1.9662,-2.108,-2.2261,-2.429,-2.6225,-2.6924,-2.8284,-2.9516,0.0,0.0,0.0,0.0,0.0,0.0,0.0,0.0,0.0,0.0,0.0,0.0,0.0,0.0,0.0,0.0,0.0,0.0,0.0,-3.3363,-3.2553,-3.2553,-3.1901,-3.1482,-3.1482,-3.1747,-3.1835,-3.1482,-3.1275,-3.051,-2.9233,-2.8276,-2.7564,-2.7193,-2.7193,-2.6966,-2.6538,-2.5893,-2.5289,-2.4619,-2.3547,-2.3144,-2.3144,-2.3144,-2.3144,-2.3144,-2.3144,-2.3144,-2.3144,0.0,0.0,0.0,0.0,0.0,0.0,0.0,0.0,0.0,0.0,0.0,-1.9524,-1.8958,0.0,0.0,0.0,-1.7296,-1.6876,-1.5885,-1.5389,-1.3684,-1.0428,-1.1689,-1.2685,-1.3198,-1.3749,-1.4393,-1.512,-1.5937,-1.6395,-1.6436,-1.4025,-1.3382,-1.4283,-1.5197,-1.5796,-1.6139,-1.6802,-1.749,-1.8092,-1.8249,-1.8288,-1.8366,-1.8864,-1.8674,-1.8131,-1.8521,-1.8444,-1.8092,-1.8092,-1.7814,-1.7476,-1.7353,-1.7021,0.0,0.0,0.0,-1.7517,-1.8444,-1.92,-2.0059,-2.1197,-2.3041,-2.4852,0.0,0.0,0.0,0.0,0.0,0.0,0.0,0.0,0.0,0.0,0.0,0.0,0.0,0.0,0.0,0.0,0.0,0.0,0.0,0.0,0.0,0.0,-3.3152,-3.2279,-3.2309,-3.1629,-3.1275,-3.1275,-3.1127,-3.101,-3.101,-3.0129,-2.8941,-2.7354,-2.6799,-2.6533,-2.6533,-2.6533,-2.6233,-2.5784,-2.5486,-2.474,-2.3598,-2.3256,-2.3144,-2.3144,-2.3144,-2.3144,-2.3144,-2.3144,-2.3144,-2.3144,0.0,0.0,0.0,0.0,0.0,0.0,0.0,0.0,0.0,0.0,0.0,-1.8253,-1.8589,-1.817,-1.7368,-1.6024,-1.5913,-1.5885,-1.5799,-1.4246,-1.2449,-1.039,-1.039,0.0,-1.3163,-1.5251,-1.5356,-1.3335,-1.5017,-1.6061,-1.6436,-1.4025,-1.292,-1.3017,-1.3065,-1.3931,-1.54,-1.5599,-1.6634,-1.8013,-1.697,-1.7464,-1.8779,-1.7719,-1.7639,-1.8092,-1.8131,-1.8131,-1.8092,-1.8092,-1.8052,-1.7973,-1.7476,-1.7271,-1.7146,0.0,0.0,0.0,-1.7973,-1.8511,-1.9263,-2.0455,-2.1301,-2.2231,0.0,0.0,0.0,0.0,0.0,0.0,0.0,0.0,0.0,0.0,0.0,0.0,0.0,0.0,0.0,0.0,0.0,0.0,0.0,0.0,0.0,0.0,-3.1629,-3.1569,-3.1569,-3.0893,-3.0513,-3.0513,-2.9987,-2.9697,-2.9697,-2.8627,-2.7575,-2.6577,-2.6533,-2.6533,-2.6533,-2.6533,-2.5465,-2.3711,-2.4524,-2.3785,-2.2056,-2.2793,-2.3144,-2.3144,-2.3144,-2.3144,-2.3144,-2.3144,-2.3144,-2.3144,0.0,0.0,0.0,0.0,0.0,0.0,0.0,0.0,0.0,0.0,0.0,0.0,0.0,-1.6638,-1.6485,-1.6463,-1.6052,-1.5799,-1.5799,-1.4181,-1.2896,-1.2198,-1.0981,-1.0621,-1.1319,-1.3334,-1.4675,-1.5302,-1.7327,-1.6889,-1.4165,-1.3286,-1.2891,-1.2891,-1.2891,-1.3525,-1.4606,-1.5688,-1.6727,-1.7598,-1.7746,-1.8025,-1.8366,-1.8299,-1.821,-1.8052,-1.7693,-1.7598,-1.7558,-1.7188,-1.6828,-1.6506,-1.6727,-1.6514,-1.6256,-1.6454,-1.6372,-1.654,-1.7772,-1.7971,-1.8218,-1.9683,-2.0757,-2.1589,-2.221,0.0,0.0,0.0,0.0,0.0,0.0,0.0,0.0,0.0,0.0,0.0,0.0,0.0,0.0,0.0,0.0,0.0,0.0,0.0,0.0,0.0,0.0,-3.1304,-3.0893,-3.0629,-3.0354,-2.994,-2.9222,-2.8343,-2.736,-2.7003,-2.6324,-2.541,-2.5403,-2.5578,-2.5912,-2.5912,-2.5009,-2.3548,-2.4145,-2.3296,-2.1562,-2.2676,-2.3144,-2.3144,-2.3144,-2.3144,-2.3144,-2.3144,-2.3144,-2.3144,0.0,0.0,0.0,-1.5061,0.0,-1.5799,-1.5799,-1.5799,-1.5566,-1.4998,0.0,0.0,0.0,0.0,-1.6332,-1.7659,-1.6542,-1.6188,-1.7058,-1.4647,-1.3198,-1.3198,-1.1982,-1.1282,-1.1282,-1.1909,-1.3249,-1.5377,-1.755,-1.6683,-1.2891,-1.2891,-1.2891,-1.2891,-1.2891,-1.3647,-1.4926,-1.5599,-1.6557,-1.7598,-1.7786,-1.7826,-1.7773,-1.7329,-1.7206,-1.7177,-1.6659,-1.6574,-1.6617,-1.6083,-1.5776,-1.5664,-1.6064,-1.6039,-1.6039,-1.6811,-1.6664,-1.6554,-1.7997,-1.8103,-1.8143,-1.939,-2.0237,-2.0905,-2.1429,0.0,0.0,0.0,0.0,0.0,0.0,0.0,0.0,0.0,0.0,0.0,0.0,0.0,0.0,0.0,0.0,0.0,0.0,0.0,0.0,0.0,0.0,0.0,-3.022,-3.0004,-2.9499,-2.8596,-2.7823,-2.687,-2.5788,-2.5739,-2.542,-2.4823,-2.4998,-2.5285,-2.5611,-2.545,-2.4706,-2.3548,-2.3665,-2.2772,-2.1367,-2.2422,-2.2969,-2.3144,-2.3144,-2.3144,-2.3144,-2.3144,-2.3144,-2.3144,-1.022,-1.1872,-1.3198,-1.3129,-1.4564,-1.5712,-1.5653,-1.5624,-1.5029,-1.3344,0.0,0.0,0.0,0.0,0.0,-1.9361,-1.7267,-1.6878,-1.939,-1.5591,-1.3198,-1.3198,-1.3163,-1.3129,-1.3129,-1.1282,-1.1228,-1.3064,-1.5306,-1.5197,-1.2891,-1.2891,-1.2891,-1.2891,-1.2891,-1.4193,-1.6353,-1.5285,-1.6096,-1.7973,-1.686,-1.676,-1.6995,-1.4744,-1.4584,-1.5487,-1.4926,-1.5107,-1.5487,-1.4926,-1.5107,-1.5576,-1.5576,-1.5996,-1.6735,-1.7801,-1.776,-1.7558,0.0,0.0,0.0,-1.9545,-1.9726,0.0,-2.1022,0.0,0.0,0.0,0.0,0.0,0.0,0.0,0.0,0.0,0.0,0.0,0.0,0.0,0.0,0.0,0.0,0.0,0.0,0.0,0.0,0.0,-2.9576,-2.9609,-2.9522,-2.8883,-2.784,-2.6491,-2.5739,-2.5282,-2.5056,-2.5056,-2.4943,-2.4771,-2.5255,-2.5521,-2.5519,-2.5151,-2.4374,-2.3401,-2.2905,-2.2186,-2.1445,-2.2031,-2.2617,-2.3125,-2.3125,-2.3144,-2.3144,-2.3144,-2.3144,-2.3144,-1.0054,-1.1872,-1.2756,-1.1356,-1.2648,-1.3462,-1.2047,-1.1832,-1.1637,0.0,0.0,0.0,-1.3517,-1.4969,-1.6098,-1.6818,-1.6218,-1.6098,-1.6848,-1.4566,-1.3198,-1.3198,-1.1836,-1.1094,-1.1094,-1.0582,-1.022,-1.0026,-1.2634,-1.3573,-1.2891,-1.2891,-1.2891,-1.2891,-1.2891,-1.4236,-1.6557,-1.7799,-1.7759,-1.6844,-1.66,-1.6275,-1.5941,-1.5748,-1.5398,-1.4971,0.0,-1.5443,-1.5576,0.0,-1.5197,-1.5017,-1.5395,-1.6244,-1.7222,-1.7909,-1.8003,-1.8028,-1.8686,0.0,0.0,0.0,0.0,0.0,-2.0515,-2.1239,0.0,0.0,0.0,0.0,0.0,0.0,0.0,0.0,0.0,0.0,0.0,0.0,0.0,0.0,0.0,0.0,0.0,0.0,0.0,0.0,-2.9624,-2.9198,-2.8155,-2.6922,-2.5854,-2.4953,-2.4688,-2.4296,-2.3679,-2.3653,-2.3653,-2.3568,-2.37,-2.3814,-2.3905,-2.378,-2.3256,-2.2414,-2.2466,-2.1886,-2.0879,-2.1875,-2.2383,-2.2559,-2.2988,-2.3144,-2.3144,-2.3144,-2.3144,-2.3144,-0.9696,-1.0464,-1.0538,-1.0351,-1.1244,-1.1616,-1.0467,-1.0898,-1.1367,0.0,0.0,0.0,-1.168,-1.3466,-1.4993,-1.5993,-1.5245,-1.5137,-1.6041,-1.5123,-1.379,-1.2064,-1.0905,-0.9883,-0.8933,-0.8933,-0.8892,-0.8804,-1.0387,-1.12,-1.12,-1.2363,-1.343,-1.4376,-1.3884,-1.4698,-1.6607,-1.7814,-1.8171,-1.7599,-1.5728,-1.5174,-1.5374,-1.5061,-1.4675,0.0,0.0,0.0,-1.4812,-1.456,-1.4422,-1.4492,-1.5548,-1.6337,-1.717,-1.8405,-1.8775,-1.8821,-1.9344,-1.9622,-1.9803,-1.9936,0.0,0.0,-2.0289,-2.0967,-2.1587,0.0,0.0,0.0,0.0,0.0,0.0,0.0,0.0,0.0,0.0,0.0,0.0,0.0,0.0,0.0,0.0,-2.7919,-2.7935,-2.7912,-2.7865,-2.7436,-2.6329,-2.5218,-2.4359,-2.3936,-2.3876,-2.3568,-2.3065,-2.3065,-2.3065,-2.3065,-2.3371,-2.3405,-2.329,-2.3164,-2.2693,-2.1962,-2.1811,-2.1363,-2.0957,-2.1387,-2.1992,-2.2676,-2.3008,-2.3144,-2.3144,-2.3144,-2.3144,-2.3144,0.0,-0.7982,-0.7335,-0.9549,-1.0157,-1.0273,-1.0273,-1.1758,-1.2891,0.0,-1.1523,-1.0566,-1.0566,-1.1953,-1.3742,-1.5932,-1.4522,-1.44,-1.6396,-1.6238,-1.4472,-1.0745,-1.0566,-0.9518,-0.7258,-0.7214,-0.7736,-0.8804,-0.8474,-0.8633,-0.9316,-1.1751,-1.4118,-1.6238,-1.5332,-1.5466,-1.6522,-1.6522,-1.7598,-1.8977,-1.4654,-1.3789,-1.4994,-1.3525,-1.3286,-1.3647,-1.3142,-1.3334,-1.3721,-1.319,-1.3334,-1.4003,-1.5708,-1.6361,-1.6921,-1.913,-1.9752,-1.9788,-2.0375,-2.0786,-2.1011,-2.0593,-2.0513,0.0,-2.04,-2.0702,-2.1193,0.0,0.0,0.0,0.0,0.0,0.0,0.0,0.0,0.0,0.0,0.0,0.0,0.0,0.0,0.0,-2.5674,-2.5568,-2.549,-2.5423,-2.5279,-2.4915,-2.4334,-2.3603,-2.3204,-2.3175,-2.3065,-2.304,-2.304,-2.3065,-2.3065,-2.315,-2.3653,-2.3667,-2.3219,-2.2936,-2.2506,-2.1878,-2.0991,-2.0859,-2.1269,-2.0781,-2.1523,-2.3008,-2.3105,-2.3144,-2.3144,-2.3144,-2.3144,-2.3144,-0.4354,-0.4561,-0.4995,-0.7252,-0.9093,-1.0273,-1.0273,-1.1758,-1.2891,-1.2891,-1.2578,-1.2363,-1.2363,-1.2676,-1.3113,-1.3573,-1.4981,-1.6028,-1.6497,-1.4698,-1.3219,-1.243,-1.2363,-1.1142,-0.8508,-0.8457,-0.8577,-0.8804,-0.647,-0.7647,-1.2116,-1.2627,-1.3647,-1.5062,-1.5844,-1.6281,-1.6522,-1.6522,-1.6752,-1.6896,-1.405,-1.3382,-1.405,-1.3721,-1.3409,-1.3113,-1.3505,-1.3695,-1.3815,-1.3862,-1.3505,-1.3347,-1.4862,-1.6146,0.0,-1.9553,-2.0195,-2.0381,-2.1466,-2.1827,-2.186,0.0,0.0,0.0,-2.1019,-2.1042,-2.123,0.0,0.0,0.0,0.0,0.0,0.0,0.0,0.0,0.0,0.0,0.0,0.0,0.0,0.0,0.0,-2.5615,-2.5158,-2.4898,-2.4867,-2.3813,-2.3098,-2.2991,-2.23,-2.1852,-2.1885,-2.2261,-2.2455,-2.2455,-2.287,-2.3065,-2.3065,-2.3236,-2.3071,-2.2675,-2.3073,-2.2577,-2.1345,-2.0851,-2.0625,-2.0723,-2.0605,-2.1191,-2.2207,-2.2871,-2.3144,-2.3144,-2.3144,-2.3144,-2.3144,-0.1585,-0.2771,-0.4316,-0.6592,-0.8812,-1.0566,-1.1445,-1.2324,-1.2891,-1.2891,-1.2891,-1.2363,-1.0998,-1.2067,-1.2891,-1.2891,-1.4025,-1.4698,-1.4698,-1.3573,-1.2891,-1.2891,-1.1601,-1.0233,-0.8804,-0.7396,-0.6632,-0.6632,-0.6632,-0.8763,-1.2891,-1.2891,-1.3525,-1.4744,-1.5976,-1.6151,-1.5644,-1.6238,-1.6064,-1.5197,-1.3978,-1.3695,-1.3909,-1.3505,-1.3142,-1.292,-1.3238,-1.3334,-1.3382,-1.3478,-1.3511,0.0,0.0,-1.6666,-1.7609,0.0,-2.0874,-2.1695,0.0,0.0,0.0,-2.3343,0.0,0.0,0.0,-2.1492,-2.1536,0.0,0.0,0.0,0.0,0.0,0.0,0.0,0.0,0.0,0.0,0.0,0.0,0.0,0.0,0.0,-2.2904,-2.3074,-2.3179,-2.3164,-2.2247,-2.1637,-2.1641,-2.1277,-2.1223,-2.1468,-2.2056,-2.2426,-2.2735,-2.2955,-2.3065,-2.3065,-2.269,-2.2249,-2.1858,-2.1959,-2.1474,-2.0575,-2.0602,-2.0566,-2.0566,-2.0566,-2.082,-2.1269,-2.1699,-2.2383,-2.3144,-2.3144,-2.3144,-2.3144,0.0,-0.1925,-0.4316,-0.6592,-0.9089,-1.125,-1.2676,-1.2891,-1.2891,-1.2891,-1.2891,-1.1868,-0.912,-1.0795,-1.2314,-1.2822,-1.2891,-1.2676,-1.2166,-1.2627,-1.2891,-1.2891,-1.0795,-0.9316,-0.8804,-0.5982,-0.4519,-0.4519,-0.881,-1.2041,-1.4218,-1.3747,-1.4239,-1.5508,-1.6343,-1.6083,-1.5084,-1.5976,-1.5466,-1.4029,0.0,-1.405,-1.3956,-1.319,-1.2891,-1.2891,-1.2891,-1.2891,-1.2891,-1.2891,-1.3399,-1.4516,-1.6717,-1.7291,0.0,0.0,0.0,0.0,0.0,0.0,0.0,0.0,0.0,-2.3257,0.0,0.0,0.0,0.0,0.0,0.0,0.0,0.0,0.0,0.0,0.0,0.0,0.0,0.0,0.0,0.0,0.0,0.0,0.0,-2.1283,-2.1545,-2.1118,-2.0732,-2.0545,-2.0532,-2.0524,-2.0785,-2.1303,-2.1878,-2.2386,-2.293,-2.3065,-2.3065,-2.3065,-2.2469,-2.1846,-2.1305,-2.1171,-2.0765,-2.0029,-2.0715,-2.0857,-2.0566,-2.0566,-2.0566,-2.0566,-2.0566,-2.1484,-2.2832,-2.3066,-2.3144,-2.3144,0.0,-0.1925,-0.4316,-0.6592,-1.0086,-1.2656,-1.2852,-1.2891,-1.2891,-1.2891,-1.2891,-1.1868,-0.912,-0.9068,-1.0233,-1.2676,-1.2891,-1.1868,-0.942,-1.1551,-1.2891,-1.2891,-1.2627,-1.1301,-0.8857,-0.5982,-0.4519,-0.4519,-1.3871,-1.8636,-1.8873,-1.6881,-1.6699,-1.8143,-1.7693,-1.6995,-1.6164,-1.584,-1.4926,-1.3752,-1.3794,-1.3815,0.0,-1.3162,-1.2891,-1.2891,-1.2891,-1.2891,-1.2891,0.0,-1.3399,-1.4505,0.0,-1.7297,-1.7694,-2.0185,0.0,0.0,0.0,0.0,0.0,0.0,-2.4144,0.0,0.0,0.0,0.0,0.0,0.0,0.0,0.0,0.0,0.0,0.0,0.0,0.0,0.0,0.0,0.0,0.0,0.0,0.0,0.0,-2.2003,-2.1046,-1.9431,-1.9677,-1.9883,-1.9886,-1.9913,-2.019,-2.0736,-2.1313,-2.1823,-2.237,-2.2845,-2.3065,-2.3065,-2.303,-2.2543,-2.1871,-2.2724,-2.2107,-2.0585,-2.1734,-2.1603,-2.0566,-2.0566,-2.0566,-2.0566,-2.0566,-2.0996,-2.1738,-2.2754,-2.3144,-2.3144,0.0,-0.0807,-0.2273,-0.4604,-0.8058,-1.0541,-1.0541,-1.1868,-1.2891,-1.2891,-1.1501,-1.0079,-0.891,-0.8804,-0.9263,-1.0438,0.0,-0.9325,0.0,0.0,-1.0541,-1.0541,-1.0541,-0.9207,-0.6362,-0.5117,-0.5336,-0.7009,-1.5536,-1.969,-1.969,-1.9228,-1.8654,-1.7903,-1.7531,-1.6715,-1.5592,-1.479,-1.3752,0.0,0.0,0.0,0.0,-1.2706,-1.2891,-1.2891,-1.2891,-1.2891,-1.2891,0.0,-1.3399,0.0,0.0,0.0,0.0,0.0,0.0,0.0,0.0,0.0,0.0,0.0,0.0,0.0,-2.1921,0.0,-2.227,0.0,0.0,0.0,0.0,0.0,0.0,0.0,-2.2626,0.0,0.0,0.0,0.0,0.0,0.0,0.0,0.0,0.0,0.0,0.0,-1.9903,-1.9947,-2.037,-1.9991,-2.024,-2.115,-2.1393,-2.1897,-2.276,-2.298,-2.3065,-2.3065,-2.2128,-2.1565,-2.1491,-2.0662,-2.0232,-2.0219,-2.0487,-2.0607,-2.0547,-2.0215,-2.0273,-2.0566,-2.0566,-2.1016,-2.168,-2.166,-2.2285,-2.3144,0.1091,0.0555,-0.0819,-0.341,-0.6611,-0.9068,-0.9821,-1.0998,-1.1751,-1.1751,-1.0028,-0.8804,-0.8804,-0.8804,-0.8804,-0.8804,-0.8804,-0.7557,0.0,0.0,-0.8421,-0.7664,-0.761,0.0,-0.571,-0.5655,-0.7382,-1.0898,-1.6212,-1.9118,-1.9726,-2.0499,-1.9863,-1.8032,-1.7754,-1.6926,-1.5627,-1.4586,-1.3042,-1.1366,-1.1431,-1.1299,-1.1082,-1.1999,-1.2559,-1.2891,-1.2891,-1.2891,-1.2891,-1.2891,-1.3399,0.0,-1.4471,0.0,0.0,0.0,0.0,0.0,-2.0898,0.0,0.0,0.0,0.0,0.0,0.0,0.0,0.0,0.0,0.0,0.0,0.0,0.0,0.0,-2.2651,0.0,-2.2054,0.0,0.0,0.0,0.0,0.0,0.0,0.0,0.0,0.0,0.0,0.0,-1.976,-2.0286,-2.0118,-2.0467,-2.1462,-2.1635,-2.2128,-2.3065,-2.3065,-2.298,-2.276,-2.1525,-2.0892,-2.0599,-1.9157,-1.8883,-1.9551,-1.9492,-1.9805,-2.0371,-2.0078,-2.0195,-2.0566,-2.0566,-2.0957,-2.1445,-2.0801,-2.1077,-2.1926,0.3779,0.1985,-0.0941,-0.3952,-0.6881,-0.9666,-1.2363,-1.0592,-0.891,-0.891,-0.8857,0.0,0.0,0.0,0.0,0.0,0.0,-0.7557,-0.4677,0.0,-0.7557,-0.4732,-0.4622,-0.5873,0.0,-0.8646,-1.118,-1.6281,-1.6497,-1.7653,-1.9726,-2.0326,-2.0258,-1.9588,-1.8993,-1.8226,-1.7223,-1.5835,-1.3307,-1.0269,-1.0661,-1.1065,-1.1434,0.0,-1.1683,-1.2891,-1.2891,0.0,0.0,-1.2891,-1.333,0.0,0.0,0.0,0.0,0.0,0.0,0.0,0.0,0.0,0.0,-2.0214,0.0,0.0,0.0,0.0,-2.2623,0.0,0.0,0.0,0.0,0.0,-2.2333,-2.2299,-2.1587,0.0,0.0,0.0,0.0,0.0,0.0,0.0,0.0,0.0,0.0,0.0,0.0,0.0,-1.9082,-2.0062,-2.0945,-2.1468,-2.1975,-2.2534,-2.3065,-2.3065,-2.2735,-2.1958,-2.1892,-2.0955,-1.9401,-1.9729,-1.9381,-1.873,-1.9551,-1.9902,-1.9961,-2.0371,-2.0547,-2.0566,-2.0566,-2.0586,-2.0605,-2.0586,-1.9625,-1.8816,0.4313,0.2095,-0.0954,-0.3984,-0.5336,-0.6891,-0.9755,-0.942,-0.8804,0.0,0.0,0.0,0.0,-0.8804,-0.8804,0.0,0.0,-0.7557,-0.4677,-0.5391,0.0,0.0,0.0,-0.4952,0.0,0.0,-1.0559,-1.4118,-1.5712,-1.7598,-1.969,-1.9413,-1.9075,-1.8737,-1.7542,-1.6597,0.0,0.0,0.0,0.0,0.0,-1.0115,-1.1065,0.0,0.0,-1.2178,-1.2178,-1.2098,0.0,-1.2153,-1.2483,-1.292,-1.3343,-1.3811,-1.4279,-1.4698,-1.4906,0.0,0.0,0.0,-1.6532,-1.7776,0.0,0.0,0.0,0.0,0.0,0.0,0.0,0.0,0.0,0.0,-2.0782,-2.0958,-2.0699,-2.0431,0.0,0.0,0.0,0.0,0.0,0.0,0.0,0.0,0.0,0.0,-1.8915,0.0,-1.9638,-1.994,-2.0514,-2.1468,-2.168,-2.1938,-2.2321,-2.2346,-2.1874,-2.102,-2.0462,-2.0004,-1.9712,-1.8975,-1.8795,-1.9062,-1.9062,-1.9394,-1.9922,-2.0078,-2.0312,-2.0566,-2.0566,-2.0566,-2.0566,-2.0566,-1.8935,-1.6728,0.4519,0.2063,-0.095,-0.3959,-0.5328,-0.6308,-0.7117,0.0,0.0,0.0,-0.8804,0.0,-0.8804,0.0,-0.8804,0.0,-0.7877,-0.647,-0.4629,-0.4519,0.0,-0.4834,-0.4635,0.0,0.0,0.0,0.0,-1.2891,-1.4468,-1.6378,-1.8588,-1.8855,-1.8731,-1.818,-1.7103,-1.5952,-1.4676,-1.2724,-1.1099,0.0,0.0,-0.951,0.0,0.0,-1.1266,-1.1715,0.0,-1.0965,-1.1316,-1.1661,-1.1987,-1.2299,-1.2754,-1.3076,-1.333,-1.3468,-1.3468,-1.3675,-1.4558,-1.4437,0.0,-1.569,-1.5729,0.0,-1.6759,0.0,0.0,0.0,0.0,0.0,0.0,0.0,-1.9916,-1.9928,-1.9997,-1.9849,0.0,-1.8817,0.0,0.0,0.0,0.0,0.0,0.0,0.0,-1.8768,-1.8737,-1.8973,0.0,0.0,-2.0539,-2.1468,-2.1681,-2.1823,-2.1934,-2.1916,-2.129,-2.0147,-1.9589,-1.9301,-1.9213,-1.8378,-1.8418,-1.9121,-1.8848,-1.918,-1.9922,-2.0078,-2.0312,-2.0566,-2.0566,-2.0566,-2.0566,-2.0566,-1.9241,-1.7384,0.4291,0.1955,-0.095,-0.3959,-0.674,0.0,0.0,0.0,-0.5492,0.0,-0.8699,-0.8804,-0.8804,-0.8804,-0.8752,-0.8593,-0.6091,-0.4519,-0.4519,-0.4546,0.0,0.0,-0.4828,-0.4574,-0.4739,0.0,0.0,0.0,-1.2725,-1.3956,-1.6367,-1.8377,-1.8826,-1.7826,-1.7566,-1.6217,-1.4071,-1.3024,-1.113,-0.8804,-0.8804,-0.9368,-1.0167,-0.9858,-1.0559,-1.1466,-0.951,-0.9666,-1.0864,-1.1519,-1.1778,-1.1932,-1.2686,-1.2891,-1.2891,-1.2891,-1.2891,-1.3008,-1.333,-1.3419,-1.3551,-1.3992,0.0,0.0,0.0,0.0,-1.7906,0.0,0.0,0.0,0.0,0.0,0.0,-1.9284,-1.9379,-1.917,-1.821,-1.8052,0.0,0.0,0.0,0.0,0.0,0.0,-1.7508,-1.8096,-1.8155,-1.8455,0.0,0.0,-2.097,-2.1468,-2.203,-2.2187,-2.1849,-2.1878,-2.0945,-1.9213,-1.9213,-1.8839,-1.8008,-1.8008,-1.832,-1.8887,-1.8906,-1.9297,-1.9941,-2.0391,-2.0566,-2.0566,-2.0566,-2.0489,-2.0313,-2.0313,-2.0293,-1.9925,0.1174,0.0504,-0.095,0.0,-0.5117,-0.5336,0.0,0.0,0.0,0.0,-0.745,-0.8804,-0.8804,-0.8804,-0.7931,-0.5764,-0.4952,0.0,0.0,0.0,0.0,-0.4766,-0.4601,-0.5492,-0.7664,-0.8421,0.0,-0.9873,0.0,-1.1216,-1.3836,-1.4402,-1.4471,-1.4286,-1.5058,-1.4041,-1.1657,-1.1414,-1.034,-0.8804,-0.8804,-0.9263,-0.9858,0.0,-0.9562,-1.0269,-0.9718,-0.9769,-1.0167,-1.083,-1.1384,-1.1931,-1.2676,-1.2891,-1.2891,-1.2891,-1.2891,-1.2803,-1.2366,-1.2234,-1.2232,-1.2222,-1.1983,-1.2139,0.0,0.0,0.0,0.0,0.0,0.0,0.0,0.0,0.0,-1.7986,-1.8365,-1.8288,0.0,0.0,0.0,-1.6752,0.0,0.0,0.0,0.0,-1.717,-1.6822,-1.7691,-1.8189,-1.8184,0.0,0.0,-2.1468,-2.204,-2.1832,-2.0972,-2.0906,-2.0075,-1.8291,-1.8291,-1.8203,-1.8008,-1.8008,-1.8251,-1.8705,-1.9243,-1.9668,-1.9941,-2.0391,-2.0157,-1.9529,-2.0333,-1.8621,-1.5794,-1.5794,-1.6324,-1.6934,0.028,0.0,0.0,-0.3959,0.0,0.0,-0.4519,0.0,0.0,-0.4519,-0.5928,0.0,-0.6902,-0.6902,-0.6253,-0.4622,-0.4519,0.0,-0.4519,0.0,0.0,-0.4532,-0.4519,-0.5873,-0.8752,-0.8804,0.0,-0.8804,0.0,-0.9577,-1.1099,-1.1099,-1.1099,-1.115,-1.1828,-1.1282,-0.9909,-0.9909,-0.951,-0.8804,-0.8804,-0.9015,0.0,-0.8962,-0.9054,-0.9368,-0.9368,-0.9368,-0.951,-1.0458,-1.1032,-1.1501,-1.2197,-1.2412,-1.2363,-1.2067,-1.2097,-1.2115,-1.1683,-1.1569,-1.1456,-1.1081,-1.0866,-1.1038,-1.2163,-1.2724,-1.353,0.0,0.0,0.0,0.0,0.0,0.0,-1.6745,-1.7408,0.0,0.0,0.0,0.0,0.0,0.0,0.0,0.0,-1.6471,-1.6896,-1.68,-1.7644,-1.8261,0.0,0.0,0.0,-2.1506,-2.1882,-2.1583,-2.0614,-2.0424,-1.9499,-1.8008,-1.8008,-1.8008,-1.8008,-1.8008,-1.838,-1.9114,-1.9535,-1.9926,-2.0215,-1.9984,-1.9844,-1.9766,-2.0333,-1.8209,-1.4843,-1.4843,-1.5257,-1.5832,0.1118,0.028,0.0,0.0,0.0,0.0,0.0,-0.4519,0.0,-0.5007,0.0,-0.4608,-0.4525,-0.4519,-0.4519,-0.4519,0.0,-0.4519,-0.4519,-0.4519,-0.4519,-0.4519,-0.4519,-0.5873,-0.8752,-0.8804,0.0,0.0,-0.8593,-0.8804,-0.8804,-0.9159,-0.9159,-0.8804,-0.8804,-0.8699,-0.854,-0.8699,-0.8699,-0.854,-0.8699,-0.8752,-0.8646,-0.8752,-0.8804,-0.8804,-0.8804,-0.8857,-0.9106,-1.0269,-1.0712,-1.0931,-1.1519,-1.174,-1.1657,-1.1096,-1.1113,-1.1349,-1.1267,-1.1231,-1.1038,-1.0409,-1.0409,-1.076,-1.1464,-1.2307,-1.3339,-1.4639,-1.5078,-1.5176,0.0,0.0,0.0,0.0,0.0,0.0,0.0,0.0,0.0,0.0,0.0,0.0,0.0,0.0,-1.6573,-1.7099,-1.7784,-1.838,0.0,0.0,0.0,-2.1297,-2.1582,-2.1315,-2.0531,0.0,-1.9213,-1.8095,-1.8008,-1.8008,-1.8008,-1.7833,-1.8466,-1.9603,-1.9522,-1.9771,-2.0333,-1.9529,-1.9766,-2.0566,-2.0001,-1.8124,-1.5832,-1.5832,-1.5832,-1.5832,0.3793,0.0,0.0,0.0,0.0,-0.4519,-0.4519,-0.4519,-0.5336,-0.7717,-0.6387,-0.5075,-0.4573,-0.4519,-0.4519,-0.4519,-0.4519,0.0,0.0,0.0,0.0,-0.4519,-0.4519,-0.5873,-0.8752,-0.8804,-0.761,0.0,-0.761,-0.8804,-0.8857,-1.1099,-1.0998,-0.8804,-0.8804,-0.8103,-0.7074,-0.8262,0.0,-0.7074,-0.8315,-0.8434,-0.7943,-0.8593,-0.8804,-0.8804,-0.8804,-0.9159,-0.9666,-0.9909,-1.0372,-1.0863,-1.1281,-1.1391,-1.1415,-1.1523,-1.1573,-1.15,-1.0957,-1.0784,-1.0637,-0.998,-0.9854,-1.0335,-1.2012,-1.2547,-1.3158,-1.4946,-1.4805,-1.4551,-1.5195,0.0,0.0,0.0,0.0,0.0,0.0,0.0,0.0,0.0,0.0,0.0,0.0,0.0,0.0,-1.5679,-1.7242,-1.8164,0.0,0.0,0.0,0.0,-2.1367,0.0,0.0,0.0,-1.9124,-1.8466,-1.8183,-1.8008,-1.794,-1.6924,-1.7483,-1.9315,-1.8527,-1.8608,-1.9304,-2.0039,-2.0411,-2.0235,-1.6601,-1.5483,-1.5832,-1.5832,-1.5832,-1.5832,0.0,0.0,0.0,0.0,0.0,0.0,0.0,-0.4519,0.0,-0.6362,-0.5636,-0.4841,-0.4553,-0.4519,-0.4519,-0.4519,-0.4519,-0.4519,-0.4519,-0.4519,-0.4519,-0.4519,-0.4519,0.0,-0.6524,-0.6578,-0.5873,-0.4519,-0.5873,-0.7331,-0.8804,-1.0131,-1.0079,-0.8804,-0.8804,-0.8421,-0.7717,0.0,0.0,-0.6642,-0.7396,-0.7622,-0.7622,-0.8487,-0.8804,-0.8804,-0.8804,-0.9015,-0.9316,-0.9666,-1.0135,-1.0567,-1.0739,-1.0864,-1.0943,-1.0723,-1.0681,-1.061,-1.0443,-1.0268,-1.0122,-0.9795,-0.9724,-1.0137,-1.1663,-1.2314,-1.2986,-1.441,-1.4766,-1.4752,-1.4789,-1.4659,0.0,0.0,0.0,0.0,0.0,0.0,0.0,0.0,0.0,0.0,0.0,0.0,0.0,0.0,0.0,0.0,0.0,0.0,0.0,0.0,0.0,0.0,0.0,0.0,0.0,-1.8203,-1.7605,-1.7026,-1.6564,-1.6276,-1.6678,-1.7726,-1.7681,-1.783,-1.8129,-1.8638,-1.8221,-1.7009,-1.4894,-1.4429,-1.463,-1.2533,-1.1736,-1.2124,0.0,0.0,0.0,0.0,-0.1991,0.0,-0.3566,-0.407,-0.4519,-0.4519,-0.4519,-0.4519,-0.4519,-0.4519,-0.4519,-0.4519,-0.4519,-0.4519,-0.4519,-0.4519,-0.4519,-0.4519,-0.4519,-0.4519,-0.4519,-0.4519,-0.4519,0.0,-0.4649,-0.5763,-0.7877,-0.8527,-0.8804,-0.8765,-0.8282,0.0,0.0,0.0,-0.5819,-0.6209,-0.6658,-0.7062,-0.7432,-0.8457,-0.8898,-0.8884,-0.8831,-0.8844,-0.8951,-0.9506,-0.9824,-1.0071,-1.0202,-1.0421,-1.0494,-1.0007,-0.9833,-0.9846,-1.0032,-0.9913,-0.971,-0.9767,-0.9765,-1.0037,-1.1366,-1.2164,-1.2917,-1.401,-1.4883,-1.5196,-1.4458,-1.4276,0.0,0.0,0.0,0.0,0.0,0.0,0.0,0.0,0.0,0.0,0.0,0.0,0.0,0.0,0.0,-1.8209,-1.819,-1.9783,-2.0772,0.0,0.0,-2.1237,-2.1179,0.0,-1.867,-1.7745,-1.6794,-1.5946,-1.5389,-1.5593,-1.5829,-1.6076,-1.6818,-1.7119,-1.7008,-1.6714,-1.5717,-1.4269,-1.4135,-1.3809,-1.3126,-1.0314,-0.8706,-0.8627,0.0,0.0,0.0,0.0,0.0,0.0,-0.0448,-0.2734,-0.4519,-0.4519,-0.4519,-0.4519,-0.4519,-0.4519,-0.4519,-0.4519,-0.4519,-0.4519,-0.4519,-0.4519,-0.4519,-0.4519,-0.4519,-0.4519,-0.4519,-0.4519,-0.4519,0.0,-0.5068,-0.5178,-0.4952,-0.7557,-0.8804,-0.8685,0.0,0.0,0.0,-0.4732,-0.4684,-0.4864,-0.6925,-0.7518,-0.7284,-0.8639,-0.915,-0.911,-0.8898,-0.8978,-0.9192,-0.9247,-0.9274,-0.9381,-0.9919,-1.0107,-1.0188,-1.0421,-1.0287,-1.004,-1.0064,-0.9901,-0.9781,-0.9986,-0.986,-1.018,-1.192,-1.2489,-1.2986,-1.4447,-1.5098,-1.5293,-1.479,-1.3884,-1.3365,0.0,0.0,0.0,0.0,0.0,0.0,0.0,0.0,0.0,0.0,-1.2706,0.0,0.0,-1.6551,-1.8209,-1.819,-1.9783,-2.0232,-1.9171,0.0,-1.9633,-1.8913,-1.7552,-1.7005,-1.7222,-1.599,-1.5585,-1.5946,-1.4844,-1.4799,-1.5452,-1.5496,-1.5836,-1.6178,-1.4909,-1.4561,-1.483,-1.4295,-1.2988,-1.1535,-1.2988,-1.1161,-0.8038,0.0,0.0,0.0,0.0,0.0,0.0,0.0,-0.1006,-0.1785,-0.1785,-0.34,-0.4519,-0.4519,-0.4519,-0.4519,-0.4519,-0.4519,-0.4519,-0.4519,-0.4519,-0.4519,-0.4519,-0.4519,-0.4519,-0.4519,-0.4519,-0.4519,0.0,0.0,-0.6011,-0.8203,-0.8631,-0.8046,0.0,0.0,-0.4745,-0.4519,-0.4519,-0.4519,-0.4588,-0.5653,-0.6462,-0.7224,-0.8213,-0.8957,-0.9472,-0.9178,-0.9259,-0.9512,-0.9512,-0.9619,-0.9806,-1.0047,-1.0234,-1.0408,-1.0591,-1.0221,-0.9959,-1.0315,-0.9892,-0.9451,-0.9753,-0.961,-0.9646,-1.0623,-1.1615,-1.2535,-1.324,-1.4275,-1.4867,-1.4185,-1.3357,-1.3059,0.0,0.0,0.0,0.0,0.0,0.0,0.0,0.0,0.0,0.0,0.0,-1.4291,0.0,0.0,-1.8371,-1.8724,-1.9991,-2.0538,-2.027,0.0,-1.9454,-1.894,-1.7283,-1.624,-1.5888,-1.4992,-1.4396,-1.407,-1.3751,-1.4009,-1.4656,-1.4572,-1.4754,-1.4867,-1.4362,-1.4229,-1.4396,-1.3302,-1.2194,-1.1161,-1.198,-1.0473,-0.8038,0.0,0.0,0.0,0.0,0.0,0.0,0.0,0.0,0.0,0.0,-0.1843,-0.3511,-0.4408,-0.4519,-0.4519,-0.4519,-0.4519,-0.4519,-0.4519,-0.4519,-0.4519,-0.4519,-0.4519,0.0,-0.4519,-0.4519,-0.4519,-0.4519,-0.4519,-0.6567,-1.0528,-0.8494,0.0,0.0,-0.4711,-0.4519,-0.4519,-0.4519,-0.4573,-0.4606,-0.4779,-0.5659,-0.7022,-0.7996,-0.8824,-0.9401,-0.9359,-0.9566,-0.9806,-0.9806,-1.0007,-1.0234,-1.014,-1.0314,-1.0604,-1.0461,-1.014,-0.9886,-1.0207,-0.978,-0.923,-0.9499,-0.9392,-0.937,-0.9921,-1.1201,-1.2444,-1.3222,-1.4201,-1.4752,-1.4053,-1.3217,-1.2805,-1.3409,0.0,0.0,0.0,0.0,0.0,0.0,-1.1438,-1.1416,-1.1216,-1.2965,0.0,0.0,0.0,0.0,-1.9248,-1.9706,0.0,0.0,0.0,0.0,0.0,-1.6396,-1.5283,-1.4621,-1.3947,-1.3411,-1.2998,-1.3287,-1.3732,-1.4082,-1.4082,-1.4082,-1.4095,-1.4277,-1.426,-1.4004,-1.1731,-1.1087,-1.1278,-1.0435,-0.9292,-0.8038,0.0,0.0,0.0,0.0,0.0,0.0,0.0,0.0,0.0,0.0,-0.0056,-0.1174,-0.4181,-0.4519,-0.4519,-0.4519,-0.4519,-0.4519,-0.4519,-0.4519,-0.4519,0.0,0.0,-0.4519,-0.4519,-0.4519,-0.4519,-0.4519,0.0,0.0,-1.0528,0.0,-0.4519,-0.4525,-0.4519,-0.4519,-0.4519,-0.4519,-0.4633,-0.4904,-0.4802,-0.5449,-0.6563,-0.8169,-0.8795,-0.8882,-0.9473,-0.986,-1.0114,-1.0114,-1.0314,-1.0564,-1.0207,-1.0314,-1.0501,-1.0207,-1.0114,-1.0047,-0.9766,-0.9472,-0.919,-0.919,-0.919,-0.9479,-1.0492,-1.1684,-1.3089,-1.5003,-1.5391,-1.5273,-1.4863,-1.3579,-1.2464,-1.2025,0.0,0.0,0.0,0.0,0.0,0.0,-1.0813,-1.0559,-0.9858,0.0,0.0,0.0,0.0,0.0,0.0,0.0,0.0,-1.8301,-1.6576,0.0,-1.5286,-1.4263,-1.3725,-1.3727,-1.2736,-1.2751,-1.351,-1.3886,-1.4068,-1.4082,-1.4082,-1.4082,-1.4095,-1.4558,-1.4706,-1.4281,-0.9799,-0.96,-1.1551,-0.9015,-0.8038,-0.8038,0.0,0.0,0.0,0.0,0.0,0.0,0.0,0.0,0.0,0.0,0.0,-0.0392,-0.1341,-0.3289,-0.4519,0.0,-0.4519,-0.4519,0.0,-0.4519,-0.4519,-0.4519,-0.4519,-0.5437,-0.7396,-0.5492,-0.5437,-0.745,0.0,0.0,0.0,-0.5106,-0.4519,-0.4408,-0.2341,-0.2563,-0.4519,-0.4519,-0.464,-0.4925,-0.4952,-0.5686,-0.6768,-0.7385,-0.8609,-1.0082,-1.0252,-1.0341,-1.0354,-0.9953,-1.002,-1.0207,-0.9913,-1.0167,-1.0604,-1.0448,-1.0274,-1.01,-1.0007,-0.9766,-0.9539,-0.9539,-0.9539,-0.9623,-0.9935,-1.0872,-1.2011,-1.3141,-1.3543,-1.3407,-1.22,-1.1687,-1.1371,-1.1246,-1.0254,0.0,0.0,0.0,0.0,0.0,-1.0269,-1.0509,0.0,-1.1195,0.0,0.0,0.0,0.0,0.0,0.0,0.0,0.0,-1.6235,0.0,-1.4205,-1.3258,-1.2746,-1.2736,-1.2844,-1.324,-1.3899,-1.4082,-1.4229,-1.4469,-1.4202,-1.4202,-1.4389,-1.4556,-1.473,-1.4668,-1.2161,-1.0404,-0.9114,-0.8336,-0.8038,-0.8038,0.0,0.0,0.0,0.0,0.0,0.0,0.0,0.0,0.0,0.0,0.0,0.0,0.0,-0.1673,0.0,-0.4408,-0.4519,-0.4519,-0.4519,-0.4519,-0.4519,-0.4519,-0.4519,-0.5458,-0.7475,-0.6582,0.0,-0.9459,-0.6128,-0.3904,-0.2785,-0.2785,-0.2785,-0.2734,-0.0838,-0.1673,-0.4532,-0.4759,-0.4911,-0.5087,-0.5148,-0.5863,-0.6813,-0.75,-0.8742,-1.0174,-1.0491,-1.0488,-1.0341,-0.9967,-0.9886,-0.994,-0.9873,-1.01,-1.0394,-1.0394,-1.0341,-1.0234,-1.0007,-0.99,-0.9793,-0.9566,-0.9686,-0.9991,-1.0384,-1.1032,-1.1707,-1.25,-1.2745,-1.2511,-1.1339,-1.0913,-1.068,-1.0504,-0.9517,-0.903,-0.9785,0.0,0.0,0.0,0.0,0.0,0.0,-1.088,-1.1511,0.0,0.0,0.0,0.0,0.0,0.0,-1.6911,-1.498,0.0,-1.3201,-1.2572,-1.2378,-1.2479,-1.3088,-1.3548,-1.3921,-1.4041,-1.4229,-1.4456,-1.3536,-1.3237,-1.3473,-1.3374,-1.3963,-1.485,-1.3121,-1.0645,-0.8038,-0.8038,-0.8038,-0.8038,0.0056,0.0168,0.0,0.0,0.0,0.0,0.028,0.0112,0.0,0.0,0.0,0.0,0.0,0.0,-0.1118,-0.3959,0.0,0.0,0.0,-0.4519,-0.4519,-0.4519,-0.4519,-0.48,-0.5418,-0.7443,-0.9097,-1.0238,-0.6374,-0.3067,-0.0336,-0.0336,-0.0224,0.0,-0.0283,-0.1925,-0.4615,-0.5185,-0.5425,-0.5425,-0.5425,-0.5881,-0.6785,-0.8086,-0.8935,-0.946,-1.0238,-1.0319,-1.014,-1.01,-0.9927,-0.9753,-1.0007,-1.01,-1.0114,-1.014,-1.0341,-1.0497,-0.9873,-0.9927,-1.0007,-0.9389,-0.9726,-1.039,-1.1458,-1.1703,-1.1888,-1.2671,-1.2592,-1.2291,-1.1824,-1.0989,-1.0249,-0.9814,-0.9211,-0.8804,-0.8857,0.0,0.0,0.0,0.0,0.0,0.0,-1.081,-1.0784,0.0,0.0,0.0,0.0,0.0,-1.4044,-1.4866,-1.3186,-1.2305,-1.2305,-1.2218,-1.2345,-1.2763,-1.327,-1.352,-1.3681,-1.3961,-1.4108,-1.4064,-1.2405,-1.1725,-1.1671,-1.1294,-1.2557,-1.4579,-1.263,-1.0311,-0.8038,-0.8038,-0.8038,-0.8038,0.0,0.0,0.273,0.0392,0.0,0.0783,0.3067,0.1509,0.0,0.0,0.0,0.0,0.0,0.0,-0.028,-0.1006,-0.3178,-0.4519,-0.4519,-0.4519,-0.4519,-0.4519,-0.4519,-0.48,-0.5418,-0.5467,-0.586,-0.6597,-0.5225,-0.4125,-0.3456,-0.3456,-0.223,-0.0113,-0.2903,-0.4504,-0.5226,-0.537,-0.5425,-0.5425,-0.5425,-0.5491,-0.5749,-0.6079,-0.7902,-1.0174,-0.946,-0.9742,-1.0381,-0.994,-0.9886,-0.998,-0.9833,-0.994,-1.0167,-1.0394,-1.0564,-1.0474,-1.0114,-1.0234,-1.0367,-1.0007,-1.018,-1.0537,-1.0856,-1.087,-1.0864,-1.0812,-1.076,-1.0533,-0.9925,-0.966,-0.9412,-0.9109,-0.891,-0.8962,-0.951,-0.9806,0.0,0.0,-1.0257,-1.026,-0.9508,-0.9852,-1.0082,0.0,0.0,0.0,0.0,-1.1845,-1.2521,-1.3684,-1.2825,-1.2305,-1.2305,-1.155,-1.1395,-1.1922,-1.2106,-1.2765,-1.3988,-1.4055,-1.4255,-1.4522,-1.3832,-1.2342,-1.0404,-1.0206,-1.087,-1.2059,-1.1915,-1.0323,-0.8038,-0.8038,-0.8038,-0.8038,0.2397,0.34,0.3959,0.2341,0.2063,0.2619,0.4236,0.1952,0.0,0.0,0.0,0.0,0.0,0.0,0.0,0.0,-0.273,-0.4519,-0.4519,-0.4519,-0.4519,-0.4519,-0.4786,-0.5088,-0.5418,-0.5102,-0.4958,-0.5013,-0.3306,-0.2863,-0.3646,-0.3499,-0.2763,-0.1561,-0.337,-0.464,-0.5425,-0.5425,-0.5425,-0.5425,-0.5425,-0.5425,-0.5425,-0.5425,-0.7251,-0.9716,-0.9204,-0.9642,-1.0314,-0.9993,-0.99,-0.9913,-0.9886,-0.9993,-1.018,-1.0474,-1.0618,-1.0551,-1.0194,-1.0327,-1.0591,-1.0354,-1.0448,-1.0618,-1.0618,-1.0301,-0.9933,-0.9781,-0.9642,-0.9354,-0.8927,-0.9045,-0.9097,-0.8858,-0.9054,-0.9368,-0.9769,-1.0202,0.0,-1.024,-1.0498,-1.0365,-0.969,-0.9913,-1.01,-1.0114,-1.0247,0.0,-1.1196,-1.1356,-1.1832,-1.2828,-1.2012,-1.1636,-1.1636,-1.0785,-1.0539,-1.091,-1.1075,-1.1944,-1.3294,-1.3149,-1.3531,-1.4303,-1.1899,-1.0086,-0.8649,-0.8718,-0.9007,-0.9571,-0.9947,-0.9213,-0.8038,-0.8038,-0.8038,-0.8038,0.4519,0.4519,0.4519,0.4519,0.4519,0.4519,0.4519,0.2341,0.0672,0.0672,0.028,0.0,0.0,0.0,0.0,0.0,-0.2341,-0.4015,-0.4463,-0.4519,-0.4519,-0.4519,-0.5013,-0.5336,-0.5425,-0.4888,-0.4595,-0.4656,-0.2011,-0.1381,-0.2704,-0.2707,-0.2975,-0.3535,-0.3171,-0.394,-0.5425,-0.5425,-0.5425,-0.5425,-0.5425,-0.5425,-0.5425,-0.5425,-0.6793,-0.8807,-0.9011,-0.9568,-1.018,-1.0127,-0.998,-0.9846,-1.0047,-1.014,-1.0234,-1.0551,-1.0618,-1.0564,-1.0247,-1.0367,-1.0618,-1.0618,-1.0491,-1.0428,-1.0428,-0.9716,-0.9064,-0.9029,-0.8896,-0.8714,-0.8457,-0.8852,-0.9123,-0.8965,-0.9362,-0.9754,-0.9903,0.0,-1.0919,-1.0521,-1.0667,-1.0509,-0.9979,-1.0194,-1.0349,-1.0261,-1.0488,-1.0768,-1.1102,-1.1356,-1.1673,-1.2057,-1.1243,-1.0677,-1.037,-0.9863,-0.961,-0.9666,-1.0076,-1.0875,-1.2003,-1.1877,-1.249,-1.3307,-0.8965,-0.7143,-0.7156,-0.7329,-0.7463,-0.7631,-0.7923,-0.8038,-0.8038,-0.8038,-0.8038,-0.8038,0.4519,0.4519,0.4519,0.4519,0.4519,0.4519,0.4519,0.4125,0.3788,0.3788,0.1564,0.0,0.0,0.0,0.0,0.0,-0.0448,-0.1785,-0.4346,-0.4519,-0.4519,-0.4519,-0.4608,-0.4896,-0.5418,-0.2415,-0.2261,-0.5288,-0.4261,-0.3431,-0.2744,-0.4179,-0.4785,-0.4655,-0.4607,-0.4892,-0.5425,-0.5425,-0.5425,-0.5425,-0.5425,-0.5425,-0.5425,-0.5425,-0.6793,-0.8742,-0.8355,-0.9233,-1.0448,-1.0207,-1.0247,-1.0456,-1.018,-1.0287,-1.0501,-1.0604,-1.0618,-1.0618,-1.0564,-1.0591,-1.0618,-1.0618,-1.0047,-0.9536,-0.9536,-0.8807,-0.8099,-0.785,-0.8326,-0.8714,-0.8457,-0.8852,-0.9312,-0.9512,-0.9381,-0.9577,-1.0431,0.0,-0.9836,-0.9619,-0.9351,-0.9101,-0.8979,-0.9304,-0.9866,-1.077,-1.0902,-1.1156,-1.1703,-1.1784,-1.1585,-1.1081,-1.0846,-0.9991,-0.8298,-0.832,-0.8418,-0.8615,-0.884,-0.9639,-1.0937,-1.1467,-1.1532,-1.0961,-0.8273,-0.7143,-0.7143,-0.7464,-0.7556,-0.7631,-0.7923,-0.8038,-0.8038,-0.8038,-0.8038,-0.8038,0.4519,0.4519,0.4519,0.4519,0.4519,0.4519,0.4519,0.4519,0.4519,0.4519,0.3289,0.1785,0.0168,0.0,0.0,0.0,0.0,-0.0616,-0.2007,-0.3622,-0.4519,-0.4519,-0.4519,-0.3846,-0.2495,-0.0847,-0.1745,-0.5425,-0.5143,-0.4702,-0.419,-0.4926,-0.5182,-0.5148,-0.4931,-0.5033,-0.5425,-0.5425,-0.5425,-0.5425,-0.5425,-0.5425,-0.5425,-0.5425,-0.6793,-0.8742,-0.8215,-0.9128,-1.0604,-1.0408,-1.0448,-1.0604,-1.0394,-1.0448,-1.0618,-1.0618,-1.0618,-1.0618,-1.0618,-1.0618,-1.0491,-1.0047,-0.96,-0.9204,-0.8678,-0.7892,-0.7279,-0.7122,-0.7413,-0.7598,-0.7257,-0.8058,-0.864,-0.8352,-0.9123,0.0,0.0,-0.959,-0.9564,-0.9003,-0.8584,-0.8565,-0.9017,-0.9327,-0.9921,-1.0916,-1.1142,-1.141,-1.185,-1.1352,-1.0743,-1.0034,-0.9497,-0.8505,-0.6988,-0.7217,-0.7401,-0.7503,-0.7687,-0.848,-0.9699,-0.9428,-0.9767,-1.0433,-0.8097,-0.7326,-0.7597,-0.7368,-0.7513,-0.7848,-0.7984,-0.8038,-0.8038,-0.8038,-0.8038,-0.8038,0.4519,0.4519,0.4519,0.4519,0.4519,0.4519,0.4519,0.4519,0.4519,0.4519,0.4642,0.3749,0.1289,0.0448,0.0,0.0,0.0,0.0,0.0,-0.2174,-0.3456,-0.3456,-0.3447,-0.2362,-0.0056,0.0,-0.1745,-0.5425,-0.5425,-0.5425,-0.5425,-0.5267,-0.5281,-0.5411,-0.5102,-0.5137,-0.5425,-0.5425,-0.5425,-0.5425,-0.5425,-0.5425,-0.5425,-0.5425,-0.6662,-0.8355,-0.7957,-0.9,-1.0618,-1.0618,-1.0618,-1.0618,-1.0618,-1.0618,-1.0618,-1.0618,-1.0618,-1.0618,-1.0618,-1.0618,-1.0364,-0.9524,-0.9139,-0.8742,-0.7892,-0.7046,-0.64,-0.64,-0.6588,-0.6612,-0.634,-0.7328,-0.799,-0.738,0.0,0.0,0.0,-0.8845,-0.9134,-0.8237,-0.7892,-0.8052,-0.8723,-0.8952,-0.9558,-1.0779,-1.0835,-1.1147,-1.1957,-1.0791,-0.9775,-0.8978,-0.7982,-0.708,-0.6338,-0.6552,-0.6675,-0.6688,-0.6959,-0.7577,-0.8456,-0.7489,-0.8097,-0.9662,-0.7929,-0.7499,-0.8007,-0.7482,-0.7624,-0.8038,-0.8038,-0.8038,-0.8038,-0.8038,-0.8038,-0.8038,0.4519,0.4519,0.4519,0.4519,0.4519,0.4519,0.4519,0.4519,0.4519,0.4519,0.5013,0.5018,0.4238,0.1673,0.0,0.0,0.0,0.0,0.0,-0.0224,-0.0336,-0.0336,-0.0314,-0.0253,0.0,0.0,-0.1745,-0.5425,-0.5425,-0.5425,-0.5425,-0.5411,-0.5411,-0.5425,-0.5397,-0.5397,-0.5425,-0.5425,-0.5425,-0.5425,-0.5425,-0.5425,-0.5425,-0.5425,-0.6145,-0.7242,-0.7177,-0.8667,-1.0618,-1.0618,-1.0618,-1.0618,-1.0618,-1.0618,-1.0618,-1.0618,-1.0618,-1.0618,-1.0618,-1.0618,-1.0364,-0.9524,-0.8678,-0.7892,-0.6981,-0.6137,-0.5491,-0.5491,-0.6137,-0.6711,-0.6702,-0.7175,-0.7674,-0.7876,0.0,0.0,-0.8004,-0.8174,-0.7971,-0.7094,-0.7129,-0.7178,-0.7249,-0.7266,-0.8189,-1.0265,-0.9558,-0.9969,-1.2178,-1.0398,-0.8969,-0.7973,-0.6934,-0.6416,-0.6338,-0.6552,-0.6675,-0.6688,-0.6959,-0.7143,-0.7224,-0.7143,-0.7231,-0.7401,-0.7503,-0.7716,-0.799,-0.7959,-0.7997,-0.8038,-0.8038,-0.8038,-0.8038,-0.8038,-0.8038,-0.8038,0.7171,0.7171,0.6578,0.4787,0.4828,0.4958,0.4573,0.4841,0.4944,0.4567,0.5047,0.5343,0.5109,0.4012,0.2447,0.0189,0.0,0.0,0.0,0.0,0.0,0.0,0.0,0.0,0.0,-0.2232,-0.4018,-0.5425,-0.4284,-0.3951,-0.4289,-0.4289,-0.4289,-0.4289,-0.5093,-0.5425,-0.5418,-0.5294,-0.5142,-0.5101,-0.5284,-0.5356,-0.5253,-0.5377,-0.6013,-0.685,-0.685,-0.8151,-0.9792,-0.9792,-1.0174,-1.0618,-1.0618,-1.0618,-1.0491,-0.9983,-0.9396,-0.9034,-0.9062,-0.945,-0.946,-0.8021,-0.7437,-0.6981,-0.6071,-0.5624,-0.5425,-0.5425,-0.569,-0.5881,-0.5881,-0.6318,-0.6633,-0.6441,0.0,-0.7335,-0.6613,-0.7069,-0.718,-0.6346,-0.6257,-0.6516,-0.7078,-0.725,-0.7925,-0.9301,-0.9227,-0.9499,-1.0421,-0.9205,-0.8069,-0.7051,-0.6739,-0.6532,-0.6451,-0.6624,-0.675,-0.6864,-0.7048,-0.7143,-0.7143,-0.7143,-0.7143,-0.7074,-0.725,-0.7597,-0.8013,-0.8048,-0.8038,-0.8038,-0.8038,-0.8038,-0.8038,-0.8038,-0.8038,-0.8092,0.8804,0.8208,0.7114,0.5151,0.515,0.5288,0.4869,0.5157,0.5281,0.4855,0.5164,0.5425,0.5425,0.5425,0.4422,0.1879,0.1506,0.1006,0.0056,0.0,0.0,0.0,0.0,0.0,0.0,-0.2415,-0.3685,-0.3685,-0.2479,-0.2078,-0.2482,-0.3084,-0.3284,-0.3351,-0.4755,-0.516,-0.4882,-0.508,-0.5114,-0.5074,-0.5277,-0.5343,-0.5233,-0.5377,-0.5749,-0.6268,-0.6268,-0.7307,-0.8613,-0.8613,-0.9128,-0.9779,-0.9779,-0.9841,-0.9709,-0.9125,-0.858,-0.8066,-0.7884,-0.8223,-0.8312,-0.71,-0.6789,-0.6547,-0.5628,-0.5514,-0.5521,-0.5507,-0.5514,-0.5535,-0.5494,-0.5807,-0.5962,-0.5616,-0.6435,-0.6747,-0.5776,-0.6279,-0.652,-0.5947,-0.5915,-0.6162,-0.6822,-0.7045,-0.7568,-0.8393,-0.8493,-0.8494,-0.8494,-0.8207,-0.758,-0.6593,-0.6641,-0.6715,-0.6662,-0.6723,-0.6826,-0.6959,-0.7143,-0.7238,-0.7237,-0.7237,-0.7237,-0.7257,-0.7362,-0.6625,-0.5527,-0.6437,-0.726,-0.7872,-0.7054,-0.6237,-0.5727,-0.7335,-0.8038,-0.8126,0.8818,0.7,0.5425,0.5425,0.5425,0.5425,0.5425,0.5425,0.5425,0.5425,0.5425,0.5425,0.5425,0.5425,0.5425,0.5425,0.4876,0.3239,0.0224,0.0,0.0,0.0,0.0,0.0,0.0,0.0,0.0,0.0,0.0,0.0,-0.0067,-0.181,-0.2676,-0.2809,-0.4556,-0.4755,-0.3689,-0.4894,-0.5425,-0.5425,-0.5425,-0.5425,-0.5425,-0.5425,-0.5425,-0.5425,-0.5425,-0.6137,-0.7111,-0.7111,-0.7502,-0.8021,-0.8032,-0.8118,-0.8165,-0.8165,-0.8314,-0.8192,-0.7362,-0.7078,-0.7078,-0.7078,-0.7007,-0.6668,-0.5797,-0.57,-0.579,-0.5603,-0.57,-0.5768,-0.5786,-0.58,-0.58,-0.58,-0.58,-0.58,-0.58,-0.5935,-0.603,-0.603,-0.6166,-0.6261,-0.6338,-0.639,-0.6885,-0.7718,-0.709,-0.6702,-0.6702,-0.7635,-0.7708,-0.6702,-0.6695,-0.6749,-0.6871,-0.6864,-0.6959,-0.7143,-0.7326,-0.7461,-0.7627,-0.7633,-0.7633,-0.7633,-0.7832,-0.4922,-0.0202,-0.2833,-0.5583,-0.7642,-0.4968,-0.2326,-0.0605,-0.5927,-0.7945,-0.8133,0.9873,0.9494,0.8291,0.5822,0.7447,0.8215,0.5756,0.5425,0.5425,0.5425,0.5425,0.5425,0.5425,0.5425,0.5425,0.5425,0.526,0.4772,0.3819,0.1385,0.0,0.0,0.0,0.0,0.0,0.0,0.0,0.0,0.0,0.0,0.0,-0.0539,-0.1477,-0.2743,-0.3685,-0.4422,-0.4894,-0.5226,-0.5298,-0.5209,-0.5318,-0.5298,-0.5209,-0.5318,-0.5425,-0.5425,-0.5425,-0.6013,-0.685,-0.685,-0.7372,-0.7987,-0.8082,-0.7769,-0.7309,-0.7372,-0.7028,-0.6531,-0.6368,-0.6244,-0.6158,-0.6158,-0.6193,-0.6086,-0.581,-0.5804,-0.5787,-0.5768,-0.5768,-0.5793,-0.5833,-0.58,-0.58,-0.58,-0.5888,-0.5962,-0.5962,-0.6091,-0.6193,-0.6193,-0.6322,-0.6369,-0.6345,-0.6485,-0.6728,-0.6893,-0.6749,-0.6729,-0.6797,-0.7116,-0.7174,-0.6827,-0.6893,-0.7034,-0.7079,-0.6867,-0.6939,-0.7143,-0.7376,-0.7466,-0.7223,-0.7223,-0.7528,-0.7633,-0.4021,-0.1512,-0.0101,-0.0909,-0.1617,-0.2326,-0.1516,-0.0707,-0.0202,-0.1813,-0.5085,-0.8696,1.0483,1.0618,0.9907,0.7837,0.9192,0.9907,0.7762,0.7447,0.699,0.5557,0.5425,0.5425,0.5425,0.5425,0.5425,0.5425,0.5425,0.5425,0.5425,0.3351,0.1477,0.0067,0.0,0.0,0.0,0.0,0.0,0.0,0.0,0.0,0.0,0.0,-0.0941,-0.2743,-0.3351,-0.409,-0.4888,-0.5226,-0.5311,-0.523,-0.5325,-0.5304,-0.523,-0.5325,-0.5425,-0.5425,-0.5425,-0.5749,-0.6203,-0.6203,-0.6531,-0.7025,-0.7188,-0.6912,-0.6596,-0.6649,-0.6368,-0.6003,-0.6098,-0.6051,-0.5983,-0.5983,-0.5935,-0.5888,-0.5888,-0.595,-0.5973,-0.5867,-0.5993,-0.5918,-0.5418,-0.543,-0.5307,-0.4844,-0.5217,-0.5587,-0.5587,-0.6054,-0.6437,-0.6437,-0.6512,-0.6525,-0.6444,-0.6654,-0.6776,-0.6742,-0.677,-0.6871,-0.7128,-0.7025,-0.7046,-0.7136,-0.6681,-0.6415,-0.6532,-0.6937,-0.7149,-0.7326,-0.6822,-0.6918,-0.7428,-0.7428,-0.7633,-0.7839,-0.4622,-0.1913,0.0,0.0,0.0,0.0,0.0,0.0,0.0,0.0,-0.2267,-0.5357,1.0618,1.0618,1.0618,1.0618,1.0618,1.0618,1.0618,1.0618,0.9448,0.6276,0.5624,0.5425,0.5425,0.5425,0.5425,0.5425,0.5425,0.5292,0.4954,0.4888,0.3418,0.0135,0.0,0.0,0.0,0.0,-0.0135,-0.0471,-0.0135,0.0,0.0,0.0,-0.0874,-0.2479,-0.3218,-0.3751,-0.4151,-0.5027,-0.5425,-0.5425,-0.5425,-0.5425,-0.5425,-0.5425,-0.5425,-0.5425,-0.5425,-0.5425,-0.5425,-0.5425,-0.5425,-0.5466,-0.5686,-0.5885,-0.5976,-0.603,-0.6152,-0.6261,-0.6197,-0.6203,-0.6281,-0.6217,-0.6116,-0.6084,-0.6071,-0.6179,-0.6247,-0.5967,-0.6113,-0.599,-0.4799,-0.4627,-0.4356,-0.3266,-0.4022,-0.4777,-0.4777,-0.5693,-0.637,-0.6383,-0.6479,-0.6569,-0.6569,-0.6793,-0.7027,-0.717,-0.7048,-0.7088,-0.736,-0.7078,-0.7101,-0.7375,-0.6007,-0.5298,-0.5473,-0.6532,-0.7165,-0.7361,-0.5517,-0.5608,-0.7335,-0.7335,-0.7335,-0.7335,-0.7335,-0.4522,0.0,0.0,0.0,0.0,0.0,0.0,0.0,0.0,0.0,0.0,1.0618,1.0618,1.0618,1.0618,1.0618,1.0618,1.0618,1.0618,1.0364,0.9588,0.712,0.5425,0.5425,0.5425,0.5425,0.5425,0.5425,0.4217,0.1343,0.1143,0.0807,0.0067,0.0,0.0,0.0,0.0,-0.1412,-0.4223,-0.1412,0.0,0.0,0.0,-0.0202,-0.0672,-0.2211,-0.3747,-0.5093,-0.5292,-0.5425,-0.5425,-0.5425,-0.5425,-0.5425,-0.5425,-0.5425,-0.5425,-0.5425,-0.5425,-0.5425,-0.5425,-0.5425,-0.5494,-0.5858,-0.6002,-0.5996,-0.6159,-0.6234,-0.6126,-0.528,-0.5701,-0.6291,-0.5426,-0.5921,-0.6525,-0.6403,-0.6437,-0.6183,-0.5322,-0.5173,-0.4895,-0.3665,-0.3506,-0.3434,-0.3183,-0.335,-0.3517,-0.3517,-0.3684,-0.3874,-0.3859,-0.4971,-0.5638,-0.5457,-0.6554,-0.7339,-0.7489,-0.736,-0.741,-0.7513,-0.6409,-0.5873,-0.6013,-0.4659,-0.4079,-0.4239,-0.3404,-0.3489,-0.4491,-0.2208,-0.1309,-0.1712,-0.1712,-0.1712,-0.1712,-0.1712,-0.1109,0.0,0.0,0.0,0.0,0.0,0.0,0.0,0.0,0.0,0.0,1.0618,1.0618,1.0618,1.0618,1.0618,1.0618,1.0618,1.0618,1.0618,1.0618,0.9,0.7892,0.7892,0.6408,0.5425,0.5425,0.5425,0.3885,0.027,0.0,0.0,0.0,0.0,0.0,0.0,0.0,-0.0941,-0.2817,-0.0941,0.0,0.0,0.0,0.0,-0.0067,-0.1609,-0.3413,-0.5359,-0.4954,-0.502,-0.5425,-0.5425,-0.5425,-0.5425,-0.5425,-0.5425,-0.5425,-0.5425,-0.5406,-0.5474,-0.5562,-0.5535,-0.556,-0.5235,-0.4876,-0.466,-0.4743,-0.4763,-0.4613,-0.4117,-0.4362,-0.4705,-0.4206,-0.4475,-0.5293,-0.6361,-0.6109,-0.5564,-0.5022,-0.4543,-0.3838,-0.2598,-0.2463,-0.2319,-0.1695,-0.214,-0.2487,-0.2463,-0.3011,-0.3298,-0.3301,-0.4085,-0.478,-0.5329,-0.6029,-0.6827,-0.7522,-0.7495,-0.7283,-0.6802,-0.593,-0.5265,-0.489,-0.3445,-0.2783,-0.2927,-0.1615,-0.1213,-0.1819,-0.0606,0.0,0.0,0.0,0.0,0.0,0.0,0.0,0.0,0.0,0.0,0.0,0.0,0.0,0.0,0.0,0.0,0.0,1.1421,1.1421,1.1233,1.0681,1.0618,1.0618,1.0618,1.0618,1.0618,1.0618,1.0618,1.0618,1.0618,0.7512,0.5425,0.5425,0.5425,0.4188,0.1242,0.0952,0.0673,0.0,0.0,0.0,0.0,0.0,0.0,0.0,0.0,0.0,0.0,0.0,-0.0337,-0.0941,-0.1745,-0.3147,-0.4888,-0.4417,-0.4688,-0.5425,-0.5425,-0.5425,-0.5425,-0.5425,-0.5446,-0.5466,-0.5466,-0.5467,-0.5555,-0.5596,-0.5732,-0.5702,-0.4854,-0.3612,-0.2605,-0.2895,-0.2976,-0.3061,-0.2885,-0.2986,-0.3112,-0.2912,-0.3022,-0.3714,-0.5729,-0.5357,-0.4582,-0.4426,-0.3696,-0.2804,-0.1538,-0.1396,-0.1143,-0.0191,-0.0857,-0.1515,-0.1489,-0.2351,-0.3025,-0.2984,-0.3219,-0.3833,-0.517,-0.536,-0.5815,-0.6889,-0.6932,-0.6567,-0.5769,-0.5256,-0.4693,-0.4028,-0.2369,-0.158,-0.1617,-0.0505,0.0,0.0,0.0,0.0,0.0,0.0,0.0,0.0,0.0,0.0,0.0,0.0,0.0,0.0,0.0,0.0,0.0,0.0,0.0,0.0,1.4746,1.4746,1.3897,1.1108,1.0618,1.0618,1.0618,1.0618,1.0618,1.0618,1.0618,1.0618,1.0618,0.7512,0.5425,0.5425,0.5425,0.5444,0.5418,0.4944,0.3284,0.0135,0.0,0.0,0.0,0.0,0.0,0.0,0.0,0.0,0.0,0.0,-0.1678,-0.4622,-0.3751,-0.3218,-0.3147,-0.4622,-0.5292,-0.5425,-0.5425,-0.5425,-0.5425,-0.5425,-0.5447,-0.5555,-0.5555,-0.5488,-0.5459,-0.5466,-0.583,-0.6207,-0.6086,-0.3458,-0.0661,-0.1897,-0.2624,-0.2908,-0.2042,-0.2505,-0.3046,-0.221,-0.2723,-0.3598,-0.3959,-0.3792,-0.3298,-0.2361,-0.2136,-0.1605,-0.0473,-0.019,-0.0191,0.0,-0.0095,-0.0286,-0.0285,-0.038,-0.0479,-0.0486,-0.1483,-0.2695,-0.4086,-0.4185,-0.4281,-0.4472,-0.4415,-0.4606,-0.5376,-0.3828,-0.3147,-0.393,-0.1508,-0.0302,-0.0303,-0.0101,0.0,0.0,0.0,0.0,0.0,0.0,0.0,0.0,0.0,0.0,0.0,0.0,0.0,0.0,0.0,0.0,0.0,0.0,0.0,0.0,1.541,1.541,1.4923,1.3537,1.3295,1.2687,1.087,1.0618,1.0618,1.0618,1.0618,1.0618,1.0618,0.7512,0.5425,0.5425,0.5425,0.5686,0.6297,0.6084,0.5068,0.3092,0.1076,0.0,0.0,0.0,0.0,0.0,0.0,0.0,0.0,0.0,-0.0874,-0.2415,-0.288,-0.2947,-0.2743,-0.3213,-0.4151,-0.5425,-0.5425,-0.5425,-0.5359,-0.4821,-0.4631,-0.4677,-0.4566,-0.4211,-0.3923,-0.3923,-0.4938,-0.6099,-0.4924,-0.2468,-0.0087,-0.0743,-0.113,-0.1275,-0.0864,-0.1073,-0.1322,-0.0919,-0.1238,-0.1553,-0.1614,-0.1509,-0.1508,-0.1785,-0.1241,-0.0678,-0.0097,0.0,0.0,0.0,0.0,0.0,0.0,0.0,0.0,0.0,-0.0502,-0.141,-0.2714,-0.2914,-0.3218,-0.3924,-0.399,-0.3788,-0.3528,-0.2899,-0.2298,-0.1816,-0.0606,0.0,0.0,0.0,0.0,0.0,0.0,0.0,0.0,0.0,0.0,0.0,0.0,0.0,0.0,0.0,0.0,0.0,0.0,0.0,0.0,0.0,0.0,0.0]}]]